[[{"header":{"parameterUnit":"m.s-1","parameterCategory":1,"la1":30.6,"la2":28.766,"lo1":-90.7593,"lo2":-88.6598,"dy":0.0162,"dx":0.0183,"nx":116,"ny":114,"refTime":"2023-05-09T12:00:00:Z","depth":0,"parameterNumber":2,"parameterNumberName":"U-component_of_WINDS"},"data":[0.0,0.0,0.0,0.0,0.0,0.0,0.0,0.0,0.0,0.0,0.0,0.0,0.0,0.0,0.0,0.0,0.0,0.0,0.0,0.0,0.0,0.0,0.0,0.0,0.0,0.0,0.0,0.0,0.0,0.0,0.0,0.0,0.0,0.0,0.0,0.0,0.0,0.0,0.0,0.0,0.0,0.0,0.0,0.0,0.0,0.0,0.0,0.0,0.0,0.0,0.0,0.0,0.0,0.0,0.0,0.0,0.0,0.0,0.0,0.0,0.0,0.0,0.0,0.0,0.0,0.0,0.0,0.0,0.0,0.0,0.0,0.0,0.0,0.0,0.0,0.0,0.0,0.0,0.0,0.0,0.0,0.0,0.0,0.0,0.0,0.0,0.0,0.0,0.0,0.0,0.0,0.0,0.0,0.0,0.0,0.0,0.0,0.0,0.0,0.0,0.0,0.0,0.0,0.0,0.0,0.0,0.0,0.0,0.0,0.0,0.0,0.0,0.0,0.0,0.0,0.0,0.0,0.0,0.0,0.0,0.0,0.0,0.0,0.0,0.0,0.0,0.0,0.0,0.0,0.0,0.0,0.0,0.0,0.0,0.0,0.0,0.0,0.0,0.0,0.0,0.0,0.0,0.0,0.0,0.0,0.0,0.0,0.0,0.0,0.0,0.0,0.0,0.0,0.0,0.0,0.0,0.0,0.0,0.0,0.0,0.0,0.0,0.0,0.0,0.0,0.0,0.0,0.0,0.0,0.0,0.0,0.0,0.0,0.0,0.0,0.0,0.0,0.0,0.0,0.0,0.0,0.0,0.0,0.0,0.0,0.0,0.0,0.0,0.0,0.0,0.0,0.0,0.0,0.0,0.0,0.0,0.0,0.0,0.0,0.0,0.0,0.0,0.0,0.0,0.0,0.0,0.0,0.0,0.0,0.0,0.0,0.0,0.0,0.0,0.0,0.0,0.0,0.0,0.0,0.0,0.0,0.0,0.0,0.0,0.0,0.0,0.0,0.0,0.0,0.0,0.0,0.0,0.0,0.0,0.0,0.0,0.0,0.0,0.0,0.0,0.0,0.0,0.0,0.0,0.0,0.0,0.0,0.0,0.0,0.0,0.0,0.0,0.0,0.0,0.0,0.0,0.0,0.0,0.0,0.0,0.0,0.0,0.0,0.0,0.0,0.0,0.0,0.0,0.0,0.0,0.0,0.0,0.0,0.0,0.0,0.0,0.0,0.0,0.0,0.0,0.0,0.0,0.0,0.0,0.0,0.0,0.0,0.0,0.0,0.0,0.0,0.0,0.0,0.0,0.0,0.0,0.0,0.0,0.0,0.0,0.0,0.0,0.0,0.0,0.0,0.0,0.0,0.0,0.0,0.0,0.0,0.0,0.0,0.0,0.0,0.0,0.0,0.0,0.0,0.0,0.0,0.0,0.0,0.0,0.0,0.0,0.0,0.0,0.0,0.0,0.0,0.0,0.0,0.0,0.0,0.0,0.0,0.0,0.0,0.0,0.0,0.0,0.0,0.0,0.0,0.0,0.0,0.0,0.0,0.0,0.0,0.0,0.0,0.0,0.0,0.0,0.0,0.0,0.0,0.0,0.0,0.0,0.0,0.0,0.0,0.0,0.0,0.0,0.0,0.0,0.0,0.0,0.0,0.0,0.0,0.0,0.0,0.0,0.0,0.0,0.0,0.0,0.0,0.0,0.0,0.0,0.0,0.0,0.0,0.0,0.0,0.0,0.0,0.0,0.0,0.0,0.0,0.0,0.0,0.0,0.0,0.0,0.0,0.0,0.0,0.0,0.0,0.0,0.0,0.0,0.0,0.0,0.0,0.0,0.0,0.0,0.0,0.0,0.0,0.0,0.0,0.0,0.0,0.0,0.0,0.0,0.0,0.0,0.0,0.0,0.0,0.0,0.0,0.0,0.0,0.0,0.0,0.0,0.0,0.0,0.0,0.0,0.0,0.0,0.0,0.0,0.0,0.0,0.0,0.0,0.0,0.0,0.0,0.0,0.0,0.0,0.0,0.0,0.0,0.0,0.0,0.0,0.0,0.0,0.0,0.0,0.0,0.0,0.0,0.0,0.0,0.0,0.0,0.0,0.0,0.0,0.0,0.0,0.0,0.0,0.0,0.0,0.0,0.0,0.0,0.0,0.0,0.0,0.0,0.0,0.0,0.0,0.0,0.0,0.0,0.0,0.0,0.0,0.0,0.0,0.0,0.0,0.0,0.0,0.0,0.0,0.0,0.0,0.0,0.0,0.0,0.0,0.0,0.0,0.0,0.0,0.0,0.0,0.0,0.0,0.0,0.0,0.0,0.0,0.0,0.0,0.0,0.0,0.0,0.0,0.0,0.0,0.0,0.0,0.0,0.0,0.0,0.0,0.0,0.0,0.0,0.0,0.0,0.0,0.0,0.0,0.0,0.0,0.0,0.0,0.0,0.0,0.0,0.0,0.0,0.0,0.0,0.0,0.0,0.0,0.0,0.0,0.0,0.0,0.0,0.0,0.0,0.0,0.0,0.0,0.0,0.0,0.0,0.0,0.0,0.0,0.0,0.0,0.0,0.0,0.0,0.0,0.0,0.0,0.0,0.0,0.0,0.0,0.0,0.0,0.0,0.0,0.0,0.0,0.0,0.0,0.0,0.0,0.0,0.0,0.0,0.0,0.0,0.0,0.0,0.0,0.0,0.0,0.0,0.0,0.0,0.0,0.0,0.0,0.0,0.0,0.0,0.0,0.0,0.0,0.0,0.0,0.0,0.0,0.0,0.0,0.0,0.0,0.0,0.0,0.0,0.0,0.0,0.0,0.0,0.0,0.0,0.0,0.0,0.0,0.0,0.0,0.0,0.0,0.0,0.0,0.0,0.0,0.0,0.0,0.0,0.0,0.0,0.0,0.0,0.0,0.0,0.0,0.0,0.0,0.0,0.0,0.0,0.0,0.0,0.0,0.0,0.0,0.0,0.0,0.0,0.0,0.0,0.0,0.0,0.0,0.0,0.0,0.0,0.0,0.0,0.0,0.0,0.0,0.0,0.0,0.0,0.0,0.0,0.0,0.0,0.0,0.0,0.0,0.0,0.0,0.0,0.0,0.0,0.0,0.0,0.0,0.0,0.0,0.0,0.0,0.0,0.0,0.0,0.0,0.0,0.0,0.0,0.0,0.0,0.0,0.0,0.0,0.0,0.0,0.0,0.0,0.0,0.0,0.0,0.0,0.0,0.0,0.0,0.0,0.0,0.0,0.0,0.0,0.0,0.0,0.0,0.0,0.0,0.0,0.0,0.0,0.0,0.0,0.0,0.0,0.0,0.0,0.0,0.0,0.0,0.0,0.0,0.0,0.0,0.0,0.0,0.0,0.0,0.0,0.0,0.0,0.0,0.0,0.0,0.0,0.0,0.0,0.0,0.0,0.0,0.0,0.0,0.0,0.0,0.0,0.0,0.0,0.0,0.0,0.0,0.0,0.0,0.0,0.0,0.0,0.0,0.0,0.0,0.0,0.0,0.0,0.0,0.0,0.0,0.0,0.0,0.0,0.0,0.0,0.0,0.0,0.0,0.0,0.0,0.0,0.0,0.0,0.0,0.0,0.0,0.0,0.0,0.0,0.0,0.0,0.0,0.0,0.0,0.0,0.0,0.0,0.0,0.0,0.0,0.0,0.0,0.0,0.0,0.0,0.0,0.0,0.0,0.0,0.0,0.0,0.0,0.0,0.0,0.0,0.0,0.0,0.0,0.0,0.0,0.0,0.0,0.0,0.0,0.0,0.0,0.0,0.0,0.0,0.0,0.0,0.0,0.0,0.0,0.0,0.0,0.0,0.0,0.0,0.0,0.0,0.0,0.0,0.0,0.0,0.0,0.0,0.0,0.0,0.0,0.0,0.0,0.0,0.0,0.0,0.0,0.0,0.0,0.0,0.0,0.0,0.0,0.0,0.0,0.0,0.0,0.0,0.0,0.0,0.0,0.0,0.0,0.0,0.0,0.0,0.0,0.0,0.0,0.0,0.0,0.0,0.0,0.0,0.0,0.0,0.0,0.0,0.0,0.0,0.0,0.0,0.0,0.0,0.0,0.0,0.0,0.0,0.0,0.0,0.0,0.0,0.0,0.0,0.0,0.0,0.0,0.0,0.0,0.0,0.0,0.0,0.0,0.0,0.0,0.0,0.0,0.0,0.0,0.0,0.0,0.0,0.0,0.0,0.0,0.0,0.0,0.0,0.0,0.0,0.0,0.0,0.0,0.0,0.0,0.0,0.0,0.0,0.0,0.0,0.0,0.0,0.0,0.0,0.0,0.0,0.0,0.0,0.0,0.0,0.0,0.0,0.0,0.0,0.0,0.0,0.0,0.0,0.0,0.0,0.0,0.0,0.0,0.0,0.0,0.0,0.0,0.0,0.0,0.0,0.0,0.0,0.0,0.0,0.0,0.0,0.0,0.0,0.0,0.0,0.0,0.0,0.0,0.0,0.0,0.0,0.0,0.0,0.0,0.0,0.0,0.0,0.0,0.0,0.0,0.0,0.0,0.0,0.0,0.0,0.0,0.0,0.0,0.0,0.0,0.0,0.0,0.0,0.0,0.0,0.0,0.0,0.0,0.0,0.0,0.0,0.0,0.0,0.0,0.0,0.0,0.0,0.0,0.0,0.0,0.0,0.0,0.0,0.0,0.0,0.0,0.0,0.0,0.0,0.0,0.0,0.0,0.0,0.0,0.0,0.0,0.0,0.0,0.0,0.0,0.0,0.0,0.0,0.0,0.0,0.0,0.0,0.0,0.0,0.0,0.0,0.0,0.0,0.0,0.0,0.0,0.0,0.0,0.0,0.0,0.0,0.0,0.0,0.0,0.0,0.0,0.0,0.0,0.0,0.0,0.0,0.0,0.0,0.0,0.0,0.0,0.0,0.0,0.0,0.0,0.0,0.0,0.0,0.0,0.0,0.0,0.0,0.0,0.0,0.0,0.0,0.0,0.0,0.0,0.0,0.0,0.0,0.0,0.0,0.0,0.0,0.0,0.0,0.0,0.0,0.0,0.0,0.0,0.0,0.0,0.0,0.0,0.0,0.0,0.0,0.0,0.0,0.0,0.0,0.0,0.0,0.0,0.0,0.0,0.0,0.0,0.0,0.0,0.0,0.0,0.0,0.0,0.0,0.0,0.0,0.0,0.0,0.0,0.0,0.0,0.0,0.0,0.0,0.0,0.0,0.0,0.0,0.0,0.0,0.0,0.0,0.0,0.0,0.0,0.0,0.0,0.0,0.0,0.0,0.0,0.0,0.0,0.0,0.0,0.0,0.0,0.0,0.0,0.0,0.0,0.0,0.0,0.0,0.0,0.0,0.0,0.0,0.0,0.0,0.0,0.0,0.0,0.0,0.0,0.0,0.0,0.0,0.0,0.0,0.0,0.0,0.0,0.0,0.0,0.0,0.0,0.0,0.0,0.0,0.0,0.0,0.0,0.0,0.0,0.0,0.0,0.0,0.0,0.0,0.0,0.0,0.0,0.0,0.0,0.0,0.0,0.0,0.0,0.0,0.0,0.0,0.0,0.0,0.0,0.0,0.0,0.0,0.0,0.0,0.0,0.0,0.0,0.0,0.0,0.0,0.0,0.0,0.0,0.0,0.0,0.0,0.0,0.0,0.0,0.0,0.0,0.0,0.0,0.0,0.0,0.0,0.0,0.0,0.0,0.0,0.0,0.0,0.0,0.0,0.0,0.0,0.0,0.0,0.0,0.0,0.0,0.0,0.0,0.0,0.0,0.0,0.0,0.0,0.0,0.0,0.0,0.0,0.0,0.0,0.0,0.0,0.0,0.0,0.0,0.0,0.0,0.0,0.0,0.0,0.0,0.0,0.0,0.0,0.0,0.0,0.0,0.0,0.0,0.0,0.0,0.0,0.0,0.0,0.0,0.0,0.0,0.0,0.0,0.0,0.0,0.0,0.0,0.0,0.0,0.0,0.0,0.0,0.0,0.0,0.0,0.0,0.0,0.0,0.0,0.0,0.0,0.0,0.0,0.0,0.0,0.0,0.0,0.0,0.0,0.0,0.0,0.0,0.0,0.0,0.0,0.0,0.0,0.0,0.0,0.0,0.0,0.0,0.0,0.0,0.0,0.0,-4.0544,-4.0691,0.0,0.0,0.0,0.0,0.0,0.0,0.0,0.0,0.0,0.0,0.0,0.0,0.0,0.0,0.0,0.0,0.0,0.0,0.0,0.0,0.0,0.0,0.0,0.0,0.0,0.0,0.0,0.0,0.0,0.0,0.0,0.0,0.0,0.0,0.0,0.0,0.0,0.0,-3.1879,-3.3011,-3.3851,-3.6559,-3.8473,-3.9657,0.0,0.0,0.0,0.0,0.0,0.0,0.0,0.0,0.0,0.0,0.0,0.0,0.0,0.0,0.0,0.0,0.0,0.0,0.0,0.0,0.0,0.0,0.0,0.0,0.0,0.0,0.0,0.0,0.0,0.0,0.0,0.0,0.0,0.0,0.0,0.0,0.0,0.0,0.0,0.0,0.0,0.0,0.0,0.0,0.0,0.0,0.0,0.0,0.0,0.0,0.0,0.0,0.0,0.0,0.0,0.0,0.0,0.0,0.0,0.0,0.0,0.0,0.0,0.0,0.0,0.0,0.0,0.0,0.0,0.0,-4.1194,-4.1243,0.0,0.0,0.0,0.0,0.0,0.0,0.0,0.0,0.0,0.0,0.0,0.0,0.0,0.0,0.0,0.0,0.0,0.0,0.0,0.0,0.0,0.0,0.0,0.0,-2.9591,-2.9441,-2.8978,-2.8522,0.0,0.0,0.0,0.0,0.0,0.0,0.0,-2.9501,-2.9892,-3.034,-3.0949,-3.2153,-3.3913,-3.4884,-3.6502,-3.8469,-3.8079,0.0,0.0,0.0,0.0,0.0,0.0,0.0,0.0,0.0,0.0,0.0,0.0,0.0,0.0,0.0,0.0,0.0,0.0,0.0,0.0,0.0,0.0,0.0,0.0,0.0,0.0,0.0,0.0,0.0,0.0,0.0,0.0,0.0,0.0,0.0,0.0,0.0,0.0,0.0,0.0,0.0,0.0,0.0,0.0,0.0,0.0,0.0,0.0,0.0,0.0,0.0,0.0,0.0,0.0,0.0,0.0,0.0,0.0,0.0,0.0,0.0,0.0,0.0,-4.2724,-4.2899,-4.2882,-4.2782,-4.2758,-4.2841,-4.2047,-4.199,-4.2339,-4.1659,0.0,0.0,0.0,0.0,0.0,0.0,0.0,0.0,0.0,0.0,0.0,0.0,0.0,0.0,0.0,0.0,0.0,0.0,0.0,0.0,0.0,-2.8908,-2.8663,-2.8026,-2.7901,-2.7869,0.0,0.0,0.0,0.0,0.0,0.0,-2.8396,-2.8412,-2.8346,-2.8129,-2.9549,-3.1262,-3.3152,-3.3192,-3.4816,-3.7747,-3.831,-3.8835,-3.9293,0.0,0.0,0.0,0.0,0.0,0.0,0.0,0.0,0.0,0.0,0.0,0.0,0.0,0.0,0.0,0.0,0.0,0.0,0.0,0.0,0.0,0.0,0.0,0.0,0.0,0.0,0.0,0.0,0.0,0.0,0.0,0.0,0.0,0.0,0.0,0.0,0.0,0.0,0.0,0.0,0.0,-4.2746,-4.2855,0.0,0.0,0.0,0.0,0.0,0.0,0.0,0.0,0.0,0.0,0.0,0.0,0.0,-4.1999,-4.1999,-4.2722,-4.3122,-4.3223,-4.3287,-4.3323,-4.3306,-4.2643,-4.2654,-4.3142,-4.3006,0.0,-4.2803,-4.2519,0.0,0.0,0.0,0.0,0.0,0.0,0.0,0.0,0.0,0.0,0.0,0.0,0.0,0.0,0.0,0.0,0.0,0.0,0.0,0.0,0.0,-2.841,-2.8057,-2.7709,-2.714,-2.6841,-2.6885,-2.6704,0.0,0.0,0.0,-2.6093,-2.5902,-2.5367,-2.5334,-2.5798,-2.7384,-2.8705,-2.9754,-3.1662,-3.3329,-3.4701,-3.5807,-3.7537,-3.9536,-3.8223,0.0,0.0,0.0,0.0,0.0,0.0,0.0,0.0,0.0,0.0,0.0,0.0,0.0,0.0,0.0,0.0,0.0,0.0,0.0,0.0,0.0,0.0,0.0,0.0,0.0,0.0,0.0,0.0,0.0,0.0,0.0,0.0,0.0,0.0,0.0,0.0,0.0,0.0,0.0,-3.9708,-4.1117,-4.0788,-4.1428,-4.134,0.0,0.0,0.0,0.0,0.0,0.0,0.0,0.0,0.0,-4.272,-4.3186,-4.3667,-4.4215,-4.4942,-4.5111,-4.4705,-4.4705,-4.4485,-4.4062,-4.3752,-4.3746,-4.3962,-4.3509,-4.304,-4.2545,-4.222,-4.1887,-4.1504,0.0,0.0,0.0,0.0,-4.148,-4.1201,0.0,0.0,0.0,0.0,0.0,0.0,0.0,0.0,0.0,0.0,0.0,0.0,-2.8249,-2.7753,-2.7455,-2.7519,-2.67,-2.6146,-2.6033,-2.5218,0.0,0.0,-2.3772,-2.341,-2.3737,-2.3308,-2.3544,-2.4392,-2.5694,-2.6465,-2.6689,-2.9888,-3.1569,-3.2008,-3.3451,-3.5837,-3.8745,-3.7674,-3.7287,-3.7307,0.0,0.0,0.0,0.0,0.0,0.0,0.0,0.0,0.0,0.0,0.0,0.0,0.0,0.0,0.0,0.0,0.0,0.0,0.0,0.0,0.0,0.0,0.0,0.0,0.0,0.0,0.0,0.0,0.0,0.0,0.0,0.0,0.0,0.0,0.0,0.0,0.0,-3.9411,-4.0382,-3.9484,-4.0992,-4.1151,0.0,0.0,0.0,0.0,0.0,0.0,-4.1199,-4.1247,-4.1885,-4.3273,-4.3922,-4.4688,-4.5618,-4.6186,-4.6376,-4.6261,-4.5889,-4.55,-4.5156,-4.4784,-4.4496,-4.4248,-4.3673,-4.298,-4.2264,-4.1934,-4.1684,-4.1433,-4.0842,-4.0609,-4.0774,-4.1959,-4.2025,-4.1695,0.0,0.0,0.0,0.0,0.0,0.0,0.0,0.0,0.0,0.0,0.0,-2.6663,-2.6792,-2.6777,-2.6825,-2.702,-2.6664,-2.6212,-2.5742,-2.4513,-2.3592,-2.3105,-2.2519,-2.2361,-2.2761,-2.3692,-2.4367,-2.4704,-2.5149,-2.539,-2.5415,-2.7582,-2.9341,-3.0731,-3.2427,-3.435,-3.6335,-3.6048,-3.6136,-3.6551,-3.6225,0.0,0.0,0.0,0.0,0.0,0.0,0.0,0.0,0.0,0.0,0.0,0.0,0.0,0.0,0.0,0.0,0.0,0.0,0.0,0.0,0.0,0.0,0.0,0.0,0.0,0.0,0.0,0.0,0.0,0.0,0.0,0.0,0.0,0.0,0.0,0.0,0.0,0.0,-4.094,-4.3658,0.0,0.0,0.0,0.0,-4.0642,-4.1215,-4.1914,-4.2664,-4.2696,-4.3097,-4.3932,-4.398,-4.4478,-4.5413,-4.5446,-4.625,-4.7753,-4.638,-4.6058,-4.6633,-4.5258,-4.4181,-4.3443,-4.3409,-4.298,-4.2272,-4.2142,-4.1637,-4.0978,-4.1511,-4.1729,-4.181,-4.2447,-4.2659,-4.2699,0.0,0.0,0.0,0.0,0.0,0.0,0.0,0.0,-2.6584,-2.6856,-2.6497,-2.6466,-2.7071,-2.6764,-2.6635,-2.6943,-2.6631,-2.595,-2.4852,-2.4135,-2.3223,-2.222,-2.1322,-2.0749,-2.0576,-2.1126,-2.1662,-2.2122,-2.3308,-2.4014,-2.4239,-2.6048,-2.7116,-2.7672,-2.8277,-2.9512,-3.1337,-3.3872,-3.4831,-3.474,-3.5111,-3.5034,0.0,0.0,0.0,0.0,0.0,0.0,0.0,0.0,0.0,0.0,0.0,0.0,0.0,0.0,0.0,0.0,0.0,0.0,0.0,0.0,0.0,0.0,0.0,0.0,0.0,0.0,0.0,0.0,0.0,0.0,0.0,0.0,0.0,0.0,0.0,0.0,0.0,-3.9624,-4.2629,0.0,-4.0892,-4.1158,-4.123,-4.0541,-4.1122,-4.1811,-4.2505,-4.2536,-4.3137,-4.446,-4.4528,-4.4962,-4.5918,-4.5499,-4.562,-4.63,-4.5333,-4.5051,-4.5359,-4.4299,-4.3673,-4.3341,-4.2405,-4.1847,-4.1551,-4.1018,-4.0914,-4.1083,-4.1181,-4.1223,-4.1273,-4.1895,-4.2121,-4.2162,0.0,0.0,0.0,0.0,0.0,0.0,0.0,0.0,-2.5465,-2.5723,-2.5493,-2.5722,-2.6727,-2.6546,-2.668,-2.7383,-2.6622,-2.5624,-2.4579,-2.3226,-2.2037,-2.1049,-1.9548,-1.9049,-1.9633,-1.9357,-1.9735,-2.0822,-2.1913,-2.2562,-2.2772,-2.4409,-2.52,-2.52,-2.5741,-2.6591,-2.7776,-3.0399,-3.2199,-3.3266,-3.3877,-3.4015,-3.3808,0.0,0.0,0.0,0.0,0.0,0.0,0.0,0.0,0.0,0.0,0.0,0.0,0.0,0.0,0.0,0.0,0.0,0.0,0.0,0.0,0.0,0.0,0.0,0.0,0.0,0.0,0.0,0.0,0.0,0.0,0.0,0.0,0.0,0.0,-3.8274,-4.0373,-3.8796,-4.2015,-4.3393,-4.0973,-4.1728,-4.2013,-4.113,-4.1669,-4.2222,-4.2671,-4.2686,-4.3178,-4.4243,-4.4282,-4.4759,-4.5742,-4.5064,-4.4928,-4.531,-4.4411,-4.4005,-4.4072,-4.3588,-4.3082,-4.2562,-4.1876,-4.1288,-4.0781,-4.0316,-4.04,-4.0815,-4.0686,-4.0631,-4.0703,-4.1291,-4.149,-4.1499,0.0,0.0,0.0,0.0,0.0,0.0,0.0,-2.3135,-2.3101,-2.3067,-2.35,-2.4297,-2.5499,-2.6083,-2.6853,-2.8111,-2.6435,-2.5208,-2.4891,-2.1869,-1.9919,-1.9517,-1.7293,-1.7325,-2.0006,-1.8594,-1.8859,-2.0899,-2.0899,-2.0906,-2.0976,-2.2647,-2.345,-2.3504,-2.5138,-2.5855,-2.5924,-2.5924,-2.8287,-3.2069,-3.2539,-3.2927,-3.324,0.0,0.0,0.0,0.0,0.0,0.0,0.0,0.0,0.0,0.0,0.0,0.0,0.0,0.0,0.0,0.0,0.0,0.0,0.0,0.0,0.0,0.0,0.0,0.0,0.0,0.0,0.0,0.0,0.0,0.0,0.0,0.0,0.0,-3.5086,-3.7798,-3.9505,-3.8839,-4.2136,-4.3673,-4.168,-4.32,-4.3808,-4.256,-4.2985,-4.329,-4.329,-4.329,-4.329,-4.329,-4.329,-4.3771,-4.4706,-4.4068,-4.4188,-4.5088,-4.3679,-4.3055,-4.3056,-4.3139,-4.239,-4.1025,-4.1808,-4.1354,-4.002,-4.002,-4.0045,-4.007,-4.0096,-4.0096,-4.0171,-4.0679,-4.0862,-4.0834,0.0,0.0,0.0,0.0,0.0,0.0,0.0,-2.3637,-2.289,-2.237,-2.3419,-2.4283,-2.4398,-2.4923,-2.5485,-2.6164,-2.4499,-2.3008,-2.1947,-2.0543,-1.8925,-1.7112,-1.663,-1.6373,-1.6409,-1.5994,-1.6226,-1.7202,-1.7202,-1.7232,-1.7339,-1.907,-1.9903,-1.9967,-2.1685,-2.3131,-2.4232,-2.4232,-2.5607,-2.7893,-2.9817,-3.0231,-2.9908,0.0,0.0,0.0,0.0,0.0,0.0,0.0,0.0,0.0,0.0,0.0,0.0,0.0,0.0,0.0,0.0,0.0,0.0,0.0,0.0,0.0,0.0,0.0,0.0,0.0,0.0,0.0,0.0,0.0,0.0,0.0,-3.4135,-3.5335,-3.5366,-3.8359,-4.0435,-4.0262,-4.3118,-4.4714,-4.3688,-4.4448,-4.4676,-4.3838,-4.3469,-4.329,-4.329,-4.329,-4.329,-4.329,-4.329,-4.3208,-4.3075,-4.2395,-4.227,-4.2657,-4.1784,-4.168,-4.227,-4.1271,-4.0589,-4.0153,-3.9385,-3.8804,-3.843,-3.843,-3.8734,-3.9289,-3.9859,-4.0096,-4.0121,-4.0279,-3.9971,-3.9573,0.0,0.0,0.0,0.0,0.0,0.0,0.0,-2.4253,-2.3315,-2.1907,-2.2667,-2.3364,-2.3374,-2.3388,-2.3759,-2.4675,-2.2919,-2.1298,-2.0355,-1.9459,-1.8158,-1.6333,-1.5806,-1.5349,-1.4983,-1.4319,-1.4541,-1.5637,-1.5661,-1.5773,-1.5841,-1.6904,-1.7404,-1.7468,-1.8442,-1.9846,-2.1483,-2.1483,-2.2416,-2.4147,-2.6464,-2.7372,-2.7578,-2.9981,-3.0631,-3.0431,-3.2064,-3.2323,-3.2039,-3.2919,0.0,0.0,0.0,0.0,0.0,0.0,0.0,0.0,0.0,0.0,0.0,0.0,0.0,0.0,0.0,0.0,0.0,0.0,0.0,0.0,0.0,0.0,0.0,0.0,-3.5454,-3.6395,-3.6872,-3.8689,-4.0174,-4.0746,-4.3036,-4.4425,-4.4033,-4.4796,-4.4915,-4.3932,-4.3514,-4.329,-4.329,-4.329,-4.317,-4.294,-4.3155,-4.2895,-4.1991,-4.1564,-4.1324,-4.1138,-4.0486,-4.0259,-4.046,-4.0038,-3.9503,-3.8902,-3.8471,-3.8078,-3.7793,-3.7793,-3.8064,-3.8525,0.0,0.0,0.0,0.0,-3.9639,-3.8986,0.0,0.0,0.0,0.0,0.0,0.0,0.0,-2.4957,-2.3998,-2.1763,-2.1889,-2.2299,-2.2505,-2.1943,-2.2079,-2.3435,-2.148,-2.0001,-1.9591,-1.8631,-1.7601,-1.6556,-1.5035,-1.436,-1.47,-1.3127,-1.3163,-1.4854,-1.4998,-1.5111,-1.514,-1.5426,-1.5594,-1.5594,-1.5784,-1.6888,-1.8506,-1.8506,-1.9483,-2.1256,-2.3055,-2.4524,-2.5995,-2.8201,-2.8918,-2.8912,-3.1032,-3.1436,-3.1223,-3.222,0.0,0.0,0.0,0.0,0.0,0.0,0.0,0.0,0.0,0.0,0.0,0.0,0.0,0.0,0.0,0.0,0.0,0.0,0.0,0.0,0.0,0.0,0.0,0.0,-3.7021,-3.7751,-3.8856,-3.9007,-3.9435,-4.0559,-4.2234,-4.3268,-4.328,-4.4378,-4.4642,-4.3499,-4.3334,-4.329,-4.329,-4.329,0.0,0.0,0.0,-4.2596,-4.128,-4.1265,-4.0935,-4.0277,-3.9694,-3.905,-3.8412,-3.9118,-3.8731,-3.7496,-3.8209,-3.8146,-3.7531,-3.7531,-3.7589,-3.7748,-3.858,-3.9394,-4.0096,-4.0011,-3.952,-3.8768,0.0,0.0,0.0,0.0,0.0,0.0,0.0,-2.5942,-2.4298,-2.2868,-2.3146,-2.3121,-2.2217,-2.2378,-2.2278,-2.1601,-2.0144,-1.8913,-1.8087,-1.8259,-1.7813,-1.6568,-1.5258,-1.398,-1.2746,-1.1187,-1.0606,-1.1076,-1.1244,-1.1389,-1.1516,-1.3105,-1.3774,-1.384,-1.5269,-1.6888,-1.8506,-1.8506,-1.9483,-2.1136,-2.1808,-2.287,-2.4255,-2.6269,-2.6779,-2.6874,-2.9372,-3.0422,-3.0919,-3.2301,-3.2667,-3.2443,-3.1702,-3.0801,0.0,0.0,0.0,0.0,0.0,0.0,0.0,0.0,0.0,0.0,0.0,0.0,0.0,0.0,0.0,0.0,0.0,0.0,0.0,-3.6872,-3.7877,-3.8781,-3.9433,-3.9534,-3.9637,-3.9867,-4.1104,-4.2129,-4.2634,-4.3336,-4.3884,-4.4101,-4.3589,-4.329,-4.329,-4.329,-4.303,-4.2425,-4.2515,-4.1961,-4.0606,-4.0591,-4.0262,-3.9604,-3.9448,0.0,-3.8377,-3.7996,-3.7436,-3.6682,-3.6334,-3.608,-3.5941,-3.5941,-3.6305,-3.6964,-3.837,-3.9394,-4.0028,-3.9411,-3.8751,-3.8007,0.0,0.0,0.0,0.0,0.0,0.0,0.0,-2.8191,-2.6549,-2.4797,-2.4337,-2.3779,-2.2605,-2.2172,-2.1751,-2.1186,-1.9556,-1.8297,-1.7647,-1.8009,-1.7723,-1.6562,-1.6068,-1.4653,-1.2273,-1.1438,-1.064,-0.9872,-1.009,-1.0243,-1.0388,-1.1434,-1.1942,-1.2022,-1.2935,-1.4749,-1.7211,-1.7211,-1.8698,-2.1136,-2.1501,-2.1874,-2.2557,-2.4476,-2.5007,-2.5053,-2.7164,-2.8577,-2.9687,-3.0903,-3.1824,-3.2501,-3.2369,-3.1689,-3.071,0.0,0.0,0.0,0.0,0.0,0.0,0.0,0.0,0.0,0.0,0.0,0.0,0.0,0.0,-3.2688,-3.3327,0.0,-3.6835,-3.8216,-3.868,-3.9108,-3.9622,-3.9697,-3.9697,-3.9697,-4.0844,-4.1493,-4.1174,-4.2525,-4.3256,-4.2969,-4.3174,-4.329,-4.329,-4.3015,-4.2701,-4.241,-4.2081,-4.1437,-4.0412,-4.0397,-4.0068,-3.9388,-3.9388,-3.8886,-3.7883,-3.7554,-3.6896,-3.5968,-3.5654,-3.5504,-3.5504,-3.5504,-3.5911,-3.6661,-3.7438,-3.8481,-3.9508,-3.9547,-3.8853,-3.7855,0.0,0.0,0.0,0.0,0.0,0.0,0.0,-3.0451,-2.912,-2.7296,-2.6136,-2.5111,-2.4057,-2.3054,-2.2195,-2.1666,-1.9493,-1.8027,-1.7904,-1.7889,-1.7602,-1.6948,-1.6872,-1.5708,-1.3108,-1.2491,-1.1559,-1.0301,-1.0095,-1.0051,-1.0239,-1.0412,-1.0558,-1.0677,-1.0707,-1.2606,-1.5913,-1.5913,-1.7923,-2.1129,-2.137,-2.1508,-2.1754,-2.3306,-2.361,-2.3325,-2.4955,-2.6488,-2.7941,-2.9171,-3.0534,-3.1989,-3.2792,-3.2434,-3.1492,-3.06,-3.01,0.0,0.0,0.0,0.0,0.0,0.0,0.0,0.0,-2.9532,-2.9575,-3.0356,-3.1789,-3.3342,-3.4906,-3.6033,-3.7419,-3.9508,-3.9396,-3.9182,-3.9634,-3.9697,-3.9697,-3.9697,-4.0605,-4.0861,-3.9899,-4.1544,-4.2408,-4.1646,-4.2467,-4.3076,-4.329,-4.2836,-4.253,-4.2396,-4.1767,-4.107,-4.0412,-4.0277,-3.9948,-3.9388,-3.9388,-3.8781,-3.7599,-3.7464,-3.6791,-3.5684,-3.5564,-3.5504,-3.5504,-3.5504,-3.5831,-3.6384,-3.6554,-3.735,-3.8547,-3.9365,-3.8807,-3.7663,0.0,0.0,0.0,0.0,0.0,0.0,0.0,0.0,-3.0747,-3.0485,-2.9479,-2.8402,-2.7455,-2.7203,-2.5961,-2.3055,-1.9924,-1.8323,-1.881,-1.8081,-1.7849,-1.8282,-1.7181,-1.6391,-1.6039,-1.3487,-1.2093,-1.1916,-1.0645,-0.9997,-1.0017,-1.0361,-1.05,-1.0524,-1.066,-1.2606,-1.5913,-1.5913,-1.7923,-2.1109,-2.1149,-2.2006,-2.3333,-2.3549,-2.2683,-2.1601,-2.3263,-2.4635,-2.5956,-2.7923,-2.9417,-3.0529,-3.1067,-3.0829,-3.0244,-2.9372,-2.8579,-2.7776,-2.6804,-2.6963,-2.7606,-2.8654,-2.8854,-2.9429,0.0,-3.1514,-3.0831,-3.1248,-3.2878,-3.4533,-3.5748,-3.7022,-3.8441,-4.0152,-3.9961,-3.9622,-3.9685,-3.9697,-3.9697,-3.9697,-3.9839,-3.9879,-3.9817,-4.0052,-4.0595,-4.1521,-4.1726,-4.2249,-4.325,-4.323,-4.2955,-4.2425,-4.1767,-4.107,-4.0412,-3.9828,-3.9448,-3.9388,-3.9388,-3.902,-3.8257,-3.7674,-3.703,-3.6342,-3.5759,-3.5504,-3.5504,-3.5504,-3.5554,-3.5701,-3.6337,-3.6691,-3.696,-3.7753,-3.7553,-3.6836,0.0,0.0,0.0,0.0,0.0,0.0,0.0,0.0,0.0,-3.2736,-3.1848,-3.0845,-2.9834,-2.8602,-2.6777,-2.4039,-2.2066,-2.0533,-1.9589,-1.9537,-1.9802,-2.0234,-1.9322,-1.8404,-1.7478,-1.5515,-1.4091,-1.3339,-1.1834,-1.1623,-1.2795,-1.2201,-1.2438,-1.3435,-1.3626,-1.5074,-1.7404,-1.7404,-1.8832,-2.1109,-2.1109,-2.2097,-2.3551,-2.3296,-2.3336,-2.3619,-2.435,-2.5189,0.0,0.0,-2.8463,-2.9531,-2.998,-2.9814,-2.9287,-2.8437,-2.8291,-2.8428,-2.8564,-2.8555,-2.875,-2.9805,-3.0439,-3.1094,-3.2178,-3.1816,-3.1445,-3.2119,-3.3415,-3.4848,-3.6191,-3.7613,-3.9085,-4.0711,-4.0538,-4.0287,-4.0614,-4.0099,-3.981,-4.0136,-3.9885,-3.9449,-3.8828,-3.9364,-4.0026,-4.0574,-4.1211,-4.2111,-4.325,-4.297,-4.2821,-4.2925,-4.1923,-4.1287,-4.0965,-4.0322,-3.9798,-3.9388,-3.9005,-3.8467,-3.7808,-3.7165,-3.6522,-3.5893,-3.5624,-3.5504,-3.5504,-3.5504,-3.5265,-3.4938,-3.5257,-3.5124,-3.5003,-3.663,-3.6751,-3.6133,0.0,0.0,0.0,0.0,0.0,0.0,0.0,0.0,0.0,0.0,-3.3984,-3.3316,-3.2258,-3.0135,-2.8059,-2.6363,-2.4776,-2.324,-2.1789,-2.1646,-2.1767,-2.2105,-2.1444,-2.0491,-1.9312,-1.781,-1.6412,-1.5126,-1.3712,-1.3584,-1.462,-1.3806,-1.4073,-1.5292,-1.5632,-1.6792,-1.8406,-1.8477,-1.9483,-2.1172,-2.1601,-2.2764,-2.4263,-2.428,-2.5087,-2.6188,-2.5319,-2.5554,0.0,-2.6518,-2.7676,-2.9142,-2.9461,-2.9421,-2.9142,-2.8515,-2.8207,-2.8074,-2.8621,-2.8615,-2.8622,-2.9515,-3.0456,-3.1308,-3.1941,-3.1856,-3.1903,-3.2912,-3.3778,-3.4867,-3.6764,-3.7896,-3.9169,-4.1218,-4.1103,-4.0774,-4.1025,-4.0425,-4.0011,-4.0262,-4.0234,-3.969,-3.8391,-3.89,-3.9406,-3.9598,-4.0258,-4.128,-4.2765,-4.2416,-4.2372,-4.2805,-4.1888,-4.1255,-4.092,-4.0383,-3.9888,-3.9373,-3.8916,-3.8317,-3.7659,-3.6851,-3.6133,-3.5504,-3.5504,-3.5504,-3.5504,-3.5504,-3.51,-3.4503,-3.4503,-3.4099,-3.3667,-3.5101,-3.5394,-3.5136,0.0,0.0,0.0,0.0,0.0,0.0,0.0,0.0,0.0,0.0,0.0,0.0,0.0,-3.2583,-3.0871,-3.0821,-2.7861,-2.6106,-2.627,-2.4321,-2.3259,-2.3635,-2.2878,-2.2417,-2.236,-2.0423,-1.873,-1.7384,-1.6508,-1.5415,-1.4222,-1.46,-1.4745,-1.4836,-1.534,-1.6487,-1.8154,-1.8401,-1.9483,-2.1235,-2.2897,-2.4479,-2.6064,-2.7202,-2.8114,-2.8387,-2.5261,0.0,-2.5837,-2.5416,-2.7117,-2.9474,-2.9484,-2.9786,-3.0057,-3.0037,-2.7986,-2.5593,-2.5237,-2.5266,-2.5679,-2.6572,-2.7654,-2.9085,-3.1417,-3.1916,-3.2274,-3.3779,-3.4088,-3.4919,-3.767,-3.7787,-3.8505,-4.1656,-4.1668,-4.1075,-4.0614,-4.0513,-4.03,-3.9785,-4.0807,-4.0848,-3.9045,-3.8391,-3.8324,-3.8912,-3.847,-3.92,-4.1545,-4.1614,-4.1614,-4.1629,-4.1469,-4.0843,-3.9675,-3.9497,-3.9403,-3.9388,-3.9394,-3.9035,-3.8317,-3.706,-3.6133,-3.5504,-3.5504,-3.5504,-3.5504,-3.5504,-3.51,-3.4503,-3.4503,-3.4099,-3.3425,-3.2856,-3.3026,-3.369,0.0,0.0,0.0,0.0,0.0,0.0,0.0,0.0,0.0,0.0,0.0,0.0,0.0,0.0,0.0,0.0,-3.1387,-2.9828,-2.9201,-2.8235,-2.7765,-2.7898,-2.7016,-2.654,-2.654,-2.4336,-2.2859,-2.2146,-2.0161,-1.9377,-1.9718,-1.9273,-1.9608,-2.06,-2.0313,-2.118,-2.2771,-2.0784,-2.1686,-2.4263,-2.3442,-2.4743,-2.7149,-2.6718,-2.7335,-2.8189,0.0,-2.5933,-2.6913,-2.7102,-2.8128,-2.9404,-3.0084,-3.0171,-2.9894,-2.9091,-2.7763,-2.655,-2.6565,-2.7035,-2.7658,-2.8106,-2.8761,-2.9862,-3.2263,-3.2498,-3.2741,-3.4168,-3.3818,-3.4051,-3.6637,-3.7103,-3.8182,-4.1618,-4.2049,-4.1944,-4.212,-4.153,-4.0852,-4.03,-4.0628,-4.0837,-4.0698,-3.9813,-3.9138,-3.8925,-3.8392,-3.8769,-4.0404,-4.1169,-4.1587,-4.1587,-4.1883,-4.165,-4.0805,-4.0301,-3.9843,-3.9373,-3.8512,-3.7524,-3.6462,-3.6028,-3.5714,-3.5504,-3.5504,-3.5504,-3.5504,-3.5504,-3.51,-3.4459,-3.3993,-3.3425,-3.2766,-3.2079,-3.1984,-3.227,0.0,0.0,0.0,0.0,0.0,0.0,0.0,0.0,0.0,0.0,0.0,0.0,0.0,0.0,0.0,0.0,0.0,-3.3346,-3.2656,-3.2072,-3.175,-3.175,-3.0813,-3.0278,-3.0278,-2.8297,-2.6862,-2.6122,-2.4116,-2.33,-2.3562,-2.2992,-2.327,-2.4248,-2.4064,-2.4758,-2.5907,-2.3587,-2.4174,-2.6492,-2.4693,-2.5491,-2.7668,-2.6689,-2.6949,0.0,-2.6191,-2.6318,-2.7129,-2.7191,-2.8017,-2.9216,-3.009,-3.0189,-2.9781,-2.8731,-2.7492,-2.6629,-2.7278,-2.7692,-2.8037,-2.8527,-2.9182,-3.0224,-3.2298,-3.2588,-3.286,-3.3994,-3.3467,-3.3375,-3.5298,-3.6191,-3.7481,-4.0153,-4.1147,-4.1693,-4.2045,-4.1317,-4.0689,-4.0538,-4.073,-4.0901,-4.092,-4.0293,-3.9725,-3.9308,-3.8741,-3.8682,-3.9241,-4.0347,-4.1,-4.1,-4.1321,-4.1048,-4.0217,-3.9343,-3.875,-3.845,-3.7516,-3.6641,-3.5848,-3.5236,-3.5166,-3.5472,-3.5133,-3.5166,-3.5504,-3.5504,-3.51,-3.4474,-3.4039,-3.3305,-3.2437,-3.2019,-3.1705,-3.1553,0.0,0.0,0.0,0.0,0.0,0.0,0.0,0.0,0.0,0.0,0.0,0.0,0.0,0.0,0.0,0.0,0.0,0.0,-3.6534,-3.5597,-3.5048,-3.5048,-3.4082,-3.3521,-3.3521,-3.2121,-3.0743,-2.9415,-2.8391,-2.7204,-2.5819,-2.5783,-2.5722,-2.5722,-2.6495,-2.7218,-2.7717,-2.6473,-2.6802,-2.8032,-2.659,-2.674,-2.7791,-2.732,-2.7116,-2.6996,-2.6065,-2.6127,-2.6551,-2.5777,-2.7028,-2.9025,-2.9691,-3.0004,-2.9946,-2.9204,-2.7584,-2.6298,-2.7434,-2.7323,-2.7044,-2.7761,-2.8804,-2.9954,-3.1469,-3.2147,-3.2555,-3.3222,-3.3008,-3.2891,-3.3659,-3.4991,-3.6361,-3.7578,-3.9304,-4.0545,-4.0623,-4.0187,-3.9998,-4.0463,-4.1118,-4.1058,-3.989,-3.9933,-3.9936,-3.9883,-3.9362,-3.8826,-3.8225,-3.9271,-3.9942,-3.9986,-3.9875,-3.9301,-3.8297,-3.6912,-3.6396,-3.6667,-3.6448,-3.6313,-3.6268,-3.4637,-3.4476,-3.5359,-3.4428,-3.4576,-3.5504,-3.5504,-3.5115,-3.4563,-3.4518,-3.3709,-3.2572,-3.2542,-3.2093,-3.1555,0.0,0.0,0.0,0.0,0.0,0.0,0.0,0.0,0.0,0.0,0.0,0.0,0.0,0.0,0.0,0.0,0.0,0.0,-3.8277,-3.7504,-3.7048,-3.7048,-3.679,-3.6669,-3.6669,-3.5609,-3.4604,-3.3719,-3.2772,-3.1574,-3.0195,-3.0499,-3.0286,-2.9706,-2.9116,-3.0006,-3.1748,-2.8373,-2.8703,-3.1241,-2.8593,-2.844,-2.9706,-2.895,-2.8528,-2.8202,-2.7006,-2.6303,-2.6084,-2.6775,-2.8632,-3.0674,-3.0839,-3.1263,-3.1694,-3.1467,-3.1614,-3.1518,-2.9947,-2.9911,-2.9854,-2.8193,-2.8046,-2.876,-3.0517,-3.1028,-3.1377,-3.2295,-3.1894,-3.1553,-3.2062,-3.3176,-3.5066,-3.837,-3.9874,-4.114,-4.2718,-4.2133,-4.1279,-4.0588,-4.0689,-4.0875,-4.1071,-4.1143,-4.0835,-3.9949,-3.8945,-3.8661,-3.9417,-3.9724,-4.0275,-4.1127,-4.0161,-3.9927,-4.0543,-3.8063,-3.6221,-3.4999,-3.4536,-3.4073,-3.3585,-3.3136,-3.3498,-3.4361,-3.4095,-3.4576,-3.5504,-3.5504,-3.54,-3.519,-3.4713,-3.4294,-3.3858,-3.2871,-3.2378,-3.2168,0.0,0.0,0.0,0.0,0.0,0.0,0.0,0.0,0.0,0.0,0.0,0.0,0.0,0.0,0.0,0.0,0.0,0.0,0.0,-3.9049,-3.8805,-3.8805,-3.8805,-3.8805,-3.8805,-3.7951,-3.7286,-3.6875,-3.5599,-3.4587,-3.3804,-3.3509,-3.3114,-3.2657,-3.1947,-3.2625,-3.399,-3.1078,-3.1359,0.0,0.0,-3.0217,-3.0993,-3.004,-2.9439,-2.8892,-2.7651,-2.6916,-2.6682,-2.7401,-2.9095,-3.1085,-3.1667,-3.2073,-3.2415,-3.3012,-3.3582,-3.3766,-3.2735,-3.2938,-3.295,-3.0853,-3.0636,-3.0918,-3.0761,-3.1053,-3.1227,-3.1092,-3.0644,-3.0372,-3.0413,-3.1768,-3.3873,-3.685,-3.8536,-4.0266,-4.24,-4.1769,-4.094,-4.0563,-4.0086,-3.9955,-4.0358,-3.9954,-3.9856,-4.0226,-3.9408,-3.8956,-3.9121,-3.8895,-3.9255,-4.0407,-3.874,-3.7684,-3.7366,-3.6344,-3.4999,-3.3328,-3.3212,-3.296,-3.2593,-3.2177,-3.25,-3.3345,-3.2961,-3.3567,-3.4839,-3.4839,-3.51,-3.5474,-3.5085,-3.4562,-3.4024,-3.3544,-3.2826,-3.2049,0.0,0.0,0.0,0.0,0.0,0.0,0.0,0.0,0.0,0.0,0.0,0.0,0.0,0.0,0.0,0.0,0.0,0.0,0.0,0.0,-4.0096,-4.0096,-4.0096,-4.0096,-4.0096,-3.9411,-3.9059,-3.9059,-3.7601,-3.685,-3.6716,-3.5672,-3.5073,-3.4859,-3.4667,-3.4864,-3.5221,-3.3897,-3.4082,-3.5036,-3.2851,-3.2101,-3.2196,0.0,0.0,-2.9749,-2.8405,-2.7834,-2.7769,-2.7937,-2.9126,-3.0776,-3.1965,-3.243,-3.276,-3.409,-3.4488,-3.4645,-3.538,-3.5867,-3.5748,-3.4275,-3.4508,-3.431,-3.1608,-3.1574,-3.1643,-2.9792,-2.946,-2.9287,-2.8906,-3.0559,-3.259,-3.4672,-3.6592,-3.861,-4.116,-4.0538,-3.9986,-4.0463,-3.9609,-3.9007,-3.8932,-3.799,-3.82,-4.0097,-3.9927,-3.9475,-3.8823,-3.8198,-3.8198,-3.8849,-3.7038,-3.4884,-3.2465,-3.3604,-3.3398,-3.1821,-3.2112,-3.2213,-3.2213,-3.1402,-3.1536,-3.2393,-3.1536,-3.2177,-3.3808,-3.3959,-3.4509,-3.5311,-3.5439,-3.4801,-3.3829,-3.4339,-3.3395,-3.1959,0.0,0.0,0.0,0.0,0.0,0.0,0.0,0.0,0.0,0.0,-3.8386,-3.8962,0.0,0.0,0.0,0.0,0.0,0.0,0.0,0.0,0.0,-4.0096,-4.0096,-4.0096,-4.0096,-3.9952,-3.9901,-3.9901,-3.9603,-3.9133,-3.846,-3.8262,-3.7458,-3.6258,-3.6237,-3.6222,-3.6183,-3.5046,-3.5066,-3.5731,-3.4424,-3.4267,-3.4757,0.0,0.0,0.0,-3.0374,-2.8946,-2.8297,-2.9312,-3.0177,-3.0851,-3.1137,-3.2215,-3.3749,-3.5178,-3.6234,-3.6909,-3.7086,-3.715,-3.6885,-3.5412,-3.5157,-3.4624,-3.2175,-3.175,-3.1234,-2.8982,-2.8516,-2.8486,-2.8418,-2.9016,-3.099,-3.549,-3.6043,-3.7504,-4.2065,-4.1354,-4.0413,-4.0513,-3.9948,-3.9371,-3.8957,-3.8743,-3.8376,-3.7836,-3.8569,-4.0068,-4.2293,-4.1403,-4.0069,-3.8325,-3.8227,-3.6716,-3.3537,-3.333,-3.2424,-3.082,-3.0445,-3.0292,-3.0292,-3.0113,-3.0558,-3.1426,-3.1278,-3.1815,-3.289,-3.3671,-3.4095,-3.4361,-3.518,-3.537,-3.51,-3.4668,-3.4294,-3.3934,0.0,0.0,0.0,0.0,0.0,0.0,0.0,-3.6013,-3.6388,-3.7372,-3.8232,-3.894,-3.9363,-3.9452,-3.9636,0.0,0.0,0.0,0.0,0.0,0.0,0.0,0.0,0.0,-4.0096,-4.0096,-4.0096,-4.0096,0.0,-3.9901,-3.9516,-3.8707,-3.7933,-3.7189,-3.6384,-3.6012,-3.5902,-3.486,-3.4827,-3.5432,-3.5301,-3.5279,-3.5421,0.0,0.0,0.0,-3.2698,-3.1429,-3.0421,-3.1065,-3.1679,-3.211,-3.1444,-3.2196,-3.3731,-3.5432,-3.6651,-3.769,-3.8465,-3.8831,-3.8647,-3.6881,-3.663,-3.5865,-3.1987,-3.1274,-3.0904,-2.9044,-2.8858,-2.9218,-2.9858,-3.0475,-3.2018,-3.5281,-3.6182,-3.7552,-4.0835,-4.084,-4.0413,-4.0124,-3.9333,-3.8705,-3.8442,-3.7951,-3.7615,-3.768,-3.8174,-3.8975,-4.0097,-3.9631,-3.8379,-3.64,-3.7059,-3.6013,-3.2993,-3.2987,-3.2202,-3.0608,-3.0055,-2.9792,-2.9792,-2.9792,-3.0037,-3.0482,-3.0482,-3.1007,-3.1924,-3.2357,-3.3136,-3.4061,-3.4543,-3.4845,-3.4966,-3.4996,-3.4562,-3.3963,0.0,0.0,0.0,0.0,0.0,0.0,0.0,-3.6492,-3.6761,-3.7524,-3.8041,-3.873,-3.9725,-3.9399,-3.9305,0.0,0.0,0.0,0.0,0.0,0.0,0.0,0.0,0.0,-4.0096,0.0,0.0,-4.035,-4.018,0.0,0.0,0.0,0.0,0.0,-3.6337,-3.5636,-3.5424,-3.4428,-3.4439,0.0,0.0,-3.5736,-3.599,0.0,0.0,0.0,0.0,-3.3901,-3.2768,-3.2952,-3.3095,-3.3038,-3.2203,-3.2478,-3.3459,-3.5447,-3.657,-3.759,-3.9367,-4.0275,-4.0299,-3.8691,-3.8532,-3.7489,-3.2624,-3.1772,-3.1527,-2.9764,-2.9571,-3.0091,-3.1257,-3.1739,-3.2605,-3.471,-3.5856,-3.724,-3.9228,-3.9885,-4.0049,-3.9735,-3.8806,-3.814,-3.8015,-3.7111,-3.6832,-3.7508,-3.7306,-3.734,-3.7647,-3.7593,-3.6728,-3.4944,-3.5534,-3.47,-3.2215,-3.2492,-3.1978,-3.0608,-3.0055,-2.9792,-2.9792,-2.9792,-2.9792,-2.9792,-2.9792,-3.0203,-3.0932,-3.1106,-3.2069,-3.3449,-3.3842,-3.4141,-3.4471,-3.4973,-3.4498,-3.3636,0.0,0.0,0.0,0.0,0.0,0.0,0.0,-3.6492,-3.6926,-3.8138,-3.7848,-3.8061,-3.9468,-3.9744,-3.9589,0.0,0.0,0.0,0.0,0.0,0.0,0.0,0.0,0.0,0.0,0.0,0.0,-4.1102,-4.0434,0.0,0.0,0.0,0.0,0.0,0.0,-3.6149,-3.5424,-3.4428,0.0,0.0,0.0,0.0,0.0,0.0,0.0,0.0,0.0,-3.5238,-3.4317,-3.5115,-3.4069,-3.2523,-3.3169,-3.3195,-3.3377,-3.5722,-3.6337,-3.6851,-3.966,-4.0852,-4.12,-4.0976,-4.0614,-3.9365,-3.5764,-3.4999,-3.4176,-3.1334,-3.0158,-3.0091,-3.1257,-3.0229,-3.0333,-3.3887,-3.422,-3.5174,-3.8504,-3.9045,-3.9195,-3.9634,-3.9157,-3.858,-3.8052,-3.7462,-3.6732,-3.5819,-3.4868,-3.5613,-3.8678,-3.871,-3.7686,-3.5568,-3.5107,-3.3975,-3.2215,-3.1786,-3.1244,-3.0608,-3.0055,-2.9792,-2.9792,-2.9792,-2.9792,-2.9792,-2.9792,-2.9869,-2.9998,-3.0833,-3.1278,-3.1646,-3.3345,-3.4018,-3.4057,-3.4114,-3.4057,-3.3854,0.0,0.0,0.0,0.0,0.0,0.0,-3.6505,-3.6492,-3.6956,-3.8227,-3.8167,-3.8232,-3.8819,-3.9368,-3.966,-3.9511,0.0,0.0,0.0,0.0,0.0,0.0,0.0,0.0,0.0,0.0,-4.1112,-4.181,-4.1554,0.0,0.0,0.0,0.0,0.0,0.0,-3.5782,-3.5392,-3.3822,0.0,0.0,0.0,0.0,0.0,0.0,0.0,0.0,0.0,0.0,-3.6487,-3.6841,-3.6182,-3.5167,-3.5185,-3.4681,-3.4357,-3.5671,-3.6268,-3.7067,-3.9773,-4.1153,-4.1743,-4.1363,-4.0874,-3.9598,-3.6189,-3.5132,-3.4351,-3.2487,-3.1871,-3.2089,-3.3613,-3.2782,-3.2367,-3.3851,-3.4477,-3.5157,-3.62,-3.7224,-3.8065,-3.8617,-3.7902,-3.7525,-3.7965,-3.7211,-3.637,-3.5558,-3.5417,-3.5522,-3.5918,-3.6181,-3.5927,-3.509,-3.4837,-3.4074,-3.2729,-3.2164,-3.1612,-3.1072,-3.0545,-3.0118,-2.9792,-2.9792,-2.9792,-2.9792,-2.9792,-2.9792,-2.983,-3.0216,-3.0696,-3.1278,-3.2033,-3.2664,-3.3171,-3.3171,-3.3171,-3.3101,0.0,0.0,0.0,0.0,0.0,-3.6863,-3.6538,-3.6492,-3.6956,-3.8227,-3.8392,-3.8542,-3.8945,-3.9352,-3.9847,-4.0437,-4.0403,0.0,0.0,0.0,0.0,0.0,0.0,0.0,0.0,0.0,-4.1955,-4.2864,-4.2671,-4.268,0.0,0.0,-3.8773,-3.8051,0.0,0.0,0.0,0.0,0.0,0.0,0.0,0.0,0.0,0.0,0.0,0.0,0.0,0.0,0.0,0.0,0.0,-3.751,-3.7102,-3.6194,-3.5404,-3.6023,-3.6416,-3.7244,-3.982,-4.1317,-4.2162,-4.1882,-4.1166,-3.9802,-3.7066,-3.583,-3.4969,-3.3879,-3.3502,-3.3728,-3.5048,-3.4334,-3.3566,-3.3665,-3.4449,-3.4931,-3.4705,-3.5868,-3.6897,-3.745,-3.6697,-3.6483,-3.7425,-3.6521,-3.578,-3.552,-3.5404,-3.492,-3.3954,-3.4105,-3.4233,-3.4233,-3.4233,-3.3869,-3.3124,-3.2503,-3.1938,-3.1386,-3.0871,-3.0331,-2.9792,-2.9792,-2.9792,-2.9792,-2.9792,-2.9792,-2.9792,-2.9792,-3.0177,-3.0796,-3.1068,-3.1609,-3.2177,-3.2177,-3.2177,-3.2141,0.0,0.0,0.0,0.0,0.0,0.0,-3.6622,-3.6492,-3.6956,-3.8227,-3.8392,-3.8901,-4.0232,-3.9932,-4.0228,-4.174,-4.1327,0.0,0.0,0.0,0.0,0.0,0.0,0.0,0.0,0.0,-4.2961,-4.4383,-4.3655,-4.3672,-4.4324,-4.1218,-3.9474,-3.8798,0.0,0.0,0.0,0.0,0.0,0.0,0.0,0.0,0.0,0.0,0.0,0.0,0.0,0.0,0.0,0.0,0.0,0.0,0.0,-3.7568,-3.6304,-3.6923,-3.6889,-3.7244,-3.982,-4.1317,-4.2338,-4.2823,-4.1731,-4.0224,-3.9107,-3.7977,-3.686,-3.5721,-3.4893,-3.4451,-3.4653,-3.3616,-3.2781,-3.3083,-3.3558,-3.411,-3.465,-3.5157,-3.5768,-3.6355,-3.5893,-3.5768,-3.6367,-3.5391,-3.4919,-3.5458,-3.4022,-3.3375,-3.3872,-3.3413,-3.3124,-3.3124,-3.3124,-3.3124,-3.3124,-3.2503,-3.1938,-3.1386,-3.0871,-3.0331,-2.9792,-2.9792,-2.9792,-2.9792,-2.9792,-2.9792,-2.9792,-2.9792,-2.9792,-2.9895,-3.0833,-3.1217,-3.1217,-3.1217,-3.1217,-3.1068,0.0,0.0,0.0,0.0,0.0,0.0,0.0,-3.5818,-3.6133,-3.6971,-3.7464,-3.8048,-3.8931,-3.9299,-4.0085,-4.1632,-4.13,0.0,0.0,0.0,0.0,0.0,0.0,0.0,0.0,-4.2794,-4.3709,-4.5006,-4.4878,-4.4878,-4.4964,-4.3039,-4.1231,-3.9518,-3.7795,-3.6934,0.0,0.0,0.0,0.0,0.0,0.0,-3.6152,0.0,0.0,0.0,0.0,0.0,0.0,0.0,0.0,0.0,0.0,0.0,0.0,-3.8499,-3.822,-3.7913,-3.9455,-4.0185,-4.0513,-4.0689,-3.976,-3.8617,-3.7877,-3.7197,-3.642,-3.5646,-3.4997,-3.4734,-3.5186,-3.3978,-3.3256,-3.4047,-3.4035,-3.396,-3.4135,-3.4919,-3.5708,-3.6332,-3.6885,-3.6998,-3.6468,-3.6044,-3.5604,-3.4981,-3.45,-3.3947,-3.337,-3.3169,-3.3124,-3.3124,-3.3124,-3.288,-3.2491,-3.2303,-3.1763,-3.0859,-3.0696,-3.0331,-2.9792,-2.9792,-2.9792,-2.9792,-2.9792,-2.9792,-2.9792,-2.9792,-2.9792,-2.983,-3.0139,-3.0241,-3.0241,-3.0241,-3.0241,-3.0216,0.0,0.0,0.0,0.0,0.0,0.0,0.0,-3.5504,-3.5744,-3.6402,-3.703,-3.7764,-3.8676,-3.9155,-4.0115,-4.1913,-4.1576,0.0,0.0,0.0,0.0,0.0,0.0,0.0,-4.3149,-4.3893,-4.4913,-4.6212,-4.6572,-4.6685,-4.6516,-4.4823,-4.2818,-4.058,-3.8858,-3.7835,0.0,0.0,0.0,0.0,0.0,0.0,-3.555,0.0,0.0,0.0,0.0,0.0,0.0,0.0,0.0,0.0,0.0,0.0,0.0,0.0,-3.8164,-3.7939,-3.9291,-3.9526,-3.9433,-3.9647,-3.8843,-3.7914,-3.7575,-3.6958,-3.6304,-3.5931,-3.537,-3.5031,-3.5157,-3.3841,-3.285,-3.3305,-3.3281,-3.3268,-3.3478,-3.4645,-3.5708,-3.6332,-3.6973,-3.7111,-3.6468,-3.6169,-3.5768,-3.5044,-3.465,-3.411,-3.342,-3.3194,-3.3124,-3.3124,-3.3124,-3.2905,-3.2541,-3.2328,-3.1775,-3.0909,-3.0708,-3.0331,-2.9792,-2.9792,-2.9792,-2.9792,-2.9792,-2.9792,0.0,-2.9792,-2.9792,-2.9792,-2.9792,-2.9792,-2.9792,-2.9792,-2.9792,-2.9792,0.0,0.0,0.0,0.0,0.0,0.0,0.0,-3.5504,-3.5729,-3.6342,-3.7,-3.7883,-3.914,-3.9328,-4.0281,-4.2443,0.0,0.0,0.0,0.0,0.0,0.0,0.0,0.0,-4.4553,-4.5319,-4.6364,-4.7698,-4.8431,-4.8704,-4.8475,-4.6498,-4.4316,-4.2001,-3.9818,-3.8279,0.0,0.0,0.0,0.0,0.0,0.0,0.0,0.0,0.0,0.0,0.0,0.0,0.0,0.0,0.0,0.0,0.0,0.0,0.0,0.0,0.0,0.0,0.0,-3.92,-3.8806,-3.9283,-3.8605,-3.7814,-3.7776,-3.6973,0.0,-3.6292,-3.5805,-3.5219,-3.4705,-3.3277,-3.1965,-3.1354,-3.172,-3.2232,-3.2873,-3.4551,-3.5846,-3.6405,-3.6505,-3.648,-3.6367,-3.5881,-3.552,-3.5445,-3.4537,-3.3922,-3.3847,-3.3357,-3.3056,-3.3061,-3.3061,-3.3006,-3.2998,-3.2416,-3.1851,-3.1273,-3.0783,-3.0281,-2.9792,-2.9792,-2.9792,-2.9792,-2.9792,-2.9792,-2.9792,-2.9792,-2.9792,-2.9792,-2.9792,-2.9792,-2.9792,-2.9792,-2.9792,-2.9792,0.0,0.0,0.0,0.0,0.0,0.0,0.0,0.0,0.0,0.0,-3.6716,-3.7524,-3.7853,-3.8811,-4.0021,0.0,0.0,0.0,0.0,0.0,0.0,0.0,0.0,0.0,-4.4417,-4.5278,-4.6362,-4.77,-4.8446,-4.8504,-4.7901,-4.7399,-4.5959,-4.3701,-4.1449,-3.8711,0.0,0.0,0.0,0.0,0.0,0.0,0.0,0.0,0.0,0.0,-3.4023,-3.4075,0.0,0.0,0.0,0.0,0.0,0.0,0.0,0.0,-3.7196,-3.6687,-3.7632,0.0,-3.6933,-3.6596,-3.6273,-3.5972,0.0,-3.529,-3.5115,-3.5115,-3.4675,-3.4248,-3.411,-3.3414,-3.2634,-3.1986,-3.1603,-3.1877,-3.3315,-3.5743,-3.7312,-3.7023,-3.7362,-3.7123,-3.5821,-3.5994,-3.5818,-3.4931,-3.4675,-3.4161,-3.3319,-3.3156,-3.2867,-3.2428,-3.2416,-3.2215,-3.1788,-3.165,-3.111,-3.0168,-3.0043,-2.9917,-2.9792,-2.9792,-2.9792,-2.9792,-2.9792,-2.9792,-2.9792,-2.9792,-2.9792,-2.9792,-2.9792,-2.9792,-2.9792,-2.9792,-2.9792,-2.9792,0.0,0.0,0.0,0.0,0.0,0.0,0.0,0.0,0.0,0.0,0.0,0.0,0.0,0.0,0.0,0.0,0.0,0.0,0.0,0.0,0.0,0.0,0.0,-4.4037,-4.4838,-4.6066,-4.7387,-4.875,-4.9474,-4.945,-4.865,-4.8384,-4.6856,-4.421,-4.19,-3.9221,0.0,0.0,0.0,0.0,-3.3599,0.0,0.0,0.0,0.0,0.0,-3.3124,-3.3124,0.0,-3.3124,-3.3471,-3.3953,0.0,0.0,0.0,0.0,-3.5878,-3.5664,-3.6018,-3.6271,-3.6279,-3.5633,-3.5495,-3.5269,-3.4438,-3.4041,-3.372,-3.313,-3.2572,-3.2201,-3.2201,-3.1453,-3.0686,-3.0134,-3.0478,-3.1629,-3.3953,-3.5514,-3.6603,-3.7138,-3.7224,-3.6998,-3.6358,-3.6332,-3.6153,-3.5516,-3.5014,-3.4462,-3.3872,-3.3093,-3.2541,-3.2227,-3.1964,-3.1687,-3.1386,-3.1386,-3.0984,-3.0168,-3.0168,-3.0043,-2.9792,-2.9792,-2.9792,-2.9792,-2.9792,-2.9792,-2.9792,-2.9792,-2.9792,-2.9792,-2.9792,-2.9792,-2.9792,-2.9792,-2.9792,-2.9754,0.0,0.0,0.0,0.0,0.0,0.0,0.0,0.0,0.0,0.0,0.0,0.0,0.0,0.0,0.0,0.0,0.0,0.0,0.0,0.0,0.0,0.0,-4.3481,-4.4359,-4.5356,-4.6903,-4.8401,-4.9846,-5.069,-5.0616,-4.9657,-4.9137,-4.7169,-4.3979,-4.1965,-3.994,0.0,-3.6707,-3.6171,-3.5995,-3.3934,0.0,0.0,0.0,0.0,0.0,0.0,0.0,0.0,-3.3124,-3.3124,-3.3124,-3.3124,0.0,0.0,0.0,0.0,0.0,-3.4417,-3.5226,-3.5934,-3.5374,-3.5169,-3.4799,-3.361,-3.2841,-3.2043,-3.0984,-3.0409,-3.0092,-3.0171,-2.9182,-2.8264,-2.783,-2.9268,-3.1402,-3.415,-3.4722,-3.5355,-3.6687,-3.6664,-3.6656,-3.6897,-3.6631,-3.6367,-3.6292,-3.529,-3.4643,-3.46,-3.3081,-3.2215,-3.2215,-3.1599,-3.1273,-3.1273,-3.1273,-3.1009,-3.0495,-3.0495,-3.0244,-2.9792,-2.9792,-2.9792,-2.9792,-2.9792,-2.9792,-2.9792,-2.9792,-2.9792,-2.9792,-2.9792,-2.9792,-2.9792,-2.9792,-2.9792,-2.9704,0.0,0.0,0.0,0.0,0.0,0.0,0.0,0.0,0.0,0.0,0.0,0.0,0.0,0.0,0.0,0.0,0.0,0.0,0.0,0.0,0.0,-4.3211,-4.3021,-4.3639,-4.5196,-4.6192,-4.7519,-4.9146,-5.0465,-5.0422,-4.9132,-4.8969,-4.6968,-4.3439,-4.2944,-4.1299,-3.8801,-3.6975,-3.5981,-3.5486,-3.3781,0.0,0.0,0.0,0.0,0.0,0.0,0.0,0.0,-3.3124,-3.3124,-3.3124,-3.3124,0.0,0.0,0.0,0.0,0.0,-3.3206,-3.3756,-3.4475,-3.4197,-3.3694,-3.2975,-3.1839,-3.0741,-2.9861,-2.9677,-2.9575,-2.9642,-2.9952,-2.9555,-2.9066,-2.8656,-2.995,-3.1264,-3.2159,-3.4621,-3.614,-3.5442,-3.6394,-3.6722,-3.5834,-3.6144,-3.6169,-3.5658,-3.5031,-3.4512,-3.4048,-3.2867,-3.2215,-3.2215,-3.1248,-3.0733,-3.0733,-3.0733,-3.0457,-2.9917,-2.9917,-2.988,-2.9792,-2.9792,-2.9792,-2.9792,-2.9792,-2.9792,-2.9792,-2.9792,-2.9792,-2.9792,-2.9792,-2.9792,-2.9792,-2.9792,-2.9792,-2.9704,0.0,0.0,0.0,0.0,0.0,0.0,0.0,0.0,0.0,0.0,0.0,0.0,0.0,0.0,0.0,0.0,0.0,0.0,0.0,0.0,-4.297,-4.329,-4.3104,-4.3635,-4.4944,-4.6379,-4.7648,-4.8798,-4.9952,-4.9976,-4.8912,-4.7738,-4.6215,-4.4474,-4.4018,-4.26,-4.0477,-3.8988,-3.7585,-3.6208,0.0,0.0,0.0,0.0,0.0,0.0,0.0,0.0,0.0,0.0,-3.3124,-3.3124,-3.3124,0.0,0.0,0.0,0.0,0.0,-3.1967,-3.1984,-3.2073,-3.2159,-3.2519,-3.2465,-3.1046,-3.0061,-2.9166,-2.8013,-2.7765,-2.79,-2.8299,-2.8424,-2.8712,-2.9429,-2.9571,-3.0054,-3.1371,-3.2488,-3.348,-3.4469,-3.5173,-3.5683,-3.5937,-3.6267,-3.6132,-3.5545,-3.4994,-3.4487,-3.3935,-3.283,-3.2215,-3.2215,-3.1173,-3.062,-3.062,-3.0319,-3.0043,-2.9792,-3.0093,-3.008,-2.9792,-2.9792,-2.9792,-2.9792,-2.9792,-2.9792,-2.9792,-2.9792,-2.9792,-2.9792,-2.9792,-2.9792,-2.9754,-2.944,-2.9327,-2.9239,0.0,0.0,0.0,0.0,0.0,0.0,0.0,0.0,0.0,0.0,0.0,0.0,0.0,0.0,0.0,0.0,0.0,0.0,0.0,-4.2306,-4.2656,-4.326,-4.329,-4.3771,-4.4774,-4.6205,-4.7489,-4.8623,-4.933,-4.9401,-4.8855,-4.6995,-4.5818,-4.5214,-4.4616,-4.3412,-4.176,-4.0466,-3.9094,-3.7562,0.0,0.0,0.0,0.0,0.0,0.0,0.0,0.0,0.0,0.0,0.0,0.0,0.0,0.0,0.0,-3.2742,-3.1965,-3.1113,-3.0636,-3.0201,-2.9903,-2.9959,-3.088,-3.1513,-3.0473,-2.958,-2.8503,-2.7117,-2.6758,-2.6787,-2.7109,-2.7519,-2.8242,-2.9541,-2.9101,-2.9258,-3.1023,-3.0698,-3.112,-3.3337,-3.3951,-3.4715,-3.581,-3.6216,-3.6132,-3.5545,-3.4994,-3.4487,-3.3935,-3.283,-3.2277,-3.2416,-3.1248,-3.067,-3.0796,-3.0131,-2.9792,-2.9792,-3.0218,-3.0206,-2.9792,-2.9792,-2.9792,-2.9792,-2.9792,-2.9792,-2.9792,-2.9792,-2.9792,-2.9792,-2.9792,-2.9792,-2.9741,-2.9289,-2.8925,-2.865,0.0,0.0,0.0,0.0,0.0,0.0,0.0,0.0,0.0,0.0,0.0,0.0,0.0,0.0,0.0,0.0,0.0,0.0,0.0,-4.2051,-4.2656,-4.326,-4.329,-4.3771,-4.4774,-4.4909,-4.6203,-4.8695,-4.8692,-4.8758,-4.8889,-4.7908,-4.6417,-4.4459,-4.422,-4.3342,-4.1852,-3.9963,-3.9369,-3.9416,-3.6059,0.0,0.0,0.0,0.0,0.0,0.0,0.0,0.0,0.0,0.0,0.0,0.0,0.0,-3.2884,-3.1677,-3.1267,-3.0769,-2.8931,-2.8631,-2.8757,-2.8101,-2.8308,-2.8933,-2.9921,-2.8582,-2.7369,-2.8008,-2.7851,-2.764,-2.7669,-2.7959,-2.8291,-2.8408,-2.9023,-2.9841,-3.078,-3.0927,-3.1168,-3.1697,-3.3322,-3.4434,-3.4532,-3.5667,-3.6132,-3.5545,-3.4994,-3.4487,-3.3935,-3.283,-3.2466,-3.3006,-3.1449,-3.0846,-3.1336,-3.0306,-2.9792,-2.9792,-2.9829,-2.9829,-2.9792,-2.9792,-2.9792,-2.9792,-2.9792,-2.9792,-2.9792,-2.9792,-2.9792,-2.9792,-2.9792,-2.9792,-2.9779,-2.9741,-2.9063,-2.8235,0.0,0.0,0.0,0.0,0.0,0.0,0.0,0.0,0.0,0.0,0.0,0.0,0.0,0.0,0.0,0.0,0.0,0.0,0.0,-4.1422,-4.2081,-4.2701,-4.312,-4.3292,-4.332,-4.431,-4.5294,-4.6283,-4.7422,-4.8322,-4.8916,-4.7139,-4.6104,-4.571,-4.4172,-4.3166,-4.2621,-4.1881,-4.0735,-3.9294,-3.7976,-3.596,0.0,0.0,0.0,0.0,0.0,0.0,0.0,0.0,-2.9529,-3.0079,-2.9993,-3.0361,-3.0604,-2.9565,-2.8936,-2.8291,-2.7314,-2.6958,-2.6893,-2.6909,-2.7012,-2.7563,-2.9036,-2.8739,-2.8213,-2.8281,-2.8369,-2.8369,-2.8105,-2.8623,-2.8994,-2.873,-2.918,-2.9744,-3.0029,-3.0121,-3.0401,-3.1133,-3.2572,-3.3762,-3.436,-3.5619,-3.5994,-3.5056,-3.4793,-3.4336,-3.3432,-3.298,-3.2855,-3.3111,-3.1788,-3.1185,-3.1386,-3.0331,-2.9792,-2.9792,-2.9792,-2.9792,-2.9792,-2.9792,-2.9792,-2.9792,-2.9792,-2.9792,-2.9792,-2.9792,-2.9792,-2.9792,-2.9792,-2.9792,-2.9741,-2.939,-2.9214,-2.9076,0.0,0.0,0.0,0.0,0.0,0.0,0.0,0.0,0.0,0.0,0.0,0.0,0.0,0.0,0.0,0.0,0.0,0.0,-4.0337,-4.0816,-4.1369,-4.2066,-4.2476,-4.2506,-4.2096,-4.3389,-4.4295,-4.4834,-4.6625,-4.7853,-4.8528,-4.6307,-4.5602,-4.6078,-4.3919,-4.2845,-4.2657,-4.2732,-4.1677,-3.9956,-3.9344,-3.7247,0.0,0.0,0.0,0.0,0.0,0.0,0.0,0.0,-2.7754,-2.8285,-2.8137,-2.8487,-2.8813,-2.7822,-2.723,-2.6777,-2.6088,-2.5799,-2.5791,-2.6279,-2.6494,-2.7002,-2.8564,-2.8818,-2.8799,-2.9062,-2.8906,-2.8633,-2.834,-2.8662,-2.8916,-2.875,-2.9082,-2.9414,-2.9551,-2.9336,-2.9476,-3.025,-3.14,-3.257,-3.3648,-3.4812,-3.5273,-3.4743,-3.4562,-3.406,-3.3174,-3.3124,-3.3124,-3.3124,-3.1976,-3.1386,-3.1386,-3.0331,-2.9792,-2.9792,-2.9792,-2.9792,-2.9792,-2.9792,-2.9792,-2.9792,-2.9792,-2.9792,-2.9792,-2.9792,-2.9792,-2.9792,-2.9792,-2.9792,-2.9741,-2.9352,-2.934,-2.9428,0.0,0.0,0.0,0.0,0.0,0.0,0.0,0.0,0.0,0.0,0.0,0.0,0.0,0.0,0.0,0.0,0.0,0.0,-4.0292,-4.0382,-4.0681,-4.1324,-4.1422,-4.1384,-4.1422,-4.2066,-4.3221,-4.4893,-4.6496,-4.7373,-4.7556,-4.567,-4.4945,-4.5085,-4.3423,-4.2308,-4.1682,-4.191,-4.1997,-4.182,-3.9886,-3.8706,-3.7671,0.0,0.0,0.0,0.0,0.0,0.0,0.0,-2.6335,-2.7343,-2.7912,-2.807,-2.782,-2.6608,-2.6553,-2.6609,-2.5417,-2.5381,-2.5791,-2.6279,-2.6699,-2.7353,-2.8633,-2.8603,-2.8789,-3.0527,-2.9512,-2.8301,-2.8301,-2.7969,-2.7875,-2.8223,-2.8643,-2.9062,-2.9502,-2.8828,-2.8447,-2.8867,-2.9725,-3.0824,-3.218,-3.3038,-3.3847,-3.4627,-3.4211,-3.3658,-3.3106,-3.3124,-3.3124,-3.3124,-3.1989,-3.1399,-3.1386,-3.0331,-2.9804,-2.9792,-2.9792,-2.9792,-2.9792,-2.9792,-2.9792,-2.9792,-2.9792,-2.9792,-2.9792,-2.9792,-2.9792,-2.9792,-2.9792,-2.9792,-2.9792,-2.9792,-2.9428,-2.8976,0.0,0.0,0.0,0.0,0.0,0.0,0.0,0.0,0.0,0.0,0.0,0.0,0.0,0.0,0.0,0.0,0.0,0.0,-3.899,-3.9873,-4.0277,-4.0008,-4.1324,-4.1886,-4.1384,-4.2066,-4.3198,-4.4834,-4.5319,-4.5911,-4.6592,-4.4876,-4.3915,-4.3447,-4.179,-4.1061,-4.0985,-4.1073,-4.108,-4.1046,-4.0458,-3.9273,-3.7665,0.0,0.0,0.0,0.0,0.0,0.0,0.0,0.0,0.0,-2.4638,-2.5231,-2.5722,-2.443,-2.4556,-2.4924,-2.3967,-2.4473,-2.5371,-2.582,-2.6709,-2.7803,-2.9082,-2.9043,-2.9053,-3.0176,-2.9756,-2.9189,-2.9189,-2.9147,-2.8848,-2.8369,-2.8643,-2.8867,-2.8691,-2.8457,-2.834,-2.8467,-2.9532,-3.0824,-3.218,-3.3424,-3.4317,-3.4652,-3.4575,-3.406,-3.3174,-3.3124,-3.3124,-3.3124,-3.2353,-3.1788,-3.1386,-3.0708,-3.0181,-2.9792,-2.9792,-2.9792,-2.9792,-2.9792,-2.9792,-2.9792,-2.9792,-2.9792,-2.9792,-2.9792,-2.9792,-2.9792,-2.9792,-2.9792,-2.9792,-2.9792,-2.9679,-2.9566,0.0,0.0,0.0,0.0,0.0,0.0,0.0,0.0,0.0,0.0,0.0,0.0,0.0,0.0,0.0,0.0,0.0,0.0,0.0,-3.9155,-3.9544,-3.9424,-4.0816,-4.1677,-4.1811,-4.2186,-4.2967,-4.422,-4.3945,-4.4341,-4.5227,-4.3871,-4.3227,-4.3159,-4.1797,-4.1105,-4.1,-4.1059,-4.0938,-4.069,-4.069,-3.9852,-3.8373,0.0,0.0,0.0,0.0,0.0,0.0,0.0,0.0,0.0,-2.3344,-2.3627,-2.4209,-2.3725,-2.4014,-2.4414,-2.4424,-2.5,-2.5781,-2.6562,-2.7461,-2.8457,-2.956,-2.9756,-2.9844,-3.0361,-2.999,-2.9675,-2.9785,-2.9404,-2.8945,-2.8594,-2.8613,-2.8584,-2.833,-2.8291,-2.8291,-2.8291,-2.9006,-3.0214,-3.2129,-3.2689,-3.3434,-3.4627,-3.4324,-3.3771,-3.3106,-3.3124,-3.3124,-3.3124,-3.2516,-3.1951,-3.1399,-3.0871,-3.0331,-2.9792,-2.9792,-2.9792,-2.9792,-2.9792,-2.9792,-2.9792,-2.9792,-2.9792,-2.9792,-2.9792,-2.9792,-2.9792,-2.9792,-2.9792,-2.9792,-2.9792,-2.9792,-2.9792,0.0,0.0,0.0,0.0,0.0,0.0,0.0,0.0,0.0,0.0,0.0,0.0,0.0,0.0,0.0,0.0,0.0,0.0,0.0,0.0,-3.8691,-3.9394,-4.0172,-4.1122,-4.2285,-4.2447,-4.2701,-4.32,-4.2656,-4.2849,-4.3648,-4.2766,-4.2758,-4.3555,-4.2637,-4.1886,-4.1325,-4.1428,-4.114,-4.0588,-4.0588,-4.0186,-3.9323,-3.7089,0.0,0.0,0.0,0.0,0.0,0.0,0.0,0.0,-2.3627,-2.3208,-2.3296,-2.4036,-2.4355,-2.4678,-2.5889,-2.6299,-2.6699,-2.7978,-2.8672,-2.9248,-3.0068,-3.0557,-3.083,-3.083,-3.0215,-2.9805,-3.0195,-2.9277,-2.8584,-2.8926,-2.8623,-2.834,-2.8301,-2.8291,-2.8291,-2.8291,-2.8291,-2.9355,-3.2028,-3.1381,-3.1875,-3.4487,-3.3746,-3.3174,-3.3124,-3.3074,-3.3006,-3.3006,-3.2441,-3.1876,-3.1323,-3.0846,-3.0331,-2.9792,-2.9792,-2.9792,-2.9792,-2.9792,-2.9792,-2.9792,-2.9792,-2.9792,-2.9792,-2.9792,-2.9792,-2.9792,-2.9792,-2.9792,-2.9792,-2.9792,-2.9792,-2.9779,0.0,0.0,0.0,0.0,0.0,0.0,0.0,0.0,0.0,0.0,0.0,0.0,0.0,0.0,0.0,0.0,0.0,0.0,0.0,0.0,-3.8691,-3.9394,-4.104,-4.1917,-4.1756,-4.2653,-4.294,-4.2605,-4.247,-4.2496,-4.2712,-4.1971,-4.1731,-4.1874,-4.1153,-4.0741,-4.0561,-4.0106,-3.9802,-3.9666,-3.9666,-3.9295,-3.8635,-3.8196,-3.6794,0.0,0.0,0.0,0.0,0.0,0.0,0.0,-2.4756,-2.4085,-2.3613,-2.3413,-2.3842,-2.4482,-2.4766,-2.5596,-2.6699,-2.7978,-2.9111,-3.0068,-3.0615,-3.0537,-3.0342,-3.0342,-3.0488,-3.0635,-3.0723,-3.0215,-2.9707,-2.9473,-2.9062,-2.8672,-2.834,-2.8291,-2.8291,-2.8291,-2.8291,-2.9355,-3.2028,-3.1694,-3.2256,-3.4512,-3.411,-3.3533,-3.3106,-3.2641,-3.2403,-3.2403,-3.1851,-3.1311,-3.0783,-3.067,-3.0331,-2.9792,-2.9792,-2.9792,-2.9792,-2.9792,-2.9792,-2.9792,-2.9792,-2.9792,-2.9792,-2.9792,-2.9792,-2.9792,-2.9792,-2.9792,-2.9792,-2.9792,-2.9792,-2.9729,0.0,0.0,0.0,0.0,0.0,0.0,0.0,0.0,0.0,0.0,0.0,0.0,0.0,0.0,0.0,0.0,0.0,0.0,0.0,0.0,-3.8383,-3.9434,-4.0808,-4.1294,-4.0817,-4.1351,-4.154,-4.1208,-4.0891,-4.0977,-4.1452,-4.1384,-4.1205,-4.092,-4.1205,-4.0995,-4.0382,-4.0038,-3.9709,-3.9388,-3.9388,-3.9005,-3.8387,-3.8107,-3.7295,-3.6174,-3.5564,0.0,0.0,0.0,0.0,0.0,0.0,0.0,-2.4314,-2.4472,-2.4461,-2.4404,-2.4571,-2.512,-2.5975,-2.7458,-2.8597,-2.9552,-3.0373,-3.0371,-3.0137,-2.9941,-3.043,-3.0762,-3.0332,-3.0059,-2.9756,-2.9326,-2.8896,-2.8545,-2.832,-2.8291,-2.8291,-2.8291,-2.8291,-2.9274,-3.1706,-3.1437,-3.2014,-3.4182,-3.3822,-3.3382,-3.3093,-3.2792,-3.2503,-3.2227,-3.1938,-3.1399,-3.062,-3.062,-3.0331,-2.9792,-2.9792,-2.9792,-2.9792,-2.9792,-2.9792,-2.9792,-2.9792,-2.9792,-2.9792,-2.9792,-2.9792,-2.9792,-2.9792,-2.9792,-2.9792,-2.9792,-2.9792,-2.9754,0.0,0.0,0.0,0.0,0.0,0.0,0.0,0.0,0.0,0.0,0.0,0.0,0.0,0.0,0.0,0.0,0.0,0.0,0.0,0.0,0.0,-3.9402,-4.0182,-4.0319,-3.9719,-3.9733,-3.9733,-3.9733,-3.8959,-3.9108,-4.0132,-4.0685,-4.0815,-4.0606,-4.1512,-4.1347,-4.0382,-4.0277,-3.9918,-3.9388,-3.9388,-3.8931,-3.8187,-3.7926,-3.7565,-3.7122,-3.6219,-3.5627,-3.4978,-3.3237,0.0,0.0,0.0,0.0,-2.5423,-2.5765,-2.5263,-2.4609,-2.4692,-2.5076,-2.5654,-2.673,-2.7889,-2.8895,-2.9623,-2.9966,-2.9971,-2.9541,-3.0107,-3.0439,-2.9707,-2.9512,-2.9336,-2.8975,-2.8564,-2.8291,-2.8291,-2.8291,-2.8291,-2.8291,-2.8291,-2.9088,-3.1014,-3.0911,-3.148,-3.3422,-3.3295,-3.3031,-3.293,-3.2842,-3.2528,-3.1951,-3.1838,-3.1373,-3.0482,-3.047,-3.0244,-2.9792,-2.9792,-2.9792,-2.9792,-2.9792,-2.9792,-2.9792,-2.9792,-2.9792,-2.9792,-2.9792,-2.9792,-2.9792,-2.9792,-2.9792,-2.9792,-2.9792,-2.9792,-2.9779,0.0,0.0,0.0,0.0,0.0,0.0,0.0,0.0,0.0,0.0,0.0,0.0,0.0,0.0,0.0,0.0,0.0,0.0,0.0,0.0,0.0,-3.8827,-3.9977,-4.0092,-3.907,-3.907,-3.907,-3.9028,-3.7938,-3.7924,-3.895,-3.8999,-3.9841,-4.1205,-4.0247,-4.0023,-4.0367,-3.9783,-3.9463,-3.9388,-3.9388,-3.8661,-3.7695,-3.8981,-3.7949,-3.5935,-3.7072,-3.6615,-3.5282,-3.4168,-3.2996,0.0,0.0,0.0,-2.7163,-2.5454,-2.5096,-2.5166,-2.4617,-2.6097,-2.7481,-2.6145,-2.7939,-2.9623,-2.8382,-2.8927,-2.9531,-2.9092,-2.9404,-2.9763,-2.959,-2.9258,-2.8984,-2.8926,-2.8564,-2.8291,-2.8291,-2.8291,-2.8291,-2.8291,-2.8291,-2.873,-2.984,-3.0384,-3.1149,-3.2261,-3.279,-3.2855,-3.2353,-3.1876,-3.1373,-3.0846,-3.0369,-3.0043,-2.9905,-2.9905,-2.9867,-2.9792,-2.9792,-2.9792,-2.9792,-2.9792,-2.9792,-2.9792,-2.9792,-2.9792,-2.9792,-2.9792,-2.9792,-2.9792,-2.9792,-2.9792,-2.9792,-2.9792,-2.9792,-2.9729,0.0,0.0,0.0,0.0,0.0,0.0,0.0,0.0,0.0,0.0,0.0,0.0,0.0,0.0,0.0,-3.7019,0.0,0.0,0.0,0.0,0.0,-3.8179,-3.9032,-3.8885,-3.7472,-3.7486,-3.7184,-3.6555,-3.6044,-3.6677,-3.8353,-3.798,-3.8891,-4.086,-3.9911,-3.9852,-4.0352,-3.9694,-3.9388,-3.9388,-3.9388,-3.8616,-3.7541,-3.8708,-3.8138,-3.689,-3.756,-3.7354,-3.6646,-3.5742,-3.4497,-3.3163,-3.2283,0.0,0.0,0.0,-2.6448,-2.5231,-2.4459,-2.479,-2.5518,-2.6333,-2.6902,-2.7249,-2.7497,-2.7134,-2.6616,-2.6167,-2.6894,-2.7878,-2.8739,-2.8887,-2.8838,-2.8603,-2.8418,-2.8291,-2.8291,-2.8291,-2.8291,-2.8291,-2.8291,-2.8535,-2.9119,-2.9444,-3.0168,-3.1504,-3.1588,-3.1773,-3.2185,-3.1687,-3.1148,-3.0633,-3.0382,-3.0105,-2.9792,-2.9792,-2.9792,-2.9792,-2.9792,-2.9792,-2.9792,-2.9792,-2.9792,-2.9792,-2.9792,-2.9792,-2.9792,-2.9792,-2.9792,-2.9792,-2.9792,-2.9792,-2.9792,-2.9792,-2.9792,-2.9754,0.0,0.0,0.0,0.0,0.0,0.0,0.0,0.0,0.0,0.0,0.0,0.0,0.0,0.0,0.0,0.0,-3.703,0.0,0.0,0.0,0.0,-3.8153,-3.8525,-3.8138,-3.6951,-3.6382,-3.5783,-3.5092,-3.4571,-3.5506,-3.7827,-3.7079,-3.8056,-4.0518,-4.0043,-4.014,-4.0606,-3.9948,-3.9664,-3.9634,-3.929,-3.8452,-3.7458,-3.81,-3.7888,-3.7265,-3.7677,-3.7661,-3.7397,-3.6783,-3.5742,-3.457,-3.4148,-3.2439,0.0,0.0,0.0,-2.5737,-2.4417,-2.4061,-2.4463,-2.5866,-2.5786,-2.5605,-2.6456,-2.5549,-2.4431,-2.4079,-2.4847,-2.5881,-2.7158,-2.8128,-2.8662,-2.834,-2.8291,-2.8291,-2.8291,-2.8291,-2.8291,-2.8291,-2.8291,-2.8308,-2.8348,-2.8645,-2.9359,-3.0656,-3.0516,-3.0876,-3.1918,-3.1486,-3.0947,-3.0419,-3.0407,-3.0206,-2.9792,-2.9792,-2.9792,-2.9792,-2.9792,-2.9792,-2.9792,-2.9792,-2.9792,-2.9792,-2.9792,-2.9792,-2.9792,-2.9792,-2.9792,-2.9792,-2.9792,-2.9792,-2.9792,-2.9792,-2.9792,-2.9792,0.0,0.0,0.0,0.0,0.0,0.0,0.0,0.0,0.0,0.0,0.0,0.0,-4.2268,-4.0706,-3.9158,-3.7762,-3.699,-3.6791,-3.7375,-3.8018,0.0,-3.9271,-3.892,0.0,-3.8574,-3.6592,-3.5752,-3.6218,-3.4155,-3.457,-3.7207,-3.6091,-3.7377,-4.06,-4.0517,-4.0796,-4.128,-4.0621,-4.0352,-4.0232,-3.896,-3.8033,-3.7432,-3.7595,-3.6824,-3.5829,-3.7265,-3.7308,-3.6676,-3.66,-3.6538,-3.6198,-3.4503,-3.3876,-3.3372,0.0,0.0,0.0,-2.4616,-2.5501,-2.6525,-2.3894,-2.4906,-2.627,-2.5119,-2.4688,-2.4515,-2.4605,-2.4244,-2.4149,-2.4779,-2.6744,-2.831,-2.8301,-2.8291,-2.8291,-2.8291,-2.8291,-2.8291,-2.8291,-2.8291,-2.8002,-2.7192,-2.8116,-2.8982,-2.9474,-3.0064,-3.0707,-3.1408,-3.0934,-3.0407,-2.9854,-2.9829,-2.9829,-2.9792,-2.9792,-2.9792,-2.9792,-2.9792,-2.9792,-2.9792,-2.9792,-2.9792,-2.9792,-2.9792,-2.9792,-2.9792,-2.9792,-2.9792,-2.9792,-2.9792,-2.9792,-2.9792,-2.9792,-2.9792,-2.9792,0.0,0.0,0.0,0.0,0.0,0.0,0.0,0.0,0.0,0.0,0.0,0.0,0.0,-4.0782,-3.9487,-3.8431,-3.7567,-3.7345,-3.8003,-3.8676,0.0,-3.9373,-3.9639,-3.9461,-3.8779,-3.8006,-3.6865,-3.5284,-3.4512,-3.464,-3.5604,-3.552,-3.6772,-3.9018,-3.9708,-4.0319,-4.0785,-4.053,-4.0157,-3.9723,-3.9245,-3.8646,-3.8062,-3.8192,-3.7923,-3.7519,-3.7729,-3.7889,-3.7953,-3.751,-3.7024,-3.6477,-3.5868,-3.4901,-3.3593,-3.1594,-3.0011,-2.87,-2.7586,-2.6947,-2.6501,-2.6277,-2.5865,-2.5173,-2.4011,-2.3159,-2.2429,-2.1679,-2.2015,-2.2511,-2.291,-2.5108,-2.6918,-2.7141,-2.78,-2.8291,-2.8291,-2.8291,-2.8291,-2.8291,-2.8291,-2.7959,-2.71,-2.7399,-2.8134,-2.9301,-2.8957,-2.9449,-3.1317,-3.0557,-2.9993,-2.9804,-2.9792,-2.9792,-2.9792,-2.9792,-2.9792,-2.9792,-2.9792,-2.9792,-2.9792,-2.9792,-2.9792,-2.9792,-2.9792,-2.9792,-2.9792,-2.9792,-2.9792,-2.9792,-2.9792,-2.9792,-2.9792,-2.9792,-2.9792,-2.9792,0.0,0.0,0.0,0.0,0.0,0.0,0.0,0.0,0.0,-4.2934,0.0,0.0,0.0,0.0,-4.0115,-3.9023,-3.8409,-3.8362,-3.902,-3.9694,-4.0083,-4.0083,-4.0502,-4.0193,-3.9081,-3.8553,-3.7198,-3.4954,-3.445,-3.4332,-3.4726,-3.5056,-3.6045,-3.7553,-3.8479,-3.9629,-4.0884,-4.103,-4.0681,-4.0023,-3.9349,-3.8796,-3.8387,-3.8242,-3.8216,-3.8192,-3.8105,-3.8333,-3.8726,-3.8551,-3.7799,-3.694,-3.6956,-3.581,-3.4163,-3.2496,-3.1535,-3.0831,-3.0027,-2.8679,-2.7678,-2.847,-2.6661,-2.4723,-2.4693,-2.2892,-2.1055,-2.0746,-2.0854,-2.109,-2.1514,-2.3399,-2.5082,-2.567,-2.6829,-2.772,-2.772,-2.8047,-2.8291,-2.8291,-2.8291,-2.8018,-2.7305,-2.71,-2.7721,-2.9478,-2.8433,-2.878,-3.1263,-3.0369,-2.9792,-2.9792,-2.9792,-2.9792,-2.9792,-2.9792,-2.9792,-2.9792,-2.9792,-2.9792,-2.9792,-2.9792,-2.9792,-2.9792,-2.9792,-2.9792,-2.9792,-2.9792,-2.9792,-2.9792,-2.9792,-2.9792,-2.9792,-2.9792,-2.9792,-2.9792,0.0,0.0,0.0,0.0,0.0,0.0,0.0,0.0,-4.3463,-4.2783,0.0,0.0,0.0,0.0,0.0,-3.9571,-3.9454,-3.9723,-4.0382,-4.1025,-4.1384,-4.1452,0.0,0.0,-3.9664,-3.8118,-3.6702,-3.5492,-3.3922,-3.3677,-3.4675,-3.4688,-3.5278,-3.6355,-3.7033,-3.8833,-4.1501,-4.208,-4.1953,-4.119,-3.926,-3.8482,-3.8407,-3.7749,-3.7509,-3.7627,-3.8343,-3.8656,-3.8803,-3.961,-3.8872,-3.7591,-3.7638,-3.6651,-3.5326,-3.4312,-3.4027,-3.3559,0.0,0.0,0.0,-3.0012,-2.7293,-2.516,-2.7145,-2.3883,-2.084,-2.2163,-2.1012,-2.0006,-2.0555,-2.1619,-2.2845,-2.3999,-2.5487,-2.6453,-2.6509,-2.7514,-2.8257,-2.831,-2.8301,-2.8125,-2.7757,-2.7275,-2.7843,-2.9828,-2.8578,-2.8792,-3.1263,-3.0369,-2.9792,-2.9792,-2.9792,-2.9792,-2.9792,-2.9792,-2.9792,-2.9792,-2.9792,-2.9792,-2.9792,-2.9792,-2.9792,-2.9792,-2.9792,-2.9792,-2.9792,-2.9792,-2.9792,-2.9792,-2.9792,-2.9792,-2.9792,-2.9792,-2.9792,-2.9792,0.0,0.0,0.0,0.0,0.0,0.0,-4.3439,-4.3347,-4.3195,0.0,0.0,0.0,-4.2138,-4.1417,-4.0743,-4.0171,-4.0127,-4.0412,-4.107,-4.128,-4.1632,-4.2111,-4.2126,-4.1577,-4.0351,-3.9882,-3.8269,-3.5492,-3.5038,-3.4392,-3.3533,-3.3935,-3.4286,-3.467,-3.6601,-3.7645,-3.8038,-3.9791,-4.0557,-4.0666,-4.0591,-4.0561,-4.0487,-3.9828,-3.9873,-4.0194,-3.9435,-3.9547,-4.0003,-3.9773,-3.8759,-3.7419,-3.6432,-3.5819,-3.5439,-3.5166,-3.4576,-3.3876,-3.3338,0.0,0.0,0.0,0.0,0.0,-2.5393,-2.4319,-2.3289,-2.1544,-2.0647,-2.0203,-2.0342,-2.0584,-2.1041,-2.1598,-2.3654,-2.5571,-2.6789,-2.6973,-2.7454,-2.8577,-2.8476,-2.8125,-2.7757,-2.7275,-2.7843,-2.9828,-2.9003,-2.9228,-3.1276,-3.0369,-2.9792,-2.9792,-2.9792,-2.9792,-2.9792,-2.9792,-2.9792,-2.9792,-2.9792,-2.9792,-2.9792,-2.9792,-2.9792,-2.9792,-2.9792,-2.9792,-2.9792,-2.9792,-2.9792,-2.9792,-2.9792,-2.9792,-2.9792,-2.9792,-2.9792,-2.9792,0.0,0.0,0.0,0.0,0.0,-4.4356,-4.3843,-4.3976,-4.3913,0.0,0.0,0.0,-4.2068,-4.1647,-4.1368,-4.125,-4.122,-4.1504,-4.2147,-4.2192,-4.2147,-4.2054,-4.1858,-4.1039,-3.9575,-3.9131,-3.7682,-3.5184,-3.4951,-3.4221,-3.3124,-3.3646,-3.3771,-3.3639,-3.528,-3.59,-3.5849,-3.7401,-3.8845,-4.0153,-4.0271,-4.0759,-4.1339,-4.095,-4.1055,-4.128,-4.0502,-4.0366,-4.0517,-4.05,-3.9402,-3.782,-3.6383,-3.5729,-3.5504,-3.5504,-3.51,-3.4624,-3.4624,-3.3476,-3.2181,-3.182,0.0,0.0,-2.7556,-2.6466,-2.53,-2.3244,-2.2298,-2.1807,-2.1627,-2.1235,-2.1004,-2.1572,-2.2432,-2.3544,-2.5142,-2.6165,-2.7017,-2.7807,-2.8311,-2.8389,-2.7969,-2.7373,-2.7924,-3.0127,-2.9248,-2.9341,-3.0976,-3.0256,-2.9792,-2.9792,-2.9792,-2.9792,-2.9792,-2.9792,-2.9792,-2.9792,-2.9792,-2.9792,-2.9792,-2.9792,-2.9792,-2.9792,-2.9792,-2.9792,-2.9792,-2.9792,-2.9792,-2.9792,-2.9792,-2.9792,-2.9792,-2.9792,-2.9792,-2.9792,0.0,0.0,0.0,-4.331,-4.3287,-4.3555,-4.3999,-4.4745,-4.4947,0.0,-4.4265,-4.3898,-4.2845,-4.259,-4.253,-4.2605,-4.2545,-4.2716,-4.3245,-4.329,-4.2805,-4.1629,-4.1136,-3.9999,-3.8047,-3.7153,-3.6012,-3.468,-3.4223,-3.3746,-3.3269,-3.3633,-3.3583,-3.3224,-3.3621,-3.4058,-3.4538,-3.5092,-3.6906,-3.9419,-3.8971,-3.9853,-4.1426,-4.1426,-4.1517,-4.1594,-4.1594,-4.113,-4.0619,-4.1163,-4.018,-3.8508,-3.7059,-3.6193,-3.5714,-3.5639,-3.5609,-3.5594,-3.5534,-3.4839,-3.4273,-3.4677,-3.3032,0.0,-3.1511,-2.9367,-2.7097,-2.6118,-2.5086,-2.4208,-2.3834,-2.2845,-2.2261,-2.2931,-2.1758,-2.1334,-2.2759,-2.509,-2.6602,-2.637,-2.7734,-2.8497,-2.812,-2.7435,-2.8036,-3.0526,-2.9589,-2.9437,-3.0626,-3.0118,-2.9792,-2.9792,-2.9792,-2.9792,-2.9792,-2.9792,-2.9792,-2.9792,-2.9792,-2.9792,-2.9792,-2.9792,-2.9792,-2.9792,-2.9792,-2.9792,-2.9792,-2.9792,-2.9792,-2.9792,-2.9792,-2.9792,-2.9792,-2.9792,-2.9792,-2.9792,0.0,0.0,-4.4344,-4.1622,-4.246,-4.3166,-4.2199,-4.3505,-4.4342,-4.3646,-4.401,-4.4421,-4.4691,-4.3778,-4.3359,-4.3883,-4.3449,-4.3155,-4.329,-4.329,-4.2805,-4.1629,-4.1513,-4.0196,-3.751,-3.7646,-3.676,-3.468,-3.4613,-3.4512,-3.4387,-3.3608,-3.342,-3.3721,-3.3382,-3.3298,-3.3411,-3.3555,-3.4946,-3.725,-3.8449,-4.0022,-4.157,-4.157,-4.2126,-4.2916,-4.2916,-4.2192,-4.0973,-3.952,-3.9154,-3.9008,-3.7668,-3.7135,-3.6941,-3.6447,-3.6297,-3.6178,-3.5654,-3.5359,-3.5049,-3.4336,-3.3776,0.0,-3.1455,-3.0661,-2.9524,-2.7151,-2.6504,-2.5998,-2.4939,-2.4061,-2.3578,-2.3623,-2.2487,-2.2022,-2.3303,-2.3612,-2.4193,-2.541,-2.6404,-2.6919,-2.6837,-2.6959,-2.8036,-3.0526,-3.0793,-3.0984,-3.1207,-3.0319,-2.9792,-2.9792,-2.9792,-2.9792,-2.9792,-2.9792,-2.9792,-2.9792,-2.9792,-2.9792,-2.9792,-2.9792,-2.9792,-2.9792,-2.9792,-2.9792,-2.9792,-2.9792,-2.9792,-2.9792,-2.9792,-2.9792,-2.9792,-2.9792,-2.9792,-2.9792,0.0,-4.3766,-4.3549,-4.0655,-4.1455,-4.2342,-4.1639,-4.2934,-4.3947,-4.3903,-4.4696,-4.5319,-4.5289,-4.4706,-4.4317,-4.4317,-4.3678,-4.329,-4.329,-4.329,-4.2563,-4.0831,-4.0478,-3.9229,-3.6909,-3.6534,-3.596,-3.5094,-3.4575,-3.4311,-3.4299,-3.3746,-3.3332,-3.3068,-3.3357,-3.3169,-3.2667,-3.2955,-3.3911,-3.5357,-3.704,-3.8971,-4.0746,-4.0746,-4.1099,-4.1657,-4.2249,-4.2223,-4.1707,-4.0374,-3.9679,-3.9269,-3.8631,-3.7958,-3.7345,-3.7045,-3.6731,-3.6417,-3.6088,-3.5744,-3.5392,-3.4872,-3.4758,0.0,0.0,-3.2496,-3.1892,-2.9699,-2.9241,-2.8993,-2.8218,-2.681,-2.5966,-2.6555,-2.4545,-2.3174,-2.4007,-2.3358,-2.3067,-2.3829,-2.552,-2.6522,-2.6315,-2.6958,-2.8178,-3.0204,-3.0425,-3.0787,-3.1386,-3.0369,-2.9792,-2.9792,-2.9792,-2.9792,-2.9792,-2.9792,-2.9792,-2.9792,-2.9792,-2.9792,-2.9792,-2.9792,-2.9792,-2.9792,-2.9792,-2.9792,-2.9792,-2.9792,-2.9792,-2.9792,-2.9792,-2.9792,-2.9792,-2.9792,-2.9792,-2.9792,-4.3538,-4.3421,-4.2689,-4.0121,-4.0554,-4.1219,-4.1219,-4.2315,-4.3418,-4.4143,-4.5347,-4.5921,-4.5372,-4.5314,-4.5125,-4.4736,-4.3828,-4.3349,-4.3469,-4.3364,-4.2327,-4.0107,-3.935,-3.8135,-3.6273,-3.5206,-3.4843,-3.5182,-3.4336,-3.396,-3.406,-3.3847,-3.3307,-3.2579,-3.3382,-3.3232,-3.2416,-3.2993,-3.3558,-3.4186,-3.5699,-3.7491,-3.9264,-3.9374,-3.9546,-3.9849,-4.0774,-4.152,-4.1974,-4.1162,-4.0398,-3.9753,-3.9463,-3.8676,-3.7764,-3.7644,-3.724,-3.6791,-3.6552,-3.6088,-3.5669,-3.5534,-3.5504,-3.5311,0.0,0.0,0.0,-3.2609,-3.2287,-3.2131,-3.1563,-2.9756,-2.8606,-2.9361,-2.6808,-2.471,-2.4859,-2.3803,-2.299,-2.2716,-2.4971,-2.6442,-2.619,-2.7252,-2.8471,-2.9908,-2.9839,-3.0248,-3.1345,-3.047,-2.9905,-2.9792,-2.9792,-2.9792,-2.9792,-2.9792,-2.9792,-2.9792,-2.9792,-2.9792,-2.9792,-2.9792,-2.9792,-2.9792,-2.9792,-2.9792,-2.9792,-2.9792,-2.9792,-2.9792,-2.9792,-2.9792,-2.9792,-2.9792,-2.9792,-2.9792,-4.275,-4.3084,-4.2689,-4.0121,-3.9839,-3.9929,0.0,0.0,-4.2252,-4.3454,-4.4726,-4.5454,-4.5382,-4.5353,-4.5514,-4.601,-4.4351,-4.3544,-4.4167,-4.3618,-4.2474,-4.0617,-3.9536,-3.7941,-3.5637,-3.499,-3.4512,-3.4085,-3.396,-3.4148,-3.4613,-3.3633,-3.337,-3.3696,-3.3332,-3.3106,-3.3018,-3.3571,-3.4123,-3.4675,-3.5352,-3.6116,-3.6934,-3.7409,-3.8209,-3.9099,-3.9184,-3.9982,-4.076,-3.944,-3.9971,-4.095,-3.9783,-3.932,-3.9065,-3.8452,-3.8227,-3.7928,-3.6791,-3.6432,-3.6237,-3.5654,-3.5504,-3.5636,-3.6182,0.0,-3.6011,-3.499,0.0,-3.4307,-3.2729,0.0,0.0,-2.9663,-2.8208,-2.6866,-2.5896,-2.4957,-2.4139,-2.339,-2.4915,-2.6125,-2.6448,-2.779,-2.9031,-2.9922,-3.0208,-3.0634,-3.137,-3.0834,-3.0294,-2.9817,-2.9792,-2.9792,-2.9792,-2.9792,-2.9792,-2.9792,-2.9792,-2.9792,-2.9792,-2.9792,-2.9792,-2.9792,-2.9792,-2.9792,-2.9792,-2.9792,-2.9792,-2.9792,-2.9792,-2.9792,-2.9792,-2.9792,-2.9792,-2.9792,-4.1841,-4.2801,-4.2689,-4.0121,-3.9697,0.0,0.0,0.0,-4.1789,-4.2315,-4.3504,-4.4303,-4.4303,-4.4582,-4.4893,-4.5171,-4.4383,-4.4018,-4.4302,-4.3663,-4.2647,-4.1239,-4.0139,-3.8583,-3.6594,-3.5309,-3.4613,-3.4374,-3.3734,-3.3709,-3.4223,-3.3445,-3.3206,-3.342,-3.3181,-3.3257,-3.3571,-3.3796,-3.4223,-3.4738,-3.4931,-3.5218,-3.5487,-3.6051,-3.6786,-3.7545,-3.7502,-3.8267,-3.9236,-3.8958,-3.893,-3.9021,-3.9382,-3.9034,-3.8539,-3.8871,-3.8691,-3.8272,-3.7734,-3.7315,-3.6956,-3.6671,-3.6342,-3.6157,-3.647,-3.6551,-3.6368,-3.5563,0.0,0.0,0.0,0.0,0.0,0.0,-3.0642,-2.8975,-2.8572,-2.7271,-2.5724,-2.3944,-2.4975,-2.6087,-2.6733,-2.7388,-2.8255,-2.9429,-2.9093,-2.9451,-3.0838,-3.0432,-3.003,-2.9804,-2.9792,-2.9792,-2.9792,-2.9792,-2.9792,-2.9792,-2.9792,-2.9792,-2.9792,-2.9792,-2.9792,-2.9792,-2.9792,-2.9792,-2.9792,-2.9792,-2.9792,-2.9792,-2.9792,-2.9792,-2.9792,-2.9792,-2.9792,-2.9792,-4.066,-4.1892,-4.2127,-4.0045,-3.9697,-3.9697,-3.9697,-4.0453,-4.1082,-4.1082,-4.2168,-4.3047,-4.3197,-4.3715,-4.4305,-4.4867,-4.4528,-4.4365,-4.4545,-4.3932,-4.297,-4.1616,-4.0323,-3.8794,-3.7056,-3.532,-3.4424,-3.4274,-3.347,-3.3357,-3.3884,-3.3332,-3.3156,-3.3307,-3.3307,-3.352,-3.3922,-3.4223,-3.4575,-3.4906,-3.4906,-3.4718,-3.4562,-3.5069,-3.5481,-3.5805,-3.5961,-3.6647,-3.7523,-3.7933,-3.7662,-3.7354,-3.8357,-3.8069,-3.7496,-3.8294,-3.851,-3.8432,-3.8062,-3.7942,-3.7868,-3.7494,-3.7075,-3.6753,-3.6776,-3.6855,-3.6708,-3.6199,-3.6503,0.0,0.0,0.0,-3.4733,-3.4885,0.0,-3.1099,-3.0675,-2.9505,-2.7744,-2.531,-2.5846,-2.6665,-2.7441,-2.7097,-2.739,-2.8678,-2.8243,-2.8594,-3.0047,-3.0061,-2.9942,-2.9792,-2.9792,-2.9792,-2.9792,-2.9792,-2.9792,-2.9792,-2.9792,-2.9792,-2.9792,-2.9792,-2.9792,-2.9792,-2.9792,-2.9792,-2.9792,-2.9792,-2.9792,-2.9792,-2.9792,-2.9792,-2.9792,-2.9792,-2.9792,-2.9792,-3.9107,-4.0029,-4.0615,-3.9841,-3.9697,-3.9697,-3.9697,-3.9749,-3.9736,-3.9736,-4.0882,-4.1865,-4.2369,-4.2988,-4.4096,-4.5978,-4.4951,-4.4502,-4.5206,-4.4646,-4.3394,-4.1481,-3.9888,-3.8131,-3.6296,-3.4705,-3.3658,-3.3174,-3.3136,-3.3357,-3.3884,-3.3332,-3.337,-3.3872,-3.3872,-3.3884,-3.3972,-3.4994,-3.5458,-3.547,-3.547,-3.4831,-3.3985,-3.4537,-3.4399,-3.4042,-3.457,-3.5138,-3.5677,-3.5645,-3.633,-3.7094,-3.6486,-3.6265,-3.6251,-3.6277,-3.7469,-3.851,-3.7218,-3.8076,-3.9,-3.7734,-3.7404,-3.7398,-3.7538,-3.7575,-3.756,-3.7528,-3.756,-3.7522,-3.738,-3.6832,-3.6115,-3.5152,-3.4376,0.0,0.0,-3.1132,-3.0224,-2.785,-2.7785,-2.8136,-2.8692,-2.7312,-2.6744,-2.7584,-2.8222,-2.8701,-2.8928,-2.9985,-3.0344,-2.9817,-2.9792,-2.9792,-2.9792,-2.9792,-2.9792,-2.9792,-2.9792,-2.9792,-2.9792,-2.9792,-2.9792,-2.9792,-2.9792,-2.9792,-2.9792,-2.9792,-2.9792,-2.9792,-2.9792,-2.9792,-2.9792,-2.9792,-2.9792,-2.9792,-3.8856,-3.9246,-3.9447,-3.9209,-3.9446,-3.9697,-3.9697,-3.9383,-3.9421,-4.0149,-4.0577,-4.1079,-4.1588,-4.2602,-4.3389,-4.3633,-4.3642,-4.356,-4.3468,-4.3603,-4.3219,-4.2099,-4.0858,-3.9514,-3.809,-3.602,-3.468,-3.4161,-3.4161,-3.4261,-3.4437,-3.3884,-3.3922,-3.4412,-3.3684,-3.396,-3.4944,-3.4956,-3.5416,-3.6056,-3.5646,-3.5056,-3.4387,-3.3847,-3.352,-3.3382,-3.3571,-3.3786,-3.4003,-3.4344,-3.4474,-3.463,-3.5485,-3.5478,-3.5319,-3.6013,-3.6626,-3.7155,-3.7372,-3.8214,-3.8971,-3.8767,-3.8701,-3.8627,-3.8217,-3.7835,-3.7571,-3.7476,-3.7546,-3.7552,-3.7406,-3.6911,-3.641,-3.6062,-3.4884,-3.3774,0.0,-3.1997,-3.0815,-2.974,-2.9148,-2.8609,-2.8141,-2.8161,-2.8313,-2.8377,-2.861,-2.8941,-2.9465,-2.9859,-2.998,-2.9804,-2.9792,-2.9792,-2.9792,-2.9792,-2.9792,-2.9792,-2.9792,-2.9792,-2.9792,-2.9792,-2.9792,-2.9792,-2.9792,-2.9792,-2.9792,-2.9792,-2.9792,-2.9792,-2.9792,-2.9792,-2.9792,-2.9792,-2.9792,-2.9792,-3.8793,-3.9032,-3.917,-3.917,-3.9459,-3.9697,-3.9697,-3.9559,-3.9785,-4.0689,-4.0761,-4.1091,-4.1844,-4.2268,-4.258,-4.2703,-4.2847,-4.2828,-4.2507,-4.2859,-4.2792,-4.2066,-4.1217,-4.0122,-3.8698,-3.7011,-3.5651,-3.468,-3.468,-3.4781,-3.4956,-3.4248,-3.4198,-3.4675,-3.3771,-3.4073,-3.5194,-3.5044,-3.5529,-3.6367,-3.5768,-3.5056,-3.4349,-3.3633,-3.3257,-3.3124,-3.3124,-3.3124,-3.3131,-3.3483,-3.337,-3.3303,-3.4307,-3.4406,-3.4262,-3.4925,-3.5534,-3.6101,-3.6584,-3.7891,-3.916,-3.9171,-3.9661,-3.9873,-3.896,-3.8478,-3.8156,-3.7807,-3.7815,-3.7943,-3.8092,-3.7599,-3.709,-3.6851,-3.5739,-3.469,0.0,-3.2393,-3.1101,-3.0842,-2.9768,-2.8862,-2.8439,-2.8533,-2.8531,-2.8205,-2.858,-2.891,-2.9182,-2.9573,-2.9792,-2.9792,-2.9792,-2.9792,-2.9792,-2.9792,-2.9792,-2.9792,-2.9792,-2.9792,-2.9792,-2.9792,-2.9792,-2.9792,-2.9792,-2.9792,-2.9792,-2.9792,-2.9792,-2.9792,-2.9792,-2.9792,-2.9792,-2.9792,-2.9792,-2.9792,-3.8957,-3.9333,-3.9697,-3.9697,-3.9647,-3.9622,-3.9685,-4.0162,-4.0727,-4.125,-4.1376,-4.1856,-4.2911,-4.2057,-4.1849,-4.3035,-4.2601,-4.2322,-4.2342,-4.2414,-4.2119,-4.1326,-4.0888,-3.9881,-3.8145,-3.7568,-3.643,-3.4801,-3.4801,-3.5019,-3.552,-3.4487,-3.4248,-3.47,-3.4173,-3.4223,-3.4763,-3.527,-3.5868,-3.6355,-3.5683,-3.4831,-3.3935,-3.3884,-3.3533,-3.3124,-3.3124,-3.3124,-3.3124,-3.3124,-3.3124,-3.3124,-3.3124,-3.3124,-3.3124,-3.3124,-3.4212,-3.5363,-3.485,-3.7109,-3.9434,-3.8841,-4.0006,-4.095,-3.9636,-3.9337,-3.923,-3.8571,-3.8407,-3.8586,-3.9245,-3.8811,-3.8123,-3.7464,-3.6851,-3.5878,-3.4216,-3.2464,-3.1278,-3.1217,-2.987,-2.9117,-2.9534,-2.8563,-2.7671,-2.7273,-2.8256,-2.8671,-2.8199,-2.9197,-2.9792,-2.9792,-2.9792,-2.9792,-2.9792,-2.9792,-2.9792,-2.9792,-2.9792,-2.9792,-2.9792,-2.9792,-2.9792,-2.9792,-2.9792,-2.9792,-2.9792,-2.9792,-2.9792,-2.9792,-2.9792,-2.9792,-2.9792,-2.9792,-2.9792,-2.9792,-3.9484,-3.9597,-3.9697,-3.9697,-3.9007,-3.8718,-3.9572,-4.0162,-4.0852,-4.1819,-4.266,-4.3275,-4.3564,-4.2974,-4.233,-4.1861,-4.1277,-4.0849,-4.0425,-4.1331,-4.1352,-4.0245,-4.0127,-3.9499,-3.8132,-3.7117,-3.643,-3.5943,-3.5943,-3.6006,-3.6132,-3.5454,-3.4931,-3.4668,-3.4575,-3.4587,-3.4763,-3.527,-3.5868,-3.6317,-3.5316,-3.4718,-3.4424,-3.3608,-3.3206,-3.3124,-3.3124,-3.3124,-3.3124,-3.3124,-3.3124,-3.3124,-3.3124,-3.3124,-3.3124,-3.3124,-3.3414,-3.3892,-3.4509,-3.5678,-3.6702,-3.6851,-3.8553,-3.9882,-3.8524,-3.8819,-3.9328,-3.9185,-3.8751,-3.8437,-3.8616,-3.8108,-3.7449,-3.6821,-3.6178,-3.5358,-3.4158,-3.3602,-3.2749,-3.1352,-3.0849,-3.0356,-2.9801,-2.9812,-2.965,-2.9154,-2.9367,-2.9475,-2.9365,-2.9624,-2.9792,-2.9792,-2.9792,-2.9792,-2.9792,-2.9792,-2.9792,-2.9792,-2.9792,-2.9792,-2.9792,-2.9792,-2.9792,-2.9792,-2.9792,-2.9792,-2.9792,-2.9792,-2.9792,-2.9792,-2.9792,-2.9792,-2.9792,-2.9792,-2.9792,-2.9792,-3.9697,-3.9697,-3.9697,-3.9697,-3.9371,-3.932,-3.9961,-4.0325,-4.0915,-4.2062,-4.2753,-4.3175,-4.3413,-4.2735,-4.2007,-4.1338,-4.0614,-4.0023,-3.971,-4.0364,-4.0579,-4.0154,-3.9947,-3.9427,-3.8457,-3.7577,-3.6883,-3.6405,-3.6405,-3.6405,-3.6405,-3.5805,-3.5207,-3.468,-3.468,-3.468,-3.4731,-3.5567,-3.6081,-3.6329,-3.5429,-3.4893,0.0,-3.3771,-3.3282,-3.3124,-3.3124,-3.3124,-3.3124,-3.3124,-3.3124,-3.3124,-3.3124,-3.3124,-3.3124,-3.3124,-3.3124,-3.324,-3.3839,-3.4763,-3.5639,-3.5886,-3.7533,-3.8831,-3.7788,-3.8361,-3.9047,-3.8767,-3.8399,-3.8135,-3.8135,-3.7252,-3.638,-3.5908,-3.5284,-3.4806,-3.4691,-3.4279,-3.3449,-3.1997,-3.1462,-3.0833,-2.9895,-3.0068,-3.0131,-2.9817,-3.0018,-3.0043,-2.9804,-3.0018,-3.0043,-2.9804,-3.003,-3.0043,-2.9792,-3.003,-3.003,-2.9792,-2.9792,-2.9792,-2.9792,-2.9792,-2.9792,-2.9792,-2.9792,-2.9792,-2.9792,-2.9792,-2.9792,-2.9753,-2.9236,-2.9067,-2.8988,-2.8542,-2.8961,-2.9792,-3.9697,-3.9747,-3.9772,-3.971,-4.0212,-4.0651,-4.0727,-4.0852,-4.1317,-4.2401,-4.2602,-4.2803,-4.315,-4.2208,-4.1438,-4.13,-4.0388,-3.9772,-3.9697,-3.9697,-3.9918,-4.0347,-3.9935,-3.9359,-3.8679,-3.8214,-3.7446,-3.6405,-3.6405,-3.6405,-3.6405,-3.5868,-3.527,-3.468,-3.4756,-3.4788,-3.4743,-3.5619,-3.6008,-3.5959,-3.5238,-3.4684,-3.4185,-3.3774,-3.3314,-3.2884,-3.3025,-3.3124,-3.3124,-3.3124,-3.3124,-3.3124,-3.3124,-3.3124,-3.3124,-3.3124,-3.3124,-3.3124,-3.3124,-3.4144,-3.5289,-3.5263,-3.6572,-3.769,-3.7002,-3.7777,-3.8384,-3.7715,-3.7587,-3.7572,-3.7486,-3.6262,-3.5161,-3.4832,-3.428,-3.4225,-3.5119,-3.452,-3.3602,-3.2522,-3.1815,0.0,-2.9895,-2.9792,-2.9792,-2.9792,-3.0231,-3.0294,-2.9817,-3.0244,-3.0281,-2.9804,-3.0256,-3.0319,-2.9905,-3.0306,-3.0306,-2.9892,-2.9829,-2.9792,-2.9792,-2.9792,-2.9792,-2.9792,-2.9792,-2.9792,-2.9792,-2.9792,-2.9702,-2.9495,-2.8478,-2.8004,-2.7763,-2.6842,-2.7718,-2.9378,-3.9697,-4.0061,-4.0224,-3.9772,-4.0526,-4.1342,-4.1848,-4.2635,-4.3463,-4.4104,-4.4606,-4.4756,-4.438,-4.335,-4.2321,-4.1363,-4.0752,-4.0174,-3.9722,-3.9697,-3.9548,-3.9221,-3.9107,-3.8562,-3.7523,-3.7409,-3.7036,-3.6405,-3.6405,-3.6405,-3.6405,-3.6304,-3.568,-3.4738,-3.5157,-3.5107,-3.4673,-3.4179,-3.4006,-3.3899,-3.2674,-3.1942,-3.1605,-3.2072,-3.1956,-3.1677,-3.2698,-3.3124,-3.3124,-3.3124,-3.3124,-3.3124,-3.3124,-3.3124,-3.3124,-3.3124,-3.3124,-3.3124,-3.3124,-3.3303,-3.3538,-3.3538,-3.4806,-3.5887,-3.5272,-3.6347,-3.7292,-3.6612,-3.6487,-3.6334,-3.5822,-3.5048,-3.4323,-3.3761,-3.359,-3.3556,-3.3751,-3.388,-3.3345,-3.1633,-3.1997,-3.1683,-2.9972,-2.9792,-2.9792,-2.9792,-2.988,-2.9892,-2.9804,-2.988,-2.9892,-2.9792,-2.988,-3.0105,-3.047,-3.0118,-3.0118,-3.047,-3.0005,-2.9792,-2.9792,-2.9792,-2.9792,-2.9792,-2.9792,-2.9792,-2.9792,-2.9792,-2.9236,-2.8386,-2.8176,-2.7574,-2.676,-2.6565,-2.6771,-2.7098,-3.9747,-4.0136,-4.0526,-4.0538,-4.1229,-4.2145,-4.3263,-4.4141,-4.4556,-4.4242,-4.4192,-4.4079,-4.3802,-4.3037,-4.2045,-4.0648,-4.0484,-4.0059,-3.8945,-3.9395,-3.9572,-3.9308,-3.9032,-3.8479,-3.7626,-3.7324,-3.6958,-3.6405,-3.6405,-3.6405,-3.6405,-3.6069,-3.5504,-3.468,-3.4028,-3.3518,-3.3126,-3.274,-3.2693,-3.2802,-3.1851,-3.1263,-3.0878,-3.089,-3.1029,-3.1267,-3.1909,-3.2556,-3.3124,-3.3124,-3.3124,-3.3124,-3.3124,-3.3124,-3.3124,-3.3124,-3.3124,-3.3124,-3.3124,-3.3124,-3.3124,-3.3124,-3.3717,-3.4203,-3.3933,-3.4916,-3.5791,-3.5494,-3.544,-3.5063,-3.3898,-3.3198,-3.2868,-3.3051,-3.2637,-3.2525,-3.3266,-3.3338,-3.2749,-3.1352,-3.1609,-3.1328,-2.9934,-2.9792,-2.9792,-2.9792,-3.0055,-3.0093,-2.9804,-3.0068,-3.0093,-2.9804,-3.0068,-3.0218,-3.0193,-3.0206,-2.9905,-2.9316,-2.9619,-2.9495,-2.8937,-2.9534,-2.9792,-2.9792,-2.9792,-2.9792,-2.9753,-2.9145,-2.8597,-2.8004,-2.6849,-2.6077,-2.5546,-2.4935,-2.4723,-2.4893,-3.9733,-4.0352,-4.1178,-4.1618,-4.2233,-4.3124,-4.443,-4.5221,-4.5296,-4.4292,-4.3677,-4.3288,-4.3162,-4.2715,-4.1644,-3.9777,-4.0279,-3.9952,-3.8238,-3.9099,-3.9747,-3.9873,-3.9346,-3.8781,-3.8203,-3.7651,-3.7023,-3.6405,-3.6405,-3.6342,-3.6182,-3.5868,-3.5232,-3.4384,-3.2574,-3.169,-3.1468,-3.1323,-3.144,-3.1649,-3.1072,-3.0525,-3.0067,-2.9818,-3.0051,-3.0451,-3.0721,-3.1456,-3.2295,-3.2295,-3.2655,-3.3124,-3.3124,-3.3124,-3.3124,-3.3124,-3.3124,-3.3124,-3.3124,-3.3124,-3.3124,-3.3124,-3.3124,-3.3124,-3.3124,-3.3755,-3.4345,-3.4345,-3.4345,-3.3926,-3.2483,-3.1951,-3.1975,-3.2564,-3.1941,-3.1764,-3.2839,-3.2663,-3.2059,-3.102,-3.1068,-3.0833,-2.9895,-2.9792,-2.9792,-2.9792,-3.0193,-3.0256,-2.9817,-3.0319,-3.0419,-2.998,-3.0382,-3.0457,-3.0131,-3.0069,-2.9453,-2.8302,-2.8828,-2.8621,-2.7815,-2.8949,-2.9443,-2.9456,-2.9702,-2.9663,-2.9365,-2.8466,-2.7844,-2.7227,-2.5493,-2.466,-2.4339,-2.343,-2.3091,-2.3353,-3.9411,-4.1078,-4.276,-4.2811,-4.3689,-4.4443,-4.4606,-4.5535,-4.6012,-4.5409,-4.4832,-4.4279,-4.3777,-4.3237,-4.1905,-3.9411,-4.0456,-4.036,-3.8382,-3.9152,-3.9923,-4.0413,-3.991,-3.9358,-3.8856,-3.8228,-3.7412,-3.6405,-3.6405,-3.6107,-3.5583,-3.6081,-3.5345,-3.3529,-3.1645,-3.0804,-3.0722,-3.0049,-2.9707,-2.9668,-2.889,-2.809,-2.7491,-2.8504,-2.8517,-2.8085,-2.9177,-2.9636,-2.9727,-2.9727,-3.1235,-3.3124,-3.3124,-3.3124,-3.3124,-3.3124,-3.3124,-3.3124,-3.3124,-3.3124,-3.3124,-3.3124,-3.3124,-3.3124,-3.3124,-3.3197,-3.324,-3.324,-3.324,-3.3021,-3.2315,-3.2604,-3.2784,-3.234,-3.2164,-3.1978,-3.1645,-3.1876,-3.1521,-3.01,-3.0696,-3.0833,-2.9895,-2.9792,-2.9792,-2.9792,-2.9842,-2.9842,-2.9792,-3.0319,-3.0595,-3.0545,-3.0583,-3.0821,-3.1235,-2.933,-2.8502,-2.8797,-2.7469,-2.676,-2.6678,-2.7775,-2.8255,-2.8307,-2.9365,-2.9197,-2.8255,-2.8136,-2.693,-2.5073,-2.4872,-2.4168,-2.3266,-2.3135,-2.3091,-2.3135,-4.0007,-4.1805,-4.3576,-4.3903,-4.433,-4.4857,-4.5535,-4.5736,-4.5301,-4.3755,-4.3368,-4.3015,-4.2397,-4.1029,-3.929,-3.7288,-3.8229,-3.8486,-3.7335,-3.8171,-3.872,-3.8676,-3.8469,-3.7726,-3.6221,-3.5756,-3.5133,-3.4355,-3.4099,-3.384,-3.358,-3.3265,-3.2116,-3.0297,-2.9813,-2.9289,-2.8889,-2.8583,-2.8557,-2.8755,-2.8426,-2.7939,-2.7425,-2.7641,-2.7941,-2.8324,-2.8336,-2.8948,-2.9741,-2.9508,-3.0045,-3.1012,-3.1733,-3.1965,-3.2096,-3.2884,-3.3124,-3.3124,-3.3124,-3.3124,-3.3124,-3.3124,-3.3124,-3.3124,-3.3124,-3.3124,-3.3124,-3.3124,-3.3124,-3.3048,-3.2767,-3.2641,-3.2591,-3.2717,-3.2164,-3.1637,-3.1424,-3.1269,-3.084,-2.9893,-3.0139,-3.0216,-2.983,-2.9792,-2.9792,-2.9792,-2.9792,-2.9792,-2.9792,-2.9354,-2.9573,-3.0568,-2.9598,-2.9684,-3.0922,-2.9052,-2.7869,-2.7467,-2.6809,-2.6141,-2.5504,-2.6625,-2.7493,-2.8096,-2.7907,-2.7947,-2.8004,-2.6685,-2.5608,-2.4745,-2.4049,-2.3507,-2.3091,-2.3091,-2.3091,-2.3091,-3.9768,-4.1733,-4.3672,-4.4665,-4.502,-4.5144,-4.5337,-4.5041,-4.3973,-4.1611,-4.0903,-4.0574,-4.048,-3.9081,-3.75,-3.58,-3.6741,-3.6991,-3.603,-3.6893,-3.7341,-3.711,-3.6947,-3.6152,-3.4708,-3.4215,-3.3667,-3.2978,-3.2672,-3.2348,-3.2057,-3.1114,-3.0056,-2.883,-2.8703,-2.8347,-2.7904,-2.7904,-2.8018,-2.8291,-2.8291,-2.8047,-2.7679,-2.7324,-2.7661,-2.8184,-2.7657,-2.8055,-2.8907,-2.8621,-2.8427,-2.8588,-3.0169,-3.0676,-3.0911,-3.2152,-3.2556,-3.2612,-3.2982,-3.3124,-3.3124,-3.3124,-3.3124,-3.3124,-3.3124,-3.2797,-3.2426,-3.2108,-3.2008,-3.2008,-3.2008,-3.1964,-3.2055,-3.2451,-3.2179,-3.1825,-3.165,-3.1173,-3.0645,-3.0093,-2.9892,-2.9792,-2.9792,-2.9792,-2.9663,-2.9326,-2.9314,-2.9314,-2.9314,-2.8702,-2.8754,-2.9622,-2.8778,-2.8887,-3.0091,-2.845,-2.725,-2.6483,-2.5808,-2.5094,-2.4339,-2.5473,-2.6789,-2.8044,-2.6964,-2.6924,-2.7481,-2.5577,-2.4585,-2.4211,-2.343,-2.3091,-2.3091,-2.3091,-2.3091,-2.3091,-3.8278,-4.0524,-4.2963,-4.5135,-4.5937,-4.5594,-4.3431,-4.3153,-4.2153,-3.9401,-3.7678,-3.7136,-3.81,-3.8223,-3.7367,-3.5357,-3.6555,-3.6571,-3.4639,-3.5422,-3.5949,-3.6129,-3.5601,-3.5288,-3.5288,-3.4676,-3.3939,-3.2978,-3.2967,-3.2465,-3.1477,-3.0691,-3.0296,-3.0245,-2.888,-2.8281,-2.8281,-2.8281,-2.8291,-2.8291,-2.8291,-2.8047,-2.7718,-2.7708,-2.7393,-2.7012,-2.7002,-2.6789,-2.6436,-2.6427,-2.6143,-2.6197,-2.8623,-2.9407,-2.9681,-3.0855,-3.1211,-3.15,-3.2754,-3.3124,-3.3124,-3.3124,-3.3124,-3.3124,-3.3124,-3.2152,-3.0899,-2.9681,-2.9453,-2.9453,-2.9453,-3.0395,-3.1211,-3.1211,-3.2271,-3.2855,-3.2277,-3.1725,-3.1185,-3.067,-3.0118,-2.9792,-2.9792,-2.9792,-2.9326,-2.8215,-2.8136,-2.8136,-2.8136,-2.8624,-2.8403,-2.7381,-2.8362,-2.891,-2.891,-2.7339,-2.6513,-2.6483,-2.4221,-2.3135,-2.3178,-2.4296,-2.6025,-2.8044,-2.6964,-2.6513,-2.6431,-2.5294,-2.4125,-2.3135,-2.3101,-2.3091,-2.3091,-2.3091,-2.3091,-2.3091,-3.7886,-3.9454,-4.0969,-4.192,-4.2035,-4.1725,-4.1,-4.0567,-3.9616,-3.7649,-3.6659,-3.5799,-3.5005,-3.4922,-3.4563,-3.3646,-3.4237,-3.4491,-3.3985,-3.4524,-3.4622,-3.4103,-3.3875,-3.3304,-3.2332,-3.1804,-3.1273,-3.069,-3.069,-3.022,-2.9299,-2.9031,-2.8803,-2.8533,-2.8367,-2.8135,-2.7861,-2.7861,-2.7861,-2.7842,-2.7539,-2.7685,-2.8027,-2.7441,-2.75,-2.7812,-2.7226,-2.7119,-2.7268,-2.6914,-2.6719,-2.6703,-2.7215,-2.7745,-2.8412,-2.9636,-2.9954,-3.0045,-3.0463,-3.119,-3.1821,-3.1821,-3.2469,-3.3124,-3.3124,-3.2096,-3.0855,-2.9636,-2.9407,-2.9407,-2.9407,-2.9715,-2.9954,-2.9954,-3.0316,-3.0283,-2.9366,-2.9803,-2.9854,-2.9,-2.9425,-2.9792,-2.9792,-2.9106,-2.8478,-2.8136,-2.7673,-2.7318,-2.7017,-2.6429,-2.6464,-2.7285,-2.6775,-2.6934,-2.779,-2.6461,-2.5626,-2.5336,-2.38,-2.3091,-2.3091,-2.3464,-2.4457,-2.5775,-2.4681,-2.4638,-2.5252,-2.4092,-2.343,-2.3091,-2.3091,-2.3091,-2.3091,-2.3091,-2.3091,-2.3091,-3.6875,-3.7948,-3.8945,-3.9825,-3.9955,-3.9613,-3.8817,-3.8356,-3.749,-3.5675,-3.5015,-3.4317,-3.3309,-3.3047,-3.2969,-3.3027,-3.3271,-3.3361,-3.3362,-3.3462,-3.3266,-3.254,-3.2346,-3.1815,-3.0889,-3.1152,-3.0831,-2.9805,-2.9482,-2.9141,-2.876,-2.8447,-2.8232,-2.8144,-2.8252,-2.8144,-2.7953,-2.7953,-2.7953,-2.7861,-2.7432,-2.7676,-2.8213,-2.7519,-2.7685,-2.8223,-2.7685,-2.7568,-2.7679,-2.7353,-2.7148,-2.6943,-2.6523,-2.6724,-2.7352,-2.8409,-2.8727,-2.8819,-2.9269,-2.9943,-3.0541,-3.0541,-3.1134,-3.1601,-3.1146,-3.0777,-3.0045,-2.8355,-2.7992,-2.7992,-2.7992,-2.8402,-2.8727,-2.8727,-2.9085,-2.9127,-2.8376,-2.866,-2.8661,-2.7906,-2.8364,-2.8719,-2.8566,-2.8032,-2.7475,-2.6901,-2.6615,-2.6097,-2.5253,-2.5094,-2.5241,-2.5701,-2.5357,-2.5572,-2.633,-2.5572,-2.5038,-2.4787,-2.3637,-2.3091,-2.3091,-2.3091,-2.3814,-2.4964,-2.3664,-2.3814,-2.4921,-2.362,-2.3091,-2.3091,-2.3091,-2.3091,-2.3091,-2.3091,-2.3091,-2.3091,-3.5366,-3.6132,-3.6903,-3.8404,-3.9115,-3.8806,-3.678,-3.6467,-3.5706,-3.3656,-3.3057,-3.2793,-3.2793,-3.2451,-3.2529,-3.331,-3.3379,-3.3184,-3.2734,-3.2363,-3.1963,-3.1494,-3.1103,-3.0889,-3.0889,-3.2369,-3.22,-3.0406,-2.9401,-2.9141,-2.9551,-2.8691,-2.8506,-2.8857,-2.8467,-2.8271,-2.8252,-2.8252,-2.8252,-2.8213,-2.7845,-2.7891,-2.8252,-2.7822,-2.793,-2.8291,-2.8291,-2.8047,-2.7767,-2.7767,-2.7422,-2.6992,-2.6562,-2.6406,-2.6547,-2.7259,-2.7447,-2.772,-2.8855,-2.9223,-2.9269,-2.9269,-2.9361,-2.9085,-2.7861,-2.8448,-2.8588,-2.6197,-2.5693,-2.5693,-2.5693,-2.6668,-2.7447,-2.7447,-2.838,-2.8955,-2.8567,-2.8065,-2.7563,-2.7169,-2.7093,-2.6937,-2.6573,-2.6805,-2.6406,-2.4956,-2.5119,-2.4658,-2.3154,-2.4486,-2.4604,-2.3154,-2.4186,-2.4733,-2.466,-2.4722,-2.4722,-2.466,-2.3594,-2.3091,-2.3091,-2.312,-2.3907,-2.5228,-2.3779,-2.3961,-2.5163,-2.3696,-2.3091,-2.3091,-2.3091,-2.3091,-2.3091,-2.3091,-2.3091,-2.3091,-3.4338,-3.4336,-3.4402,-3.5113,-3.5098,-3.478,-3.426,-3.4177,-3.4021,-3.3501,-3.3057,-3.2793,-3.2793,-3.2705,-3.2725,-3.293,-3.2939,-3.2627,-3.1875,-3.2031,-3.1826,-3.1074,-3.0947,-3.0889,-3.0889,-3.2369,-3.2855,-3.2411,-3.0028,-2.9141,-2.9551,-2.8691,-2.834,-2.8437,-2.834,-2.8115,-2.7812,-2.7812,-2.7812,-2.7773,-2.7344,-2.7617,-2.8252,-2.7822,-2.793,-2.8291,-2.8291,-2.8232,-2.8144,-2.8144,-2.7861,-2.7441,-2.7002,-2.665,-2.6348,-2.6191,-2.6149,-2.6197,-2.6524,-2.7305,-2.8049,-2.8049,-2.8727,-2.9085,-2.7861,-2.7814,-2.7579,-2.6014,-2.5693,-2.5693,-2.5693,-2.5965,-2.6149,-2.6149,-2.6137,-2.5969,-2.5523,-2.5774,-2.5828,-2.5434,-2.6416,-2.7059,-2.6948,-2.6238,-2.5666,-2.53,-2.4581,-2.3851,-2.3164,-2.3811,-2.3841,-2.311,-2.4029,-2.4182,-2.3517,-2.4163,-2.4163,-2.3507,-2.3222,-2.3091,-2.311,-2.3486,-2.3816,-2.4173,-2.3806,-2.3826,-2.4098,-2.3399,-2.3091,-2.3091,-2.3091,-2.3091,-2.3091,-2.3091,-2.3091,-2.3091,-3.373,-3.3584,-3.3496,-3.374,-3.3584,-3.3418,-3.3418,-3.3418,-3.3418,-3.3418,-3.3057,-3.2793,-3.2793,-3.2627,-3.2588,-3.2773,-3.2969,-3.2803,-3.2148,-3.2139,-3.1875,-3.1201,-3.0996,-3.0889,-3.0889,-3.2369,-3.3077,-3.3077,-3.1349,-3.0378,-3.0146,-2.9082,-2.8682,-2.8857,-2.8467,-2.8164,-2.7949,-2.7949,-2.7949,-2.792,-2.749,-2.7705,-2.8252,-2.7822,-2.793,-2.8291,-2.8291,-2.8291,-2.8291,-2.8291,-2.8135,-2.7881,-2.7451,-2.7021,-2.6592,-2.6162,-2.5889,-2.5693,-2.5693,-2.6197,-2.6706,-2.6706,-2.7673,-2.8272,-2.703,-2.7173,-2.722,-2.5965,-2.5693,-2.5693,-2.5693,-2.5693,-2.5625,-2.5469,-2.5225,-2.4891,-2.4219,-2.4456,-2.4524,-2.4057,-2.5091,-2.5809,-2.5598,-2.5399,-2.5087,-2.4716,-2.4316,-2.3887,-2.3457,-2.3848,-2.3789,-2.311,-2.3779,-2.3809,-2.3101,-2.3549,-2.3549,-2.3091,-2.3091,-2.3198,-2.3447,-2.3682,-2.3896,-2.4072,-2.4072,-2.3965,-2.3769,-2.3535,-2.3276,-2.3091,-2.3091,-2.3091,-2.3091,-2.3091,-2.3218,-2.3408,-3.3418,-3.3418,-3.3418,-3.3418,-3.3418,-3.3418,-3.3418,-3.3418,-3.3418,-3.3418,-3.3057,-3.2793,-3.2793,-3.248,-3.2412,-3.2764,-3.3174,-3.3242,-3.2822,-3.2402,-3.1973,-3.1533,-3.1113,-3.0889,-3.0889,-3.215,-3.2861,-3.3077,-3.2382,-3.1604,-3.0762,-2.9502,-2.9111,-2.9434,-2.8643,-2.8291,-2.8291,-2.8291,-2.8291,-2.8262,-2.791,-2.7978,-2.8252,-2.7891,-2.7978,-2.8291,-2.8291,-2.8291,-2.8291,-2.8291,-2.8252,-2.8135,-2.7836,-2.7363,-2.6934,-2.6514,-2.6133,-2.5771,-2.5703,-2.5693,-2.5693,-2.5693,-2.6524,-2.703,-2.5965,-2.6524,-2.6993,-2.5927,-2.5693,-2.5693,-2.5693,-2.5693,-2.5567,-2.5234,-2.5059,-2.4717,-2.3984,-2.3769,-2.3555,-2.314,-2.3851,-2.4277,-2.3916,-2.4541,-2.4715,-2.3935,-2.4092,-2.4092,-2.3809,-2.4121,-2.4014,-2.3305,-2.376,-2.3769,-2.3296,-2.3159,-2.3091,-2.3091,-2.3091,-2.3369,-2.3789,-2.3857,-2.4121,-2.4521,-2.4521,-2.4277,-2.3887,-2.3818,-2.3535,-2.3091,-2.3091,-2.3091,-2.3101,-2.3169,-2.3467,-2.374,-3.3418,-3.3418,-3.3418,-3.3418,-3.3418,-3.3418,-3.3418,-3.3418,-3.3418,-3.3418,-3.3057,-3.2793,-3.2793,-3.2734,-3.2725,-3.2793,-3.3174,-3.3242,-3.2822,-3.2402,-3.1973,-3.1533,-3.1113,-3.0889,-3.0889,-3.1112,-3.1883,-3.3077,-3.1398,-3.0453,-3.0283,-2.9355,-2.8955,-2.8994,-2.8506,-2.8291,-2.8291,-2.8291,-2.8291,-2.8281,-2.8223,-2.8232,-2.8281,-2.8223,-2.8232,-2.8291,-2.8291,-2.8291,-2.8291,-2.8291,-2.8057,-2.7806,-2.7738,-2.7363,-2.6934,-2.6514,-2.6338,-2.6201,-2.5791,-2.5693,-2.5693,-2.5693,-2.583,-2.5917,-2.5732,-2.583,-2.5927,-2.5732,-2.5693,-2.5693,-2.5693,-2.5693,-2.5664,-2.5644,-2.501,-2.4473,-2.4336,-2.3656,-2.3169,-2.3101,-2.3851,-2.4394,-2.4326,-2.4443,-2.4463,-2.4336,-2.3666,-2.3467,-2.3769,-2.3857,-2.3984,-2.4209,-2.4639,-2.4658,-2.4173,-2.3452,-2.3091,-2.3091,-2.3091,-2.3369,-2.3799,-2.416,-2.456,-2.4971,-2.4971,-2.4717,-2.4287,-2.3935,-2.3535,-2.3091,-2.3091,-2.3091,-2.314,-2.3555,-2.373,-2.3779,-3.3495,-3.3418,-3.3418,-3.3418,-3.3418,-3.3418,-3.3418,-3.3418,-3.3418,-3.3418,-3.3252,-3.3135,-3.3135,-3.3135,-3.3135,-3.3135,-3.331,-3.334,-3.3144,-3.2744,-3.2217,-3.1543,-3.1328,-3.1123,-3.0898,-3.1652,-3.2045,-3.193,-3.1822,-3.1388,-3.0557,-2.9912,-2.9482,-2.9248,-2.8818,-2.8506,-2.8291,-2.8291,-2.8291,-2.8291,-2.8291,-2.8291,-2.8291,-2.8291,-2.8291,-2.8291,-2.8291,-2.8291,-2.8291,-2.8291,-2.8164,-2.7998,-2.7998,-2.7715,-2.7334,-2.7129,-2.6582,-2.5996,-2.5742,-2.5693,-2.5693,-2.5693,-2.5693,-2.5693,-2.5693,-2.5693,-2.5693,-2.5693,-2.5693,-2.5693,-2.5693,-2.5693,-2.5615,-2.541,-2.4834,-2.4336,-2.4111,-2.3491,-2.3091,-2.3091,-2.3691,-2.4082,-2.4082,-2.4287,-2.4414,-2.4414,-2.4053,-2.4023,-2.4463,-2.4519,-2.457,-2.4756,-2.4736,-2.4619,-2.4414,-2.3799,-2.3369,-2.3091,-2.3379,-2.3711,-2.4141,-2.457,-2.4883,-2.5125,-2.5322,-2.5039,-2.4414,-2.4463,-2.4092,-2.3486,-2.3486,-2.3486,-2.3516,-2.3711,-2.4082,-2.4443,-3.3582,-3.3418,-3.3418,-3.3418,-3.3418,-3.3418,-3.3418,-3.3418,-3.3418,-3.3418,-3.3418,-3.3418,-3.3418,-3.3418,-3.3418,-3.3418,-3.3418,-3.3418,-3.3418,-3.3115,-3.2559,-3.1709,-3.1484,-3.1221,-3.0898,-3.1988,-3.2045,-3.0889,-3.2045,-3.1988,-3.0879,-3.042,-2.9971,-2.9551,-2.9111,-2.8682,-2.8291,-2.8291,-2.8291,-2.8291,-2.8291,-2.8291,-2.8291,-2.8291,-2.8291,-2.8291,-2.8291,-2.8291,-2.8291,-2.8291,-2.8291,-2.8291,-2.8291,-2.8066,-2.7845,-2.7748,-2.6894,-2.5966,-2.5869,-2.5762,-2.5693,-2.5693,-2.5693,-2.5693,-2.5693,-2.5693,-2.5693,-2.5693,-2.5693,-2.5693,-2.5693,-2.5693,-2.5577,-2.5283,-2.4766,-2.4336,-2.4121,-2.3633,-2.3286,-2.3383,-2.373,-2.3935,-2.3935,-2.4228,-2.4414,-2.4414,-2.4414,-2.4609,-2.5086,-2.5116,-2.5117,-2.5215,-2.4697,-2.4463,-2.456,-2.415,-2.3721,-2.3247,-2.373,-2.4102,-2.4434,-2.4863,-2.5174,-2.5244,-2.5586,-2.5293,-2.459,-2.4932,-2.4619,-2.3935,-2.3935,-2.3935,-2.3945,-2.4053,-2.4548,-2.5067,-3.3582,-3.3418,-3.3418,-3.3418,-3.3418,-3.3418,-3.3418,-3.3418,-3.3418,-3.3418,-3.3418,-3.3418,-3.3418,-3.3418,-3.3418,-3.3418,-3.3418,-3.3418,-3.3418,-3.3389,-3.2998,-3.2158,-3.1357,-3.0928,-3.0889,-3.1005,-3.1005,-3.0889,-3.1005,-3.1005,-3.0879,-3.042,-2.9971,-2.9551,-2.9111,-2.8682,-2.8291,-2.8291,-2.8291,-2.8291,-2.8291,-2.8291,-2.8291,-2.8291,-2.8291,-2.8291,-2.8291,-2.8291,-2.8291,-2.8291,-2.8291,-2.8291,-2.8291,-2.8271,-2.8164,-2.7836,-2.7314,-2.6836,-2.6445,-2.6045,-2.5693,-2.5693,-2.5693,-2.5693,-2.5693,-2.5693,-2.5693,-2.5693,-2.5693,-2.5693,-2.5693,-2.5693,-2.5674,-2.5645,-2.4923,-2.4551,-2.4969,-2.4258,-2.3887,-2.4277,-2.4355,-2.4375,-2.4375,-2.4394,-2.4414,-2.4414,-2.4414,-2.4609,-2.5086,-2.5116,-2.5254,-2.5625,-2.4863,-2.4609,-2.5057,-2.459,-2.416,-2.375,-2.417,-2.4385,-2.4434,-2.4863,-2.5293,-2.5635,-2.5674,-2.5459,-2.5067,-2.5106,-2.4795,-2.4375,-2.4375,-2.4375,-2.4414,-2.4824,-2.5057,-2.5106,-3.4553,-3.3629,-3.3115,-3.3379,-3.3418,-3.3418,-3.3418,-3.3418,-3.3418,-3.3418,-3.3418,-3.3418,-3.3418,-3.3418,-3.3418,-3.3418,-3.3418,-3.3418,-3.3418,-3.293,-3.25,-3.2178,-3.1348,-3.0889,-3.0889,-3.0889,-3.0889,-3.0889,-3.0889,-3.0889,-3.0889,-3.0713,-3.0244,-2.956,-2.9394,-2.8935,-2.8291,-2.8291,-2.8291,-2.8291,-2.8291,-2.8291,-2.8291,-2.8291,-2.8291,-2.8291,-2.8291,-2.8291,-2.8291,-2.8291,-2.8291,-2.8291,-2.8291,-2.8291,-2.8262,-2.8096,-2.7754,-2.7324,-2.6894,-2.6465,-2.6074,-2.5752,-2.5693,-2.5693,-2.5693,-2.5693,-2.5693,-2.5693,-2.5693,-2.5693,-2.5693,-2.5693,-2.5693,-2.5693,-2.5225,-2.4883,-2.5086,-2.4551,-2.4238,-2.4394,-2.4414,-2.4414,-2.4414,-2.4414,-2.4531,-2.4805,-2.4814,-2.501,-2.5459,-2.5478,-2.5557,-2.5684,-2.5362,-2.5176,-2.5116,-2.4902,-2.46,-2.418,-2.4619,-2.4814,-2.4834,-2.5283,-2.5576,-2.5693,-2.5693,-2.5596,-2.5478,-2.5478,-2.5225,-2.4814,-2.4814,-2.4814,-2.4805,-2.4697,-2.501,-2.5439,-3.5097,-3.38,-3.293,-3.335,-3.331,-3.3271,-3.3398,-3.331,-3.3271,-3.3408,-3.3418,-3.3418,-3.3418,-3.3418,-3.3418,-3.3418,-3.3418,-3.3369,-3.3232,-3.2432,-3.1904,-3.1777,-3.1201,-3.0889,-3.0889,-3.0889,-3.0889,-3.0889,-3.0889,-3.0889,-3.0889,-3.0889,-3.0488,-2.9766,-2.9766,-2.9287,-2.8496,-2.8496,-2.8418,-2.8291,-2.8291,-2.8291,-2.8291,-2.8291,-2.8291,-2.8291,-2.8291,-2.8291,-2.8291,-2.8291,-2.8291,-2.8291,-2.8291,-2.8291,-2.8291,-2.8291,-2.8086,-2.7734,-2.7168,-2.6807,-2.6445,-2.583,-2.5693,-2.5693,-2.5693,-2.5693,-2.5693,-2.5693,-2.5693,-2.5693,-2.5693,-2.5693,-2.5693,-2.5693,-2.5361,-2.5117,-2.5254,-2.4893,-2.4678,-2.4814,-2.4707,-2.4619,-2.4619,-2.4619,-2.4746,-2.5096,-2.5195,-2.541,-2.5674,-2.5693,-2.5693,-2.5693,-2.5693,-2.5596,-2.5283,-2.5283,-2.5059,-2.4629,-2.5068,-2.5205,-2.5135,-2.5527,-2.5693,-2.5693,-2.5693,-2.5693,-2.5693,-2.5693,-2.5557,-2.5283,-2.5283,-2.5283,-2.5244,-2.4941,-2.5167,-2.5645,-3.5146,-3.379,-3.292,-3.334,-3.3076,-3.2939,-3.335,-3.3066,-3.2949,-3.3369,-3.3418,-3.3418,-3.3418,-3.3418,-3.3418,-3.3418,-3.3418,-3.3242,-3.2822,-3.1992,-3.1328,-3.0908,-3.0889,-3.0889,-3.0889,-3.0889,-3.0889,-3.0889,-3.0889,-3.0889,-3.0889,-3.0889,-3.0644,-3.0195,-3.0195,-2.9717,-2.8916,-2.8916,-2.8672,-2.8291,-2.8291,-2.8291,-2.8291,-2.8291,-2.8291,-2.8291,-2.8291,-2.8291,-2.8291,-2.8291,-2.8291,-2.8291,-2.8291,-2.8291,-2.8291,-2.8291,-2.8291,-2.8105,-2.7256,-2.7021,-2.6816,-2.5908,-2.5693,-2.5693,-2.5693,-2.5693,-2.5693,-2.5693,-2.5693,-2.5693,-2.5693,-2.5693,-2.5693,-2.5693,-2.5361,-2.5225,-2.5625,-2.5352,-2.5244,-2.5635,-2.5352,-2.5116,-2.5116,-2.5116,-2.5116,-2.5116,-2.5488,-2.5693,-2.5693,-2.5693,-2.5693,-2.5693,-2.5693,-2.5693,-2.5693,-2.5693,-2.5518,-2.5125,-2.5527,-2.5508,-2.5135,-2.5537,-2.5693,-2.5693,-2.5693,-2.5693,-2.5693,-2.5693,-2.5693,-2.5693,-2.5693,-2.5693,-2.5693,-2.5684,-2.5684,-2.5693,-3.6272,-3.4948,-3.37,-3.3087,-3.3115,-3.3174,-3.3008,-3.3125,-3.3281,-3.3408,-3.3418,-3.3418,-3.3418,-3.3418,-3.3418,-3.3418,-3.3418,-3.3115,-3.2402,-3.1826,-3.1328,-3.0908,-3.0889,-3.0889,-3.0889,-3.0889,-3.0889,-3.0889,-3.0889,-3.0889,-3.0889,-3.0889,-3.0644,-3.0195,-3.0195,-2.9717,-2.8916,-2.8916,-2.8672,-2.8291,-2.8291,-2.8291,-2.8291,-2.8291,-2.8291,-2.8291,-2.8291,-2.8291,-2.8291,-2.8291,-2.8291,-2.8291,-2.8291,-2.8291,-2.8291,-2.8291,-2.8291,-2.8174,-2.7617,-2.7471,-2.7187,-2.5976,-2.5693,-2.5693,-2.5693,-2.5693,-2.5693,-2.5693,-2.5693,-2.5693,-2.5693,-2.5693,-2.5693,-2.5693,-2.5577,-2.5538,-2.5674,-2.5625,-2.5586,-2.5674,-2.5567,-2.5537,-2.5537,-2.5537,-2.5537,-2.5537,-2.5615,-2.5693,-2.5693,-2.5693,-2.5693,-2.5693,-2.5693,-2.5693,-2.5693,-2.5693,-2.5625,-2.5537,-2.5625,-2.5615,-2.5547,-2.5625,-2.5693,-2.5693,-2.5693,-2.5693,-2.5693,-2.5693,-2.5693,-2.5693,-2.5693,-2.5693,-2.5654,-2.5381,-2.5469,-2.5645,-3.624,-3.4843,-3.3386,-3.29,-3.3008,-3.3144,-3.3057,-3.3115,-3.3232,-3.3398,-3.3418,-3.3418,-3.3418,-3.3418,-3.3418,-3.3418,-3.3115,-3.2783,-3.2441,-3.1699,-3.123,-3.1143,-3.0976,-3.0889,-3.0889,-3.0889,-3.0889,-3.0889,-3.0889,-3.0889,-3.0889,-3.0889,-3.0742,-3.0469,-3.0469,-2.999,-2.918,-2.918,-2.8838,-2.8291,-2.8291,-2.8291,-2.8291,-2.8291,-2.8291,-2.8291,-2.8291,-2.8291,-2.8291,-2.8291,-2.8291,-2.8291,-2.8291,-2.8291,-2.8291,-2.8291,-2.8291,-2.8203,-2.7836,-2.7718,-2.7441,-2.6484,-2.6064,-2.5947,-2.5732,-2.5693,-2.5693,-2.5693,-2.5693,-2.5693,-2.5693,-2.5693,-2.5693,-2.5693,-2.5693,-2.5693,-2.5693,-2.5693,-2.5752,-2.5977,-2.5996,-2.5996,-2.5996,-2.6093,-2.6191,-2.6191,-2.6191,-2.6122,-2.6006,-2.5996,-2.5869,-2.5693,-2.5693,-2.5693,-2.5693,-2.5693,-2.5693,-2.5693,-2.5693,-2.5693,-2.5693,-2.5693,-2.5693,-2.5693,-2.5693,-2.5693,-2.5693,-2.5693,-2.5693,-2.5693,-2.5693,-2.5693,-2.5654,-2.543,-2.5508,-2.5654,-3.541,-3.3955,-3.2507,-3.2737,-3.2803,-3.2969,-3.331,-3.3076,-3.2988,-3.3369,-3.3418,-3.3418,-3.3418,-3.3418,-3.3418,-3.3418,-3.2656,-3.2334,-3.2715,-3.1582,-3.1064,-3.1445,-3.1094,-3.0889,-3.0889,-3.0889,-3.0889,-3.0889,-3.0889,-3.0889,-3.0889,-3.0889,-3.0889,-3.0889,-3.0889,-3.04,-2.9626,-2.9626,-2.9082,-2.8291,-2.8291,-2.831,-2.834,-2.831,-2.831,-2.834,-2.8301,-2.8291,-2.8291,-2.8291,-2.8291,-2.8291,-2.8291,-2.8291,-2.8291,-2.8291,-2.8291,-2.8203,-2.7822,-2.7777,-2.7617,-2.7178,-2.6787,-2.6387,-2.5898,-2.5771,-2.5742,-2.5742,-2.5713,-2.5693,-2.5693,-2.5693,-2.5693,-2.5693,-2.5693,-2.5703,-2.5742,-2.5742,-2.5908,-2.6396,-2.6445,-2.6445,-2.6445,-2.6787,-2.7012,-2.7012,-2.7012,-2.6836,-2.6406,-2.6387,-2.6182,-2.5703,-2.5693,-2.5693,-2.5693,-2.5693,-2.5693,-2.5693,-2.5693,-2.5703,-2.5742,-2.5703,-2.5713,-2.5742,-2.5703,-2.5693,-2.5693,-2.5693,-2.5693,-2.5693,-2.5693,-2.5693,-2.5693,-2.5693,-2.5693,-2.5693,-3.435,-3.4313,-3.3932,-3.2578,-3.2842,-3.3203,-3.2969,-3.3135,-3.332,-3.3408,-3.3418,-3.3418,-3.3418,-3.3418,-3.3418,-3.3418,-3.2656,-3.2268,-3.2295,-3.1416,-3.0928,-3.1025,-3.0947,-3.0889,-3.0889,-3.0889,-3.0889,-3.0889,-3.0889,-3.0889,-3.0889,-3.0889,-3.0889,-3.0889,-3.0889,-3.04,-2.9626,-2.9626,-2.9082,-2.8291,-2.8291,-2.8496,-2.875,-2.8418,-2.8496,-2.874,-2.8408,-2.8291,-2.8291,-2.8291,-2.8291,-2.8291,-2.8291,-2.8291,-2.8291,-2.8291,-2.8291,-2.8271,-2.8174,-2.8154,-2.8057,-2.7637,-2.7451,-2.7275,-2.6836,-2.6484,-2.625,-2.625,-2.5977,-2.5693,-2.5693,-2.5693,-2.5693,-2.5693,-2.5693,-2.581,-2.6201,-2.625,-2.6406,-2.6826,-2.6875,-2.6875,-2.6875,-2.6963,-2.7012,-2.7012,-2.7012,-2.6836,-2.6406,-2.6387,-2.6182,-2.5703,-2.5693,-2.5693,-2.5693,-2.5693,-2.5693,-2.5693,-2.5693,-2.5869,-2.624,-2.5889,-2.5879,-2.623,-2.584,-2.5693,-2.5693,-2.5693,-2.5693,-2.5693,-2.5693,-2.5693,-2.5693,-2.5693,-2.5693,-2.5693,-3.4715,-3.4219,-3.3367,-3.2389,-3.2695,-3.3115,-3.3096,-3.3281,-3.3418,-3.3418,-3.3418,-3.3418,-3.3418,-3.3418,-3.3418,-3.3418,-3.2656,-3.2256,-3.2451,-3.1475,-3.0986,-3.1182,-3.0996,-3.0889,-3.0889,-3.0889,-3.0889,-3.0889,-3.0889,-3.0889,-3.0889,-3.0889,-3.0889,-3.0889,-3.0889,-3.04,-2.9626,-2.9626,-2.9189,-2.8594,-2.8594,-2.8848,-2.918,-2.876,-2.873,-2.8867,-2.8437,-2.8291,-2.8291,-2.8291,-2.8291,-2.8291,-2.8291,-2.8291,-2.8291,-2.8291,-2.8291,-2.8291,-2.8291,-2.8291,-2.8242,-2.8018,-2.7969,-2.7793,-2.7158,-2.6846,-2.6689,-2.6689,-2.6504,-2.6298,-2.6298,-2.6298,-2.6298,-2.6298,-2.6298,-2.6426,-2.665,-2.6689,-2.6846,-2.7275,-2.7324,-2.7402,-2.7607,-2.6779,-2.6636,-2.7555,-2.7627,-2.7441,-2.7021,-2.7002,-2.6797,-2.6357,-2.6298,-2.6298,-2.6298,-2.6298,-2.6298,-2.6298,-2.6143,-2.6172,-2.6387,-2.6357,-2.6367,-2.6387,-2.6357,-2.6064,-2.5703,-2.5967,-2.5879,-2.5693,-2.5693,-2.5693,-2.5693,-2.5693,-2.5693,-2.5693,-3.4804,-3.3641,-3.2229,-3.2229,-3.2519,-3.2939,-3.3359,-3.3418,-3.3418,-3.3418,-3.3418,-3.3418,-3.3418,-3.3418,-3.3418,-3.3418,-3.2725,-3.2422,-3.2773,-3.1738,-3.1269,-3.1611,-3.1221,-3.0996,-3.0996,-3.0928,-3.0889,-3.0889,-3.0889,-3.0889,-3.0889,-3.0889,-3.0889,-3.0889,-3.0889,-3.0439,-2.9678,-2.9678,-2.9385,-2.8916,-2.8916,-2.918,-2.9521,-2.9082,-2.8965,-2.8984,-2.8633,-2.8457,-2.8398,-2.8398,-2.835,-2.8301,-2.8379,-2.835,-2.8301,-2.8379,-2.835,-2.8291,-2.8291,-2.8291,-2.8291,-2.8291,-2.8291,-2.8105,-2.7393,-2.7178,-2.7129,-2.7129,-2.707,-2.7012,-2.7012,-2.7012,-2.7012,-2.7012,-2.7012,-2.7041,-2.7119,-2.7129,-2.7285,-2.7777,-2.7606,-2.7574,-2.7868,-2.6241,-2.6016,-2.8155,-2.8067,-2.7883,-2.7695,-2.7718,-2.7461,-2.7021,-2.7012,-2.7012,-2.7012,-2.7012,-2.7012,-2.7012,-2.6738,-2.6611,-2.6611,-2.6894,-2.6826,-2.6514,-2.6787,-2.6465,-2.5713,-2.6133,-2.6064,-2.5693,-2.5693,-2.5693,-2.5693,-2.5693,-2.5693,-2.5693,-3.2098,-3.2156,-3.2229,-3.2229,-3.2519,-3.2939,-3.3359,-3.3418,-3.3418,-3.3418,-3.3418,-3.3418,-3.3418,-3.3418,-3.3418,-3.3418,-3.2978,-3.2734,-3.2793,-3.2295,-3.2021,-3.208,-3.166,-3.1435,-3.1435,-3.1074,-3.0889,-3.0889,-3.0889,-3.0889,-3.0889,-3.0889,-3.0889,-3.0889,-3.0889,-3.0605,-3.0107,-3.0107,-2.9648,-2.8916,-2.8916,-2.918,-2.9521,-2.9082,-2.915,-2.9473,-2.9414,-2.915,-2.8838,-2.8838,-2.8594,-2.8359,-2.8721,-2.8584,-2.8369,-2.873,-2.8574,-2.8291,-2.8291,-2.8291,-2.8291,-2.8291,-2.8291,-2.8262,-2.8144,-2.7842,-2.763,-2.763,-2.7275,-2.7012,-2.7012,-2.7012,-2.7012,-2.7012,-2.7012,-2.7148,-2.7529,-2.763,-2.7787,-2.8154,-2.7084,-2.6327,-2.6372,-2.4942,-2.5217,-2.8067,-2.7114,-2.6766,-2.7633,-2.7718,-2.7461,-2.7021,-2.7012,-2.7012,-2.7012,-2.7012,-2.7012,-2.7021,-2.7344,-2.7542,-2.7532,-2.7168,-2.6982,-2.6914,-2.6602,-2.6191,-2.5693,-2.5752,-2.5742,-2.5693,-2.5693,-2.5693,-2.5693,-2.5693,-2.5693,-2.5693,-3.2842,-3.2296,-3.1885,-3.2129,-3.2324,-3.2666,-3.332,-3.3418,-3.3418,-3.3418,-3.3418,-3.3418,-3.3418,-3.3418,-3.333,-3.3086,-3.29,-3.2793,-3.2793,-3.2402,-3.2275,-3.251,-3.1875,-3.1514,-3.1514,-3.1103,-3.0889,-3.0889,-3.0889,-3.0889,-3.0889,-3.0889,-3.0889,-3.0889,-3.0889,-3.0635,-3.0195,-3.0195,-2.998,-2.9639,-2.9639,-2.9902,-3.0234,-2.9551,-2.9551,-2.9893,-2.9658,-2.9443,-2.9277,-2.9277,-2.916,-2.8994,-2.8935,-2.8955,-2.8945,-2.8652,-2.8603,-2.8594,-2.8359,-2.8291,-2.8291,-2.8291,-2.8291,-2.8291,-2.8291,-2.8144,-2.8018,-2.8018,-2.7861,-2.7734,-2.7734,-2.7734,-2.7734,-2.7734,-2.7734,-2.7793,-2.7988,-2.8018,-2.7801,-2.7149,-2.5717,-2.482,-2.482,-2.3431,-2.3813,-2.6825,-2.649,-2.6697,-2.7974,-2.8018,-2.793,-2.7734,-2.7734,-2.7734,-2.7734,-2.7734,-2.7734,-2.7734,-2.793,-2.7891,-2.7718,-2.7715,-2.7598,-2.7373,-2.7178,-2.6719,-2.6103,-2.6103,-2.5957,-2.5693,-2.5693,-2.5693,-2.5693,-2.5693,-2.5693,-2.5693]},{"header":{"parameterUnit":"m.s-1","parameterCategory":1,"la1":30.6,"la2":28.766,"lo1":-90.7593,"lo2":-88.6598,"dy":0.0162,"dx":0.0183,"nx":116,"ny":114,"refTime":"2023-05-09T12:00:00:Z","depth":0,"parameterNumber":3,"parameterNumberName":"V-component_of_WINDS"},"data":[0.0,0.0,0.0,0.0,0.0,0.0,0.0,0.0,0.0,0.0,0.0,0.0,0.0,0.0,0.0,0.0,0.0,0.0,0.0,0.0,0.0,0.0,0.0,0.0,0.0,0.0,0.0,0.0,0.0,0.0,0.0,0.0,0.0,0.0,0.0,0.0,0.0,0.0,0.0,0.0,0.0,0.0,0.0,0.0,0.0,0.0,0.0,0.0,0.0,0.0,0.0,0.0,0.0,0.0,0.0,0.0,0.0,0.0,0.0,0.0,0.0,0.0,0.0,0.0,0.0,0.0,0.0,0.0,0.0,0.0,0.0,0.0,0.0,0.0,0.0,0.0,0.0,0.0,0.0,0.0,0.0,0.0,0.0,0.0,0.0,0.0,0.0,0.0,0.0,0.0,0.0,0.0,0.0,0.0,0.0,0.0,0.0,0.0,0.0,0.0,0.0,0.0,0.0,0.0,0.0,0.0,0.0,0.0,0.0,0.0,0.0,0.0,0.0,0.0,0.0,0.0,0.0,0.0,0.0,0.0,0.0,0.0,0.0,0.0,0.0,0.0,0.0,0.0,0.0,0.0,0.0,0.0,0.0,0.0,0.0,0.0,0.0,0.0,0.0,0.0,0.0,0.0,0.0,0.0,0.0,0.0,0.0,0.0,0.0,0.0,0.0,0.0,0.0,0.0,0.0,0.0,0.0,0.0,0.0,0.0,0.0,0.0,0.0,0.0,0.0,0.0,0.0,0.0,0.0,0.0,0.0,0.0,0.0,0.0,0.0,0.0,0.0,0.0,0.0,0.0,0.0,0.0,0.0,0.0,0.0,0.0,0.0,0.0,0.0,0.0,0.0,0.0,0.0,0.0,0.0,0.0,0.0,0.0,0.0,0.0,0.0,0.0,0.0,0.0,0.0,0.0,0.0,0.0,0.0,0.0,0.0,0.0,0.0,0.0,0.0,0.0,0.0,0.0,0.0,0.0,0.0,0.0,0.0,0.0,0.0,0.0,0.0,0.0,0.0,0.0,0.0,0.0,0.0,0.0,0.0,0.0,0.0,0.0,0.0,0.0,0.0,0.0,0.0,0.0,0.0,0.0,0.0,0.0,0.0,0.0,0.0,0.0,0.0,0.0,0.0,0.0,0.0,0.0,0.0,0.0,0.0,0.0,0.0,0.0,0.0,0.0,0.0,0.0,0.0,0.0,0.0,0.0,0.0,0.0,0.0,0.0,0.0,0.0,0.0,0.0,0.0,0.0,0.0,0.0,0.0,0.0,0.0,0.0,0.0,0.0,0.0,0.0,0.0,0.0,0.0,0.0,0.0,0.0,0.0,0.0,0.0,0.0,0.0,0.0,0.0,0.0,0.0,0.0,0.0,0.0,0.0,0.0,0.0,0.0,0.0,0.0,0.0,0.0,0.0,0.0,0.0,0.0,0.0,0.0,0.0,0.0,0.0,0.0,0.0,0.0,0.0,0.0,0.0,0.0,0.0,0.0,0.0,0.0,0.0,0.0,0.0,0.0,0.0,0.0,0.0,0.0,0.0,0.0,0.0,0.0,0.0,0.0,0.0,0.0,0.0,0.0,0.0,0.0,0.0,0.0,0.0,0.0,0.0,0.0,0.0,0.0,0.0,0.0,0.0,0.0,0.0,0.0,0.0,0.0,0.0,0.0,0.0,0.0,0.0,0.0,0.0,0.0,0.0,0.0,0.0,0.0,0.0,0.0,0.0,0.0,0.0,0.0,0.0,0.0,0.0,0.0,0.0,0.0,0.0,0.0,0.0,0.0,0.0,0.0,0.0,0.0,0.0,0.0,0.0,0.0,0.0,0.0,0.0,0.0,0.0,0.0,0.0,0.0,0.0,0.0,0.0,0.0,0.0,0.0,0.0,0.0,0.0,0.0,0.0,0.0,0.0,0.0,0.0,0.0,0.0,0.0,0.0,0.0,0.0,0.0,0.0,0.0,0.0,0.0,0.0,0.0,0.0,0.0,0.0,0.0,0.0,0.0,0.0,0.0,0.0,0.0,0.0,0.0,0.0,0.0,0.0,0.0,0.0,0.0,0.0,0.0,0.0,0.0,0.0,0.0,0.0,0.0,0.0,0.0,0.0,0.0,0.0,0.0,0.0,0.0,0.0,0.0,0.0,0.0,0.0,0.0,0.0,0.0,0.0,0.0,0.0,0.0,0.0,0.0,0.0,0.0,0.0,0.0,0.0,0.0,0.0,0.0,0.0,0.0,0.0,0.0,0.0,0.0,0.0,0.0,0.0,0.0,0.0,0.0,0.0,0.0,0.0,0.0,0.0,0.0,0.0,0.0,0.0,0.0,0.0,0.0,0.0,0.0,0.0,0.0,0.0,0.0,0.0,0.0,0.0,0.0,0.0,0.0,0.0,0.0,0.0,0.0,0.0,0.0,0.0,0.0,0.0,0.0,0.0,0.0,0.0,0.0,0.0,0.0,0.0,0.0,0.0,0.0,0.0,0.0,0.0,0.0,0.0,0.0,0.0,0.0,0.0,0.0,0.0,0.0,0.0,0.0,0.0,0.0,0.0,0.0,0.0,0.0,0.0,0.0,0.0,0.0,0.0,0.0,0.0,0.0,0.0,0.0,0.0,0.0,0.0,0.0,0.0,0.0,0.0,0.0,0.0,0.0,0.0,0.0,0.0,0.0,0.0,0.0,0.0,0.0,0.0,0.0,0.0,0.0,0.0,0.0,0.0,0.0,0.0,0.0,0.0,0.0,0.0,0.0,0.0,0.0,0.0,0.0,0.0,0.0,0.0,0.0,0.0,0.0,0.0,0.0,0.0,0.0,0.0,0.0,0.0,0.0,0.0,0.0,0.0,0.0,0.0,0.0,0.0,0.0,0.0,0.0,0.0,0.0,0.0,0.0,0.0,0.0,0.0,0.0,0.0,0.0,0.0,0.0,0.0,0.0,0.0,0.0,0.0,0.0,0.0,0.0,0.0,0.0,0.0,0.0,0.0,0.0,0.0,0.0,0.0,0.0,0.0,0.0,0.0,0.0,0.0,0.0,0.0,0.0,0.0,0.0,0.0,0.0,0.0,0.0,0.0,0.0,0.0,0.0,0.0,0.0,0.0,0.0,0.0,0.0,0.0,0.0,0.0,0.0,0.0,0.0,0.0,0.0,0.0,0.0,0.0,0.0,0.0,0.0,0.0,0.0,0.0,0.0,0.0,0.0,0.0,0.0,0.0,0.0,0.0,0.0,0.0,0.0,0.0,0.0,0.0,0.0,0.0,0.0,0.0,0.0,0.0,0.0,0.0,0.0,0.0,0.0,0.0,0.0,0.0,0.0,0.0,0.0,0.0,0.0,0.0,0.0,0.0,0.0,0.0,0.0,0.0,0.0,0.0,0.0,0.0,0.0,0.0,0.0,0.0,0.0,0.0,0.0,0.0,0.0,0.0,0.0,0.0,0.0,0.0,0.0,0.0,0.0,0.0,0.0,0.0,0.0,0.0,0.0,0.0,0.0,0.0,0.0,0.0,0.0,0.0,0.0,0.0,0.0,0.0,0.0,0.0,0.0,0.0,0.0,0.0,0.0,0.0,0.0,0.0,0.0,0.0,0.0,0.0,0.0,0.0,0.0,0.0,0.0,0.0,0.0,0.0,0.0,0.0,0.0,0.0,0.0,0.0,0.0,0.0,0.0,0.0,0.0,0.0,0.0,0.0,0.0,0.0,0.0,0.0,0.0,0.0,0.0,0.0,0.0,0.0,0.0,0.0,0.0,0.0,0.0,0.0,0.0,0.0,0.0,0.0,0.0,0.0,0.0,0.0,0.0,0.0,0.0,0.0,0.0,0.0,0.0,0.0,0.0,0.0,0.0,0.0,0.0,0.0,0.0,0.0,0.0,0.0,0.0,0.0,0.0,0.0,0.0,0.0,0.0,0.0,0.0,0.0,0.0,0.0,0.0,0.0,0.0,0.0,0.0,0.0,0.0,0.0,0.0,0.0,0.0,0.0,0.0,0.0,0.0,0.0,0.0,0.0,0.0,0.0,0.0,0.0,0.0,0.0,0.0,0.0,0.0,0.0,0.0,0.0,0.0,0.0,0.0,0.0,0.0,0.0,0.0,0.0,0.0,0.0,0.0,0.0,0.0,0.0,0.0,0.0,0.0,0.0,0.0,0.0,0.0,0.0,0.0,0.0,0.0,0.0,0.0,0.0,0.0,0.0,0.0,0.0,0.0,0.0,0.0,0.0,0.0,0.0,0.0,0.0,0.0,0.0,0.0,0.0,0.0,0.0,0.0,0.0,0.0,0.0,0.0,0.0,0.0,0.0,0.0,0.0,0.0,0.0,0.0,0.0,0.0,0.0,0.0,0.0,0.0,0.0,0.0,0.0,0.0,0.0,0.0,0.0,0.0,0.0,0.0,0.0,0.0,0.0,0.0,0.0,0.0,0.0,0.0,0.0,0.0,0.0,0.0,0.0,0.0,0.0,0.0,0.0,0.0,0.0,0.0,0.0,0.0,0.0,0.0,0.0,0.0,0.0,0.0,0.0,0.0,0.0,0.0,0.0,0.0,0.0,0.0,0.0,0.0,0.0,0.0,0.0,0.0,0.0,0.0,0.0,0.0,0.0,0.0,0.0,0.0,0.0,0.0,0.0,0.0,0.0,0.0,0.0,0.0,0.0,0.0,0.0,0.0,0.0,0.0,0.0,0.0,0.0,0.0,0.0,0.0,0.0,0.0,0.0,0.0,0.0,0.0,0.0,0.0,0.0,0.0,0.0,0.0,0.0,0.0,0.0,0.0,0.0,0.0,0.0,0.0,0.0,0.0,0.0,0.0,0.0,0.0,0.0,0.0,0.0,0.0,0.0,0.0,0.0,0.0,0.0,0.0,0.0,0.0,0.0,0.0,0.0,0.0,0.0,0.0,0.0,0.0,0.0,0.0,0.0,0.0,0.0,0.0,0.0,0.0,0.0,0.0,0.0,0.0,0.0,0.0,0.0,0.0,0.0,0.0,0.0,0.0,0.0,0.0,0.0,0.0,0.0,0.0,0.0,0.0,0.0,0.0,0.0,0.0,0.0,0.0,0.0,0.0,0.0,0.0,0.0,0.0,0.0,0.0,0.0,0.0,0.0,0.0,0.0,0.0,0.0,0.0,0.0,0.0,0.0,0.0,0.0,0.0,0.0,0.0,0.0,0.0,0.0,0.0,0.0,0.0,0.0,0.0,0.0,0.0,0.0,0.0,0.0,0.0,0.0,0.0,0.0,0.0,0.0,0.0,0.0,0.0,0.0,0.0,0.0,0.0,0.0,0.0,0.0,0.0,0.0,0.0,0.0,0.0,0.0,0.0,0.0,0.0,0.0,0.0,0.0,0.0,0.0,0.0,0.0,0.0,0.0,0.0,0.0,0.0,0.0,0.0,0.0,0.0,0.0,0.0,0.0,0.0,0.0,0.0,0.0,0.0,0.0,0.0,0.0,0.0,0.0,0.0,0.0,0.0,0.0,0.0,0.0,0.0,0.0,0.0,0.0,0.0,0.0,0.0,0.0,0.0,0.0,0.0,0.0,0.0,0.0,0.0,0.0,0.0,0.0,0.0,0.0,0.0,0.0,0.0,0.0,0.0,0.0,0.0,0.0,0.0,0.0,0.0,0.0,0.0,0.0,0.0,0.0,0.0,0.0,0.0,0.0,0.0,0.0,0.0,0.0,0.0,0.0,0.0,0.0,0.0,0.0,0.0,0.0,0.0,0.0,0.0,0.0,0.0,0.0,0.0,0.0,0.0,0.0,0.0,0.0,0.0,0.0,0.0,0.0,0.0,0.0,0.0,0.0,0.0,0.0,0.0,0.0,0.0,0.0,0.0,0.0,0.0,0.0,0.0,0.0,0.0,0.0,0.0,0.0,0.0,0.0,0.0,0.0,0.0,0.0,0.0,0.0,0.0,0.0,0.0,0.0,0.0,0.0,0.0,0.0,0.0,0.0,0.0,0.0,0.0,0.0,0.0,0.0,0.0,0.0,0.0,0.0,0.0,0.0,0.0,0.0,0.0,0.0,0.0,0.0,0.0,0.0,0.0,0.0,0.0,0.0,0.0,0.0,0.0,0.0,0.0,0.0,0.0,0.0,0.0,0.0,0.0,1.3812,1.2928,0.0,0.0,0.0,0.0,0.0,0.0,0.0,0.0,0.0,0.0,0.0,0.0,0.0,0.0,0.0,0.0,0.0,0.0,0.0,0.0,0.0,0.0,0.0,0.0,0.0,0.0,0.0,0.0,0.0,0.0,0.0,0.0,0.0,0.0,0.0,0.0,0.0,0.0,4.2887,4.2443,4.2178,4.0514,3.7479,3.335,0.0,0.0,0.0,0.0,0.0,0.0,0.0,0.0,0.0,0.0,0.0,0.0,0.0,0.0,0.0,0.0,0.0,0.0,0.0,0.0,0.0,0.0,0.0,0.0,0.0,0.0,0.0,0.0,0.0,0.0,0.0,0.0,0.0,0.0,0.0,0.0,0.0,0.0,0.0,0.0,0.0,0.0,0.0,0.0,0.0,0.0,0.0,0.0,0.0,0.0,0.0,0.0,0.0,0.0,0.0,0.0,0.0,0.0,0.0,0.0,0.0,0.0,0.0,0.0,0.0,0.0,0.0,0.0,0.0,0.0,1.6019,1.4656,0.0,0.0,0.0,0.0,0.0,0.0,0.0,0.0,0.0,0.0,0.0,0.0,0.0,0.0,0.0,0.0,0.0,0.0,0.0,0.0,0.0,0.0,0.0,0.0,3.5976,3.6275,3.7341,3.7764,0.0,0.0,0.0,0.0,0.0,0.0,0.0,4.3025,4.3799,4.477,4.5348,4.5391,4.4902,4.4251,4.1532,3.7231,3.6057,0.0,0.0,0.0,0.0,0.0,0.0,0.0,0.0,0.0,0.0,0.0,0.0,0.0,0.0,0.0,0.0,0.0,0.0,0.0,0.0,0.0,0.0,0.0,0.0,0.0,0.0,0.0,0.0,0.0,0.0,0.0,0.0,0.0,0.0,0.0,0.0,0.0,0.0,0.0,0.0,0.0,0.0,0.0,0.0,0.0,0.0,0.0,0.0,0.0,0.0,0.0,0.0,0.0,0.0,0.0,0.0,0.0,0.0,0.0,0.0,0.0,0.0,0.0,2.1593,2.1156,2.1147,2.104,2.0912,2.0606,1.8886,1.7393,1.6199,1.5679,0.0,0.0,0.0,0.0,0.0,0.0,0.0,0.0,0.0,0.0,0.0,0.0,0.0,0.0,0.0,0.0,0.0,0.0,0.0,0.0,0.0,3.7419,3.7951,3.9291,3.957,3.9617,0.0,0.0,0.0,0.0,0.0,0.0,4.4041,4.4171,4.5253,4.7399,4.7404,4.7232,4.6909,4.6857,4.5786,4.3711,4.0195,3.7667,3.5927,0.0,0.0,0.0,0.0,0.0,0.0,0.0,0.0,0.0,0.0,0.0,0.0,0.0,0.0,0.0,0.0,0.0,0.0,0.0,0.0,0.0,0.0,0.0,0.0,0.0,0.0,0.0,0.0,0.0,0.0,0.0,0.0,0.0,0.0,0.0,0.0,0.0,0.0,0.0,0.0,0.0,2.7232,2.717,0.0,0.0,0.0,0.0,0.0,0.0,0.0,0.0,0.0,0.0,0.0,0.0,0.0,2.4248,2.4248,2.4479,2.4646,2.4704,2.4553,2.4449,2.4439,2.4065,2.328,2.2279,2.2031,0.0,1.9394,1.8048,0.0,0.0,0.0,0.0,0.0,0.0,0.0,0.0,0.0,0.0,0.0,0.0,0.0,0.0,0.0,0.0,0.0,0.0,0.0,0.0,0.0,3.8481,3.9244,3.9943,4.0426,4.0649,4.0619,4.1716,0.0,0.0,0.0,4.4518,4.5665,4.6477,4.8024,5.0359,4.9915,4.9845,5.0136,4.9581,4.8949,4.8203,4.5934,4.2521,3.8431,3.7316,0.0,0.0,0.0,0.0,0.0,0.0,0.0,0.0,0.0,0.0,0.0,0.0,0.0,0.0,0.0,0.0,0.0,0.0,0.0,0.0,0.0,0.0,0.0,0.0,0.0,0.0,0.0,0.0,0.0,0.0,0.0,0.0,0.0,0.0,0.0,0.0,0.0,0.0,0.0,2.9115,2.8791,2.7512,2.7291,2.6783,0.0,0.0,0.0,0.0,0.0,0.0,0.0,0.0,0.0,2.6243,2.6529,2.6302,2.5527,2.5947,2.6045,2.581,2.581,2.5684,2.5439,2.5196,2.4813,2.4306,2.4117,2.343,2.2325,1.9912,1.8814,1.8425,0.0,0.0,0.0,0.0,1.5149,1.4945,0.0,0.0,0.0,0.0,0.0,0.0,0.0,0.0,0.0,0.0,0.0,0.0,3.8792,3.9913,4.0896,4.1675,4.2113,4.2252,4.2069,4.3242,0.0,0.0,4.5183,4.6445,4.7221,4.8866,5.0634,5.2608,5.2246,5.2364,5.2951,5.2161,5.1642,5.1348,5.042,4.7021,4.1823,4.0312,3.836,3.6185,0.0,0.0,0.0,0.0,0.0,0.0,0.0,0.0,0.0,0.0,0.0,0.0,0.0,0.0,0.0,0.0,0.0,0.0,0.0,0.0,0.0,0.0,0.0,0.0,0.0,0.0,0.0,0.0,0.0,0.0,0.0,0.0,0.0,0.0,0.0,0.0,0.0,3.0515,3.0499,2.8359,2.9105,2.9083,0.0,0.0,0.0,0.0,0.0,0.0,2.9251,2.9285,2.9056,2.8574,2.8865,2.8401,2.7073,2.7341,2.7249,2.6709,2.6494,2.6269,2.6005,2.5791,2.5625,2.5547,2.5215,2.4814,2.4217,2.1424,2.0218,1.9929,1.8184,1.7499,1.736,1.637,1.587,1.5693,0.0,0.0,0.0,0.0,0.0,0.0,0.0,0.0,0.0,0.0,0.0,3.8885,4.1753,4.2133,4.3348,4.6216,4.5836,4.5172,4.4474,4.503,4.5079,4.4385,4.6428,4.7953,4.8671,5.0952,5.2555,5.3433,5.4087,5.4449,5.4502,5.4425,5.3898,5.296,5.2146,5.0097,4.7033,4.4219,4.2031,4.0152,3.7349,0.0,0.0,0.0,0.0,0.0,0.0,0.0,0.0,0.0,0.0,0.0,0.0,0.0,0.0,0.0,0.0,0.0,0.0,0.0,0.0,0.0,0.0,0.0,0.0,0.0,0.0,0.0,0.0,0.0,0.0,0.0,0.0,0.0,0.0,0.0,0.0,0.0,0.0,3.0991,3.172,0.0,0.0,0.0,0.0,2.8856,2.9398,2.9897,3.0292,3.0314,3.0458,3.0833,3.0866,3.0213,2.8862,2.8883,2.8481,2.764,2.6777,2.6592,2.6924,2.6064,2.5508,2.5145,2.5125,2.4814,2.4283,2.2585,2.1617,2.1105,1.9855,1.9348,1.9219,1.8018,1.7561,1.7414,0.0,0.0,0.0,0.0,0.0,0.0,0.0,0.0,3.7966,3.8443,3.9376,4.0754,4.2802,4.3889,4.5105,4.6667,4.6126,4.575,4.589,4.5631,4.5577,4.5684,4.7333,4.9329,5.1574,5.2953,5.4295,5.5626,5.5415,5.556,5.608,5.5543,5.5138,5.4752,5.4464,5.3515,5.1897,4.8599,4.5701,4.3092,4.1109,3.8654,0.0,0.0,0.0,0.0,0.0,0.0,0.0,0.0,0.0,0.0,0.0,0.0,0.0,0.0,0.0,0.0,0.0,0.0,0.0,0.0,0.0,0.0,0.0,0.0,0.0,0.0,0.0,0.0,0.0,0.0,0.0,0.0,0.0,0.0,0.0,0.0,0.0,3.4142,3.4907,0.0,3.2236,3.2592,3.2722,3.2176,3.2637,3.3183,3.3659,3.3683,3.3551,3.32,3.3175,3.2517,3.1118,3.0762,2.991,2.8512,2.7848,2.707,2.6122,2.5576,2.5215,2.5086,2.4482,2.416,2.3929,2.3089,2.2796,2.2773,2.1266,2.0666,2.0522,1.9314,1.8864,1.8772,0.0,0.0,0.0,0.0,0.0,0.0,0.0,0.0,3.8748,3.9233,4.0403,4.1871,4.3614,4.4954,4.621,4.7428,4.7053,4.6827,4.6965,4.6712,4.6594,4.6728,4.8535,5.095,5.394,5.4662,5.573,5.7207,5.6715,5.6733,5.7259,5.6474,5.6104,5.6104,5.5836,5.5437,5.4809,5.252,4.97,4.6637,4.4855,4.2572,3.9935,0.0,0.0,0.0,0.0,0.0,0.0,0.0,0.0,0.0,0.0,0.0,0.0,0.0,0.0,0.0,0.0,0.0,0.0,0.0,0.0,0.0,0.0,0.0,0.0,0.0,0.0,0.0,0.0,0.0,0.0,0.0,0.0,0.0,0.0,3.7123,3.7979,3.5862,3.7253,3.7308,3.4456,3.5014,3.5253,3.4512,3.4964,3.5429,3.5805,3.5818,3.5593,3.5114,3.5066,3.4422,3.3005,3.2442,3.1386,2.9848,2.9117,2.8237,2.714,2.632,2.5759,2.5448,2.4421,2.3838,2.3545,2.3218,2.3266,2.3446,2.2321,2.1889,2.1756,2.0531,2.0124,2.0017,0.0,0.0,0.0,0.0,0.0,0.0,0.0,4.007,4.0113,4.0155,4.0807,4.2083,4.4389,4.5292,4.6629,4.8812,4.8942,4.8553,4.7815,4.8265,4.8237,4.7557,5.0046,5.2735,5.553,5.5977,5.6774,5.801,5.801,5.8029,5.8024,5.7309,5.6964,5.692,5.6132,5.5762,5.5752,5.5752,5.3908,5.0826,4.8469,4.659,4.482,0.0,0.0,0.0,0.0,0.0,0.0,0.0,0.0,0.0,0.0,0.0,0.0,0.0,0.0,0.0,0.0,0.0,0.0,0.0,0.0,0.0,0.0,0.0,0.0,0.0,0.0,0.0,0.0,0.0,0.0,0.0,0.0,0.0,3.6332,3.8297,3.9076,3.6218,3.878,3.9238,3.5284,3.6329,3.6759,3.5633,3.6069,3.6405,3.6405,3.6405,3.6405,3.6405,3.6405,3.5763,3.4459,3.3815,3.2847,3.1497,3.0513,3.0008,2.9938,2.8351,2.7136,2.6262,2.4997,2.3996,2.3222,2.3222,2.3178,2.3135,2.3091,2.3091,2.296,2.18,2.1328,2.1087,0.0,0.0,0.0,0.0,0.0,0.0,0.0,3.9731,4.0458,4.1415,4.1818,4.2811,4.4936,4.6384,4.7679,4.8822,4.8871,4.8922,4.915,4.825,4.8509,5.0231,5.1564,5.3345,5.5618,5.5779,5.6587,5.8072,5.8072,5.8409,5.9009,5.8473,5.8215,5.8193,5.7617,5.7073,5.6571,5.6571,5.5705,5.4157,5.1774,4.9942,4.833,0.0,0.0,0.0,0.0,0.0,0.0,0.0,0.0,0.0,0.0,0.0,0.0,0.0,0.0,0.0,0.0,0.0,0.0,0.0,0.0,0.0,0.0,0.0,0.0,0.0,0.0,0.0,0.0,0.0,0.0,0.0,4.0681,4.1739,4.0683,4.2045,4.289,4.2058,4.1639,4.0794,3.9251,3.8299,3.7487,3.6784,3.6556,3.6405,3.6405,3.6405,3.6405,3.6405,3.6405,3.6016,3.5194,3.4638,3.3548,3.1926,3.1202,3.0422,2.9529,2.8364,2.7701,2.7404,2.6378,2.5806,2.5557,2.5557,2.5094,2.4253,2.342,2.3091,2.3047,2.2731,2.2442,2.1992,0.0,0.0,0.0,0.0,0.0,0.0,0.0,3.9289,4.0079,4.1419,4.1965,4.2809,4.431,4.5778,4.6882,4.74,4.8186,4.869,4.869,4.8466,4.9385,5.1802,5.2517,5.375,5.5675,5.587,5.6478,5.7603,5.794,5.8355,5.8863,5.8952,5.899,5.8971,5.8715,5.8255,5.7651,5.7651,5.7273,5.6544,5.5173,5.3721,5.214,4.9773,4.8431,4.7424,4.4132,4.3384,4.3497,4.047,0.0,0.0,0.0,0.0,0.0,0.0,0.0,0.0,0.0,0.0,0.0,0.0,0.0,0.0,0.0,0.0,0.0,0.0,0.0,0.0,0.0,0.0,0.0,0.0,4.2252,4.3374,4.3943,4.4704,4.5011,4.4467,4.3225,4.1882,4.0526,3.8941,3.7688,3.6945,3.6593,3.6405,3.6405,3.6405,3.6304,3.6031,3.6292,3.5994,3.5157,3.4876,3.4065,3.2869,3.2276,3.1524,3.0558,2.9424,2.87,2.8264,2.7189,2.6662,2.6524,2.6524,2.6099,2.5378,0.0,0.0,0.0,0.0,2.2828,2.2395,0.0,0.0,0.0,0.0,0.0,0.0,0.0,3.8799,3.9354,4.061,4.1494,4.2272,4.3002,4.4253,4.5144,4.538,4.7133,4.7991,4.7442,4.8853,5.058,5.251,5.3088,5.4063,5.5589,5.6022,5.6454,5.6922,5.7732,5.8167,5.828,5.9114,5.9494,5.9494,5.9424,5.914,5.8694,5.8694,5.8439,5.8005,5.8155,5.7254,5.5589,5.36,5.2304,5.1233,4.8129,4.6716,4.5965,4.4043,0.0,0.0,0.0,0.0,0.0,0.0,0.0,0.0,0.0,0.0,0.0,0.0,0.0,0.0,0.0,0.0,0.0,0.0,0.0,0.0,0.0,0.0,0.0,0.0,4.4022,4.499,4.6204,4.6384,4.5969,4.4849,4.4118,4.2799,4.0448,3.9004,3.7709,3.6581,3.6443,3.6405,3.6405,3.6405,0.0,0.0,0.0,3.5742,3.4638,3.4625,3.4349,3.3796,3.3307,3.2767,3.216,3.1047,2.9989,2.9032,2.7888,2.7209,2.6894,2.6894,2.6812,2.6554,2.5294,2.4082,2.3091,2.3042,2.276,2.2383,0.0,0.0,0.0,0.0,0.0,0.0,0.0,3.8101,3.9169,3.9909,4.0807,4.1605,4.2227,4.3684,4.4806,4.5288,4.6189,4.7107,4.8056,4.966,5.1188,5.2547,5.3654,5.4546,5.5208,5.5605,5.6195,5.698,5.7843,5.8591,5.9243,5.9731,5.9962,5.9946,5.9578,5.914,5.8694,5.8694,5.8439,5.807,5.8718,5.806,5.6625,5.6173,5.5519,5.4495,5.1915,5.1262,5.1078,4.7664,4.6438,4.6119,4.4753,4.3381,0.0,0.0,0.0,0.0,0.0,0.0,0.0,0.0,0.0,0.0,0.0,0.0,0.0,0.0,0.0,0.0,0.0,0.0,0.0,4.3943,4.514,4.6217,4.6995,4.7115,4.7028,4.6782,4.5751,4.4298,4.2356,4.0588,3.8825,3.7169,3.6656,3.6405,3.6405,3.6405,3.6107,3.552,3.5596,3.5132,3.4073,3.406,3.3784,3.3232,3.3174,0.0,3.2202,3.1531,3.086,3.0238,2.9554,2.9217,2.917,2.917,2.8621,2.7602,2.5577,2.4082,2.3052,2.2754,2.2373,2.1943,0.0,0.0,0.0,0.0,0.0,0.0,0.0,3.6245,3.7393,3.8368,3.9329,4.0169,4.0886,4.1919,4.2688,4.308,4.4314,4.6007,4.8157,4.9481,5.093,5.2529,5.36,5.4449,5.5075,5.5294,5.5712,5.6349,5.7223,5.8088,5.8915,5.9517,6.0035,6.0437,6.0208,5.9709,5.9047,5.9047,5.8634,5.807,5.8872,5.8505,5.7449,5.7487,5.7002,5.6106,5.4482,5.3887,5.3418,5.0676,4.9477,4.8871,4.7429,4.6001,4.4683,0.0,0.0,0.0,0.0,0.0,0.0,0.0,0.0,0.0,0.0,0.0,0.0,0.0,0.0,4.3085,4.3728,0.0,4.3898,4.5544,4.6097,4.6503,4.7219,4.7309,4.7309,4.7309,4.6166,4.4788,4.3293,4.1156,3.9291,3.7766,3.6874,3.6405,3.6405,3.6094,3.583,3.5508,3.5232,3.4693,3.3909,3.3897,3.3621,3.3124,3.3124,3.2629,3.1788,3.1512,3.0959,3.0181,2.9917,2.9792,2.9792,2.9792,2.9145,2.8004,2.6889,2.541,2.3856,2.3063,2.2432,2.1855,0.0,0.0,0.0,0.0,0.0,0.0,0.0,3.4343,3.5326,3.6388,3.7326,3.821,3.9066,3.9531,4.0041,4.064,4.2651,4.5042,4.7729,4.8818,5.0228,5.2159,5.3107,5.389,5.4601,5.4925,5.5269,5.5577,5.6527,5.7368,5.8069,5.905,5.9877,6.055,6.0723,6.0278,5.9389,5.9389,5.8855,5.8052,5.8712,5.8495,5.7799,5.7866,5.7531,5.7015,5.6214,5.5378,5.4396,5.3034,5.1967,5.0946,4.9779,4.854,4.7243,4.5796,4.5261,0.0,0.0,0.0,0.0,0.0,0.0,0.0,0.0,4.4723,4.4788,4.6191,4.5717,4.5473,4.6745,4.5708,4.5292,4.7188,4.695,4.6696,4.7234,4.7309,4.7309,4.7309,4.6403,4.5182,4.3733,4.1817,3.9893,3.8245,3.7243,3.6628,3.6405,3.5943,3.5608,3.5495,3.4969,3.4462,3.3909,3.3796,3.352,3.3124,3.3124,3.2541,3.1549,3.1436,3.0871,2.9942,2.9842,2.9792,2.9792,2.9792,2.9275,2.8426,2.8176,2.7012,2.5273,2.3829,2.2859,2.2185,0.0,0.0,0.0,0.0,0.0,0.0,0.0,0.0,3.3999,3.4155,3.4822,3.5706,3.6684,3.6847,3.7685,3.9733,4.2365,4.4648,4.6411,4.7725,4.9206,5.0919,5.2103,5.2787,5.2875,5.4347,5.5115,5.5173,5.6406,5.706,5.7176,5.8761,5.955,5.9685,6.0454,6.0278,5.9389,5.9389,5.8855,5.7997,5.8107,5.7704,5.7033,5.7028,5.7399,5.7774,5.704,5.5821,5.4571,5.4361,5.3344,5.2219,5.2741,5.2337,5.1344,4.9863,4.8517,4.7154,4.5505,4.5774,4.6982,4.8767,4.9352,5.0463,0.0,5.3634,5.2472,5.3314,5.313,5.2421,5.1053,4.9918,4.8982,4.8278,4.7623,4.7219,4.7294,4.7309,4.7309,4.7309,4.7164,4.618,4.3835,4.3328,4.1763,3.8381,3.7984,3.7461,3.6452,3.6355,3.6044,3.552,3.4969,3.4462,3.3909,3.342,3.3174,3.3124,3.3124,3.2742,3.2102,3.1612,3.1072,3.0495,3.0005,2.9792,2.9792,2.9792,2.9702,2.9495,2.8518,2.7964,2.7411,2.4988,2.3751,2.313,0.0,0.0,0.0,0.0,0.0,0.0,0.0,0.0,0.0,3.2311,3.3051,3.3883,3.4777,3.5797,3.711,3.8847,4.0535,4.2334,4.4257,4.5749,4.7079,4.8253,5.001,5.1083,5.1304,5.2379,5.3285,5.4002,5.4791,5.5575,5.6259,5.7709,5.8517,5.8777,5.9615,5.9628,5.899,5.899,5.8611,5.7997,5.7997,5.7565,5.6858,5.6414,5.6165,5.5983,5.5669,5.4327,0.0,0.0,5.2286,5.115,5.1928,5.164,5.0727,4.9255,4.9001,4.9238,4.9475,4.9458,4.9796,5.1623,5.2723,5.3856,5.5733,5.5108,5.4465,5.5632,5.4932,5.3662,5.2291,5.1181,5.014,4.9058,4.8312,4.8012,4.8401,4.7788,4.7444,4.7833,4.7534,4.6599,4.4765,4.4006,4.2363,3.9353,3.8514,3.7586,3.6452,3.6056,3.5931,3.6019,3.5177,3.4568,3.4374,3.3834,3.3395,3.3124,3.2729,3.2277,3.1725,3.1185,3.0645,3.0118,2.9892,2.9792,2.9792,2.9792,2.9591,2.9251,2.8742,2.8379,2.7843,2.5768,2.473,2.4143,0.0,0.0,0.0,0.0,0.0,0.0,0.0,0.0,0.0,0.0,3.114,3.1684,3.2541,3.4438,3.6076,3.7046,3.8335,3.9851,4.1635,4.3179,4.4383,4.5196,4.7192,4.8421,4.8714,4.9947,5.108,5.2107,5.3021,5.3981,5.5044,5.6421,5.7241,5.7574,5.8595,5.8802,5.8378,5.8601,5.8439,5.7973,5.7774,5.7241,5.6473,5.5508,5.4418,5.3397,5.3836,5.2684,0.0,5.135,5.0446,4.9228,4.9765,4.9698,4.9228,4.8169,4.8734,5.0001,5.1106,5.1757,5.2578,5.436,5.6093,5.7364,5.7327,5.6883,5.6677,5.7294,5.6355,5.4995,5.3367,5.228,5.1161,4.9779,4.8985,4.87,4.9,4.8177,4.7683,4.7982,4.7316,4.6471,4.5651,4.465,4.3099,4.0826,3.9648,3.8411,3.693,3.6467,3.6429,3.6883,3.5461,3.4848,3.5181,3.4186,3.347,3.3111,3.2654,3.2152,3.1599,3.0922,3.0319,2.9792,2.9792,2.9792,2.9792,2.9792,2.9453,2.8888,2.8888,2.8549,2.7939,2.6571,2.5716,2.5004,0.0,0.0,0.0,0.0,0.0,0.0,0.0,0.0,0.0,0.0,0.0,0.0,0.0,3.216,3.3912,3.3931,3.5982,3.7632,3.8492,3.9981,4.1214,4.1988,4.36,4.4474,4.4481,4.7111,4.8794,4.9435,5.1378,5.2673,5.3311,5.4969,5.5759,5.5856,5.7501,5.7975,5.7577,5.8359,5.8439,5.795,5.7209,5.6465,5.5578,5.4114,5.2186,5.043,5.1936,0.0,5.0031,4.9347,4.8052,4.6713,4.673,4.7209,4.7754,4.7721,4.823,4.8903,4.9132,5.1803,5.5069,5.7475,5.9815,6.1496,6.1327,6.1311,6.0858,5.9251,5.8893,5.7971,5.5067,5.3965,5.2755,5.0532,4.9658,4.906,4.8401,4.8282,4.8027,4.7414,4.6225,4.5666,4.6224,4.5651,4.4477,4.2651,4.1891,4.0504,3.8153,3.8049,3.8049,3.8062,3.589,3.5271,3.6435,3.4259,3.3136,3.3124,3.3056,3.2754,3.2152,3.1097,3.0319,2.9792,2.9792,2.9792,2.9792,2.9792,2.9453,2.8888,2.8888,2.8549,2.8047,2.7448,2.6625,2.5619,0.0,0.0,0.0,0.0,0.0,0.0,0.0,0.0,0.0,0.0,0.0,0.0,0.0,0.0,0.0,0.0,3.2573,3.4162,3.4955,3.6631,3.7694,3.7961,3.9401,4.0192,4.0192,4.2151,4.4029,4.5785,4.7352,4.8877,5.038,5.2242,5.2972,5.2803,5.4877,5.572,5.5659,5.6909,5.7052,5.6473,5.6248,5.541,5.4009,5.2016,5.0476,4.9195,0.0,4.6544,4.569,4.5896,4.4906,4.3799,4.4707,4.4836,4.474,4.5336,4.6435,4.8145,5.1304,5.3783,5.6395,6.0273,6.2208,6.3138,6.2979,6.2594,6.1738,6.0085,5.8575,5.667,5.3809,5.2989,5.2193,5.0487,5.0001,4.9987,5.0197,4.9494,4.8686,4.8027,4.757,4.6874,4.5799,4.4705,4.3658,4.2666,4.1989,4.0944,3.936,3.8559,3.8107,3.8107,3.6248,3.5259,3.5315,3.4193,3.3432,3.3111,3.2315,3.1486,3.0595,3.0231,2.9967,2.9792,2.9792,2.9792,2.9792,2.9792,2.9453,2.885,2.8524,2.8047,2.7494,2.6977,2.6542,2.6131,0.0,0.0,0.0,0.0,0.0,0.0,0.0,0.0,0.0,0.0,0.0,0.0,0.0,0.0,0.0,0.0,0.0,3.0824,3.1329,3.2779,3.3604,3.3604,3.4752,3.5373,3.5373,3.7297,3.9175,4.0906,4.3062,4.4878,4.6368,4.8476,4.9339,4.917,5.1167,5.2199,5.2534,5.4084,5.4295,5.3573,5.3717,5.2997,5.1628,4.967,4.8616,0.0,4.5478,4.3908,4.2997,4.2888,4.2329,4.1725,4.2088,4.2617,4.3331,4.4453,4.6096,4.8413,5.254,5.4939,5.7167,6.1003,6.2939,6.3723,6.3048,6.2767,6.1963,5.978,5.7966,5.5959,5.3203,5.2291,5.1471,4.9917,4.9584,4.9688,5.0107,4.9239,4.8491,4.8312,4.7689,4.6948,4.6151,4.4457,4.3257,4.2897,4.2278,4.1481,4.0546,3.939,3.8738,3.8738,3.6799,3.584,3.5895,3.5115,3.4283,3.335,3.183,3.0746,3.008,3.0228,3.0101,2.983,3.0139,3.0101,2.9792,2.9792,2.9453,2.8863,2.8499,2.7946,2.7278,2.6927,2.6663,2.6418,0.0,0.0,0.0,0.0,0.0,0.0,0.0,0.0,0.0,0.0,0.0,0.0,0.0,0.0,0.0,0.0,0.0,0.0,2.7719,2.8633,2.9149,2.9149,2.9889,3.0315,3.0315,3.2758,3.437,3.5055,3.8543,4.0618,4.142,4.3771,4.4891,4.5004,4.6474,4.7501,4.825,5.0051,5.0275,4.942,4.9746,4.9377,4.8501,4.7081,4.6613,4.6524,4.5032,4.359,4.2183,4.0755,4.0642,4.088,3.9401,4.0921,4.3572,4.5078,4.7063,4.9459,5.2701,5.5102,5.7341,5.9873,6.2124,6.3332,6.1761,6.1918,6.155,5.8422,5.7171,5.5837,5.3218,5.1999,5.0858,4.9083,4.8645,4.8535,4.852,4.7893,4.7668,4.8222,4.668,4.6002,4.7121,4.4938,4.3487,4.343,4.2768,4.2094,4.1532,4.049,3.9855,3.9812,3.7511,3.681,3.7798,3.6671,3.5301,3.382,3.1753,3.0741,3.0703,3.1119,3.0771,2.9934,3.0796,3.0658,2.9792,2.9792,2.9465,2.8938,2.89,2.8285,2.7392,2.7306,2.6989,2.6537,0.0,0.0,0.0,0.0,0.0,0.0,0.0,0.0,0.0,0.0,0.0,0.0,0.0,0.0,0.0,0.0,0.0,0.0,2.5576,2.6628,2.7227,2.7227,2.741,2.7507,2.7507,2.8836,3.0213,3.1513,3.3131,3.4989,3.7122,3.8256,3.9292,4.0146,4.1581,4.2555,4.3299,4.5628,4.6159,4.5456,4.6319,4.6184,4.531,4.3843,4.4352,4.5573,4.3534,4.3347,4.3843,4.285,4.3258,4.4114,4.3737,4.4441,4.5474,4.5892,4.7091,4.9,5.2397,5.4521,5.6593,5.9779,6.1011,6.1153,6.0054,5.9924,5.9323,5.6792,5.5243,5.3566,5.1061,5.1208,5.1381,5.0346,5.1036,5.1604,5.1249,5.0212,4.9194,4.8371,4.7852,4.7125,4.6016,4.5295,4.4466,4.3502,4.2408,4.1368,4.0375,4.0073,3.9492,3.8604,3.7205,3.6188,3.5556,3.4726,3.4297,3.4244,3.3206,3.2475,3.2081,3.2209,3.1719,3.0871,3.1106,3.0658,2.9792,2.9792,2.9704,2.9528,2.9063,2.8712,2.8411,2.7582,2.7228,2.7052,0.0,0.0,0.0,0.0,0.0,0.0,0.0,0.0,0.0,0.0,0.0,0.0,0.0,0.0,0.0,0.0,0.0,0.0,0.0,2.4638,2.502,2.502,2.502,2.502,2.502,2.6022,2.6966,2.7851,2.928,3.0735,3.2219,3.3803,3.4894,3.5561,3.7158,3.8198,3.8929,4.0777,4.1053,0.0,0.0,4.1973,4.1599,4.1064,4.2142,4.3858,4.2988,4.414,4.5983,4.549,4.5125,4.5018,4.5968,4.6234,4.6401,4.7365,4.7848,4.8673,5.126,5.284,5.43,5.6677,5.777,5.7996,5.695,5.7192,5.6919,5.4262,5.3078,5.1949,5.0242,5.0716,5.1055,5.0142,5.0907,5.1423,5.0981,4.9778,4.879,4.8341,4.7773,4.6989,4.5918,4.5259,4.4168,4.2389,4.2353,4.1867,4.0689,4.0365,3.9686,3.8512,3.7821,3.7113,3.6321,3.4792,3.4244,3.4663,3.3576,3.2889,3.2593,3.3031,3.2713,3.1852,3.2249,3.1646,3.0419,3.0419,3.0177,2.9767,2.944,2.9001,2.8487,2.8147,2.7544,2.6952,0.0,0.0,0.0,0.0,0.0,0.0,0.0,0.0,0.0,0.0,0.0,0.0,0.0,0.0,0.0,0.0,0.0,0.0,0.0,0.0,2.3091,2.3091,2.3091,2.3091,2.3091,2.4092,2.4585,2.4585,2.639,2.733,2.7542,2.9866,3.1099,3.1456,3.3041,3.4186,3.4992,3.5955,3.5914,3.5343,3.6887,3.7669,3.7948,0.0,0.0,4.19,4.2916,4.5089,4.7497,4.7784,4.6839,4.5842,4.7726,4.7742,4.7445,4.9256,4.9026,4.8459,4.983,5.0634,5.141,5.2403,5.3649,5.4378,5.3261,5.4006,5.4124,5.1472,5.0898,5.0727,5.0067,5.036,5.0424,4.9517,4.9677,4.9866,4.9599,4.8312,4.7653,4.8222,4.7204,4.6384,4.6294,4.5274,4.3654,4.1431,4.2537,4.2611,4.1,4.0517,3.9815,3.8849,3.8438,3.8236,3.818,3.5801,3.4812,3.5186,3.3691,3.2996,3.2996,3.3822,3.3671,3.282,3.3671,3.3031,3.1389,3.1254,3.0733,2.996,2.9869,2.9202,2.8386,2.875,2.8021,2.6876,0.0,0.0,0.0,0.0,0.0,0.0,0.0,0.0,0.0,0.0,2.632,2.4702,0.0,0.0,0.0,0.0,0.0,0.0,0.0,0.0,0.0,2.3091,2.3091,2.3091,2.3091,2.3299,2.3387,2.3387,2.3737,2.4394,2.5335,2.5808,2.7028,2.8776,2.9083,3.0059,3.1523,3.261,3.3131,3.3393,3.4574,3.533,3.5835,0.0,0.0,0.0,4.2485,4.394,4.5284,4.7137,4.9609,5.1984,5.2336,5.2186,5.1721,5.1305,4.9987,4.8758,4.8992,4.9188,4.9508,5.0573,5.1035,5.1092,5.0505,5.0565,5.0473,4.9571,4.939,4.934,4.9221,4.9755,5.0325,5.0685,5.0413,5.0338,5.0802,4.9284,4.8162,4.8282,4.7608,4.692,4.6324,4.607,4.5332,4.3815,4.3118,4.1131,3.75,3.8105,3.8442,3.8241,3.6835,3.6397,3.7084,3.6136,3.5853,3.6246,3.5411,3.5001,3.5001,3.518,3.4691,3.3774,3.391,3.338,3.2321,3.1536,3.1106,3.0871,3.0113,2.9679,2.9453,2.9026,2.8712,2.8411,0.0,0.0,0.0,0.0,0.0,0.0,0.0,3.0218,3.0196,3.0196,2.8549,2.6825,2.538,2.4473,2.3757,0.0,0.0,0.0,0.0,0.0,0.0,0.0,0.0,0.0,2.3091,2.3091,2.3091,2.3091,0.0,2.3387,2.392,2.5136,2.6254,2.7331,2.849,2.9423,3.0259,3.125,3.1983,3.2538,3.3281,3.4292,3.5344,0.0,0.0,0.0,3.9843,4.1613,4.3648,4.4675,4.7635,5.1262,5.338,5.3319,5.2315,5.1675,5.0215,4.8677,4.8141,4.8274,4.8695,4.939,4.9843,4.982,4.8789,4.8855,4.8744,4.7395,4.7439,4.7563,4.7094,4.7952,4.8605,4.8338,4.9009,4.9496,4.9208,4.8671,4.8162,4.7818,4.6875,4.6127,4.5813,4.5128,4.4236,4.2966,4.2397,4.1071,3.8722,3.7939,3.7715,3.7941,3.6577,3.6408,3.7621,3.6476,3.6079,3.6477,3.5818,3.5504,3.5504,3.5504,3.5246,3.4758,3.4758,3.4211,3.3276,3.2855,3.2069,3.1143,3.0696,3.0024,2.934,2.9365,2.9001,2.8499,0.0,0.0,0.0,0.0,0.0,0.0,0.0,3.062,3.0846,3.1486,3.0736,2.9251,2.6921,2.5647,2.456,0.0,0.0,0.0,0.0,0.0,0.0,0.0,0.0,0.0,2.3091,0.0,0.0,2.3237,2.314,0.0,0.0,0.0,0.0,0.0,2.8581,2.9573,2.9856,3.0796,3.1627,0.0,0.0,3.3986,3.5213,0.0,0.0,0.0,0.0,3.9084,4.1566,4.1894,4.4319,4.7846,5.1411,5.2229,5.1769,5.0977,5.0105,4.9099,4.7862,4.7997,4.8562,4.886,4.9209,4.9078,4.7468,4.755,4.7407,4.5505,4.5863,4.6225,4.5373,4.618,4.6673,4.5646,4.6834,4.7665,4.7167,4.7534,4.7728,4.7354,4.6247,4.5454,4.5304,4.4227,4.303,4.184,4.1523,4.1018,4.0283,3.8005,3.7131,3.7968,3.7039,3.713,3.8392,3.6969,3.6303,3.6477,3.5818,3.5504,3.5504,3.5504,3.5504,3.5504,3.5504,3.5052,3.4279,3.4095,3.3136,3.1742,3.1352,3.0472,2.9441,2.9936,2.9529,2.8855,0.0,0.0,0.0,0.0,0.0,0.0,0.0,3.062,3.0984,3.2001,3.1617,3.0959,3.0217,2.7379,2.5282,0.0,0.0,0.0,0.0,0.0,0.0,0.0,0.0,0.0,0.0,0.0,0.0,2.373,2.3286,0.0,0.0,0.0,0.0,0.0,0.0,2.8819,2.9856,3.0796,0.0,0.0,0.0,0.0,0.0,0.0,0.0,0.0,0.0,3.7052,3.8196,3.9604,4.1421,4.3454,4.5236,4.8639,5.152,4.9055,4.9671,5.0721,4.8758,4.8686,4.9209,4.9269,4.8833,4.7966,4.619,4.5818,4.5559,4.4439,4.5456,4.6225,4.5373,4.5456,4.5504,4.497,4.4496,4.4719,4.6194,4.6429,4.6711,4.7234,4.6666,4.5978,4.5349,4.4646,4.3678,4.2404,4.1188,4.0076,3.9102,3.6895,3.6552,3.8562,3.7978,3.7899,3.8392,3.763,3.6988,3.6477,3.5818,3.5504,3.5504,3.5504,3.5504,3.5504,3.5504,3.5439,3.5279,3.4394,3.391,3.3567,3.1852,3.1103,3.1003,3.1055,3.1003,3.1022,0.0,0.0,0.0,0.0,0.0,0.0,3.0361,3.062,3.1009,3.2077,3.2026,3.1797,3.1575,2.9801,2.7706,2.5475,0.0,0.0,0.0,0.0,0.0,0.0,0.0,0.0,0.0,0.0,2.3201,2.2583,2.3451,0.0,0.0,0.0,0.0,0.0,0.0,2.9365,2.9895,3.1402,0.0,0.0,0.0,0.0,0.0,0.0,0.0,0.0,0.0,0.0,3.5934,3.6521,3.7879,3.9401,3.9594,4.2637,4.6326,4.7123,4.8238,4.9079,4.8464,4.9045,4.9748,4.9404,4.882,4.7824,4.6008,4.5272,4.4666,4.3505,4.3766,4.4066,4.3608,4.2916,4.2372,4.2178,4.2576,4.303,4.3334,4.4362,4.5364,4.6022,4.517,4.4721,4.5244,4.4347,4.3344,4.247,4.0923,3.9974,3.9803,3.7961,3.7285,3.8127,3.7935,3.8177,3.9005,3.8332,3.7674,3.703,3.6402,3.5893,3.5504,3.5504,3.5504,3.5504,3.5504,3.5504,3.5472,3.5067,3.4543,3.391,3.3171,3.2522,3.2033,3.2033,3.2033,3.2105,0.0,0.0,0.0,0.0,0.0,2.8286,3.0321,3.062,3.1009,3.2077,3.2215,3.234,3.2679,3.1443,2.9552,2.7019,2.5124,0.0,0.0,0.0,0.0,0.0,0.0,0.0,0.0,0.0,2.3376,2.2136,2.3289,2.3233,0.0,0.0,2.6585,2.6768,0.0,0.0,0.0,0.0,0.0,0.0,0.0,0.0,0.0,0.0,0.0,0.0,0.0,0.0,0.0,0.0,0.0,3.662,3.6143,3.8057,4.1089,4.4189,4.6401,4.7885,4.8198,4.9239,5.0136,4.9912,4.906,4.7857,4.6184,4.5146,4.4159,4.2879,4.2977,4.3073,4.2234,4.1558,4.09,4.0209,4.1055,4.1722,4.1452,4.2746,4.3973,4.4631,4.3733,4.3479,4.4601,4.3524,4.2641,4.2425,4.0728,3.9906,4.0375,3.9061,3.8271,3.8271,3.8271,3.862,3.9388,3.8736,3.8063,3.7404,3.6791,3.6148,3.5504,3.5504,3.5504,3.5504,3.5504,3.5504,3.5504,3.5504,3.51,3.4428,3.4129,3.3602,3.3031,3.3031,3.3031,3.3066,0.0,0.0,0.0,0.0,0.0,0.0,3.0189,3.062,3.1009,3.2077,3.2215,3.2641,3.3759,3.1906,3.0314,2.9636,2.7549,0.0,0.0,0.0,0.0,0.0,0.0,0.0,0.0,0.0,2.3937,2.2982,2.2604,2.2613,2.3012,2.4461,2.5819,2.7166,0.0,0.0,0.0,0.0,0.0,0.0,0.0,0.0,0.0,0.0,0.0,0.0,0.0,0.0,0.0,0.0,0.0,0.0,0.0,3.5885,3.6863,3.9943,4.4158,4.7885,4.8198,4.9239,5.0345,5.1035,4.9733,4.7938,4.6606,4.5259,4.3928,4.2665,4.367,4.4095,4.1851,4.2166,4.2053,3.9778,3.9993,4.0651,4.1294,4.1991,4.2626,4.323,4.2776,4.2626,4.3245,4.2177,4.1707,4.2351,4.0546,3.9687,4.0367,3.9732,3.9388,3.9388,3.9388,3.9388,3.9388,3.8736,3.8063,3.7404,3.6791,3.6148,3.5504,3.5504,3.5504,3.5504,3.5504,3.5504,3.5504,3.5504,3.5504,3.5392,3.4394,3.3993,3.3993,3.3993,3.3993,3.4129,0.0,0.0,0.0,0.0,0.0,0.0,0.0,3.0055,3.0319,3.1022,3.1436,3.1926,3.2667,3.2468,3.2028,3.1372,2.8252,0.0,0.0,0.0,0.0,0.0,0.0,0.0,0.0,2.4707,2.3794,2.1648,2.2743,2.2743,2.1688,2.3796,2.5827,2.7671,2.8675,2.9775,0.0,0.0,0.0,0.0,0.0,0.0,3.8096,0.0,0.0,0.0,0.0,0.0,0.0,0.0,0.0,0.0,0.0,0.0,0.0,3.734,4.0629,4.3903,4.4891,4.6637,4.8282,4.8491,4.7384,4.6022,4.514,4.4231,4.3404,4.2575,4.2454,4.2418,4.2119,4.1219,4.0523,4.0755,4.0561,4.0472,4.0681,4.1707,4.265,4.3299,4.3958,4.4092,4.3364,4.2955,4.2432,4.1782,4.1115,4.0457,3.9768,3.9529,3.9388,3.9388,3.9388,3.9185,3.8721,3.8497,3.7853,3.6776,3.6582,3.6148,3.5504,3.5504,3.5504,3.5504,3.5504,3.5504,3.5504,3.5504,3.5504,3.5472,3.5133,3.5019,3.5019,3.5019,3.5019,3.5067,0.0,0.0,0.0,0.0,0.0,0.0,0.0,2.9792,2.9993,3.0545,3.1072,3.1687,3.2453,3.2855,3.2921,3.2452,3.0,0.0,0.0,0.0,0.0,0.0,0.0,0.0,2.4912,2.5342,2.4196,2.1426,2.2715,2.2393,2.071,2.3024,2.5285,2.7436,2.8557,2.9961,0.0,0.0,0.0,0.0,0.0,0.0,3.8711,0.0,0.0,0.0,0.0,0.0,0.0,0.0,0.0,0.0,0.0,0.0,0.0,0.0,3.9006,4.1767,4.3256,4.527,4.6995,4.7249,4.6292,4.5185,4.4781,4.3947,4.317,4.2821,4.2246,4.1841,4.1991,4.1053,4.0476,4.1037,4.1007,4.0991,4.1249,4.1934,4.265,4.3299,4.4062,4.4227,4.3364,4.3105,4.2626,4.1856,4.1294,4.0651,3.9828,3.9559,3.9388,3.9388,3.9388,3.9215,3.8781,3.8527,3.7868,3.6836,3.6596,3.6148,3.5504,3.5504,3.5504,3.5504,3.5504,3.5504,0.0,3.5504,3.5504,3.5504,3.5504,3.5504,3.5504,3.5504,3.5504,3.5504,0.0,0.0,0.0,0.0,0.0,0.0,0.0,2.9792,2.998,3.0495,3.1047,3.1788,3.2842,3.3074,3.3058,3.3011,0.0,0.0,0.0,0.0,0.0,0.0,0.0,0.0,2.5917,2.6231,2.5043,2.2305,2.2584,2.194,2.0514,2.2241,2.4312,2.6693,2.8665,3.0313,0.0,0.0,0.0,0.0,0.0,0.0,0.0,0.0,0.0,0.0,0.0,0.0,0.0,0.0,0.0,0.0,0.0,0.0,0.0,0.0,0.0,0.0,0.0,4.4699,4.6247,4.6815,4.6007,4.5065,4.502,4.4062,0.0,4.3155,4.2671,4.2066,4.1452,4.1462,4.1376,4.0861,4.1244,4.191,4.2649,4.2667,4.2815,4.329,4.3409,4.3379,4.3245,4.2761,4.2425,4.2336,4.116,4.0427,4.0337,3.9753,3.9394,3.9313,3.9313,3.9334,3.9239,3.8631,3.7958,3.727,3.6686,3.6088,3.5504,3.5504,3.5504,3.5504,3.5504,3.5504,3.5504,3.5504,3.5504,3.5504,3.5504,3.5504,3.5504,3.5504,3.5504,3.5504,0.0,0.0,0.0,0.0,0.0,0.0,0.0,0.0,0.0,0.0,3.0809,3.1486,3.1763,3.2566,3.3433,0.0,0.0,0.0,0.0,0.0,0.0,0.0,0.0,0.0,2.762,2.6804,2.5699,2.4304,2.3237,2.307,2.3818,2.2799,2.4309,2.7841,2.8554,3.0931,0.0,0.0,0.0,0.0,0.0,0.0,0.0,0.0,0.0,0.0,3.8796,3.8855,0.0,0.0,0.0,0.0,0.0,0.0,0.0,0.0,3.8855,4.0213,4.1069,0.0,4.3917,4.3614,4.3324,4.2965,0.0,4.2058,4.1848,4.1848,4.1324,4.0816,4.0651,4.0265,4.0299,4.131,4.1186,4.1542,4.3221,4.4139,4.4466,4.4122,4.4526,4.4242,4.2785,4.2895,4.2686,4.1722,4.1324,4.0711,3.9709,3.9514,3.917,3.8646,3.8631,3.8392,3.7883,3.7719,3.7075,3.5953,3.5804,3.5654,3.5504,3.5504,3.5504,3.5504,3.5504,3.5504,3.5504,3.5504,3.5504,3.5504,3.5504,3.5504,3.5504,3.5504,3.5504,3.5504,0.0,0.0,0.0,0.0,0.0,0.0,0.0,0.0,0.0,0.0,0.0,0.0,0.0,0.0,0.0,0.0,0.0,0.0,0.0,0.0,0.0,0.0,0.0,2.894,2.8565,2.7543,2.6064,2.4173,2.3532,2.3125,2.2945,2.2498,2.3939,2.7026,2.8932,3.1761,0.0,0.0,0.0,0.0,3.9601,0.0,0.0,0.0,0.0,0.0,3.9388,3.9388,0.0,3.9388,3.9017,3.8546,0.0,0.0,0.0,0.0,3.976,4.0578,4.0891,4.2095,4.314,4.256,4.2396,4.2406,4.2432,4.2225,4.2108,4.2499,4.2067,4.1588,4.1588,4.1644,4.185,4.2345,4.3226,4.4037,4.4651,4.4848,4.48,4.4357,4.4362,4.4092,4.3329,4.3299,4.2991,4.2327,4.1728,4.107,4.0367,3.9439,3.8781,3.8407,3.8093,3.7764,3.7404,3.7404,3.6926,3.5953,3.5953,3.5804,3.5504,3.5504,3.5504,3.5504,3.5504,3.5504,3.5504,3.5504,3.5504,3.5504,3.5504,3.5504,3.5504,3.5504,3.5504,3.5459,0.0,0.0,0.0,0.0,0.0,0.0,0.0,0.0,0.0,0.0,0.0,0.0,0.0,0.0,0.0,0.0,0.0,0.0,0.0,0.0,0.0,0.0,3.2028,3.063,2.9384,2.8462,2.6692,2.3976,2.3839,2.3067,2.172,2.2264,2.3711,2.597,2.9453,3.2271,0.0,3.5681,3.7538,3.9628,3.9469,0.0,0.0,0.0,0.0,0.0,0.0,0.0,0.0,3.9388,3.9388,3.9388,3.9388,0.0,0.0,0.0,0.0,0.0,4.1566,4.2543,4.3301,4.2344,4.2286,4.2591,4.3116,4.2895,4.2813,4.3538,4.3227,4.2877,4.2988,4.3572,4.3941,4.3685,4.5942,4.7443,4.6575,4.5661,4.4949,4.4604,4.3888,4.3589,4.3973,4.3559,4.3245,4.3155,4.2058,4.1377,4.1235,3.9424,3.8392,3.8392,3.7659,3.727,3.727,3.727,3.6956,3.6342,3.6342,3.6043,3.5504,3.5504,3.5504,3.5504,3.5504,3.5504,3.5504,3.5504,3.5504,3.5504,3.5504,3.5504,3.5504,3.5504,3.5504,3.54,0.0,0.0,0.0,0.0,0.0,0.0,0.0,0.0,0.0,0.0,0.0,0.0,0.0,0.0,0.0,0.0,0.0,0.0,0.0,0.0,0.0,3.5859,3.3763,3.2144,3.1135,2.9998,2.8764,2.7523,2.5023,2.4934,2.7025,2.395,2.419,2.7342,2.9308,3.1262,3.3212,3.5319,3.7259,3.8982,3.9291,0.0,0.0,0.0,0.0,0.0,0.0,0.0,0.0,3.9388,3.9388,3.9388,3.9388,0.0,0.0,0.0,0.0,0.0,4.2216,4.3596,4.4026,4.1392,4.1702,4.2397,4.1399,4.1639,4.2155,4.2285,4.2237,4.2333,4.2975,4.2703,4.2991,4.4873,4.7012,4.8606,4.905,4.8092,4.6887,4.5773,4.4743,4.3763,4.28,4.3075,4.3105,4.259,4.1841,4.113,4.0576,3.917,3.8392,3.8392,3.724,3.6626,3.6626,3.6626,3.6297,3.5654,3.5654,3.5609,3.5504,3.5504,3.5504,3.5504,3.5504,3.5504,3.5504,3.5504,3.5504,3.5504,3.5504,3.5504,3.5504,3.5504,3.5504,3.54,0.0,0.0,0.0,0.0,0.0,0.0,0.0,0.0,0.0,0.0,0.0,0.0,0.0,0.0,0.0,0.0,0.0,0.0,0.0,0.0,3.6056,3.6405,3.5375,3.4245,3.3105,3.1063,2.9414,2.8174,2.6073,2.5602,2.6695,2.5249,2.5882,2.8265,2.8791,3.0247,3.2413,3.4041,3.598,3.7989,0.0,0.0,0.0,0.0,0.0,0.0,0.0,0.0,0.0,0.0,3.9388,3.9388,3.9388,0.0,0.0,0.0,0.0,0.0,4.1473,4.2735,4.3642,4.2677,4.3847,4.5096,4.4545,4.4463,4.4379,4.4078,4.4004,4.4219,4.496,4.5158,4.6061,4.8737,4.8971,4.9043,4.9719,4.8621,4.7155,4.5534,4.4918,4.4163,4.3019,4.3125,4.306,4.2455,4.1796,4.11,4.0442,3.9125,3.8392,3.8392,3.715,3.6492,3.6492,3.6133,3.5804,3.5504,3.5863,3.5848,3.5504,3.5504,3.5504,3.5504,3.5504,3.5504,3.5504,3.5504,3.5504,3.5504,3.5504,3.5504,3.5459,3.5085,3.4951,3.4846,0.0,0.0,0.0,0.0,0.0,0.0,0.0,0.0,0.0,0.0,0.0,0.0,0.0,0.0,0.0,0.0,0.0,0.0,0.0,3.542,3.5793,3.638,3.6405,3.5763,3.4434,3.2353,3.0473,2.8784,2.7273,2.6198,2.5432,2.6724,2.7803,2.8666,2.8767,2.9766,3.1397,3.2769,3.4512,3.6511,0.0,0.0,0.0,0.0,0.0,0.0,0.0,0.0,0.0,0.0,0.0,0.0,0.0,0.0,0.0,3.9631,4.0185,4.0823,4.1402,4.2537,4.3815,4.4838,4.589,4.683,4.7489,4.7108,4.6626,4.6499,4.6346,4.6397,4.6955,4.7665,4.8917,5.1166,5.0405,4.9794,5.0625,4.9127,4.7466,4.6201,4.5362,4.4533,4.3732,4.3448,4.306,4.2455,4.1796,4.11,4.0442,3.9125,3.8467,3.8631,3.724,3.6552,3.6701,3.5908,3.5504,3.5504,3.6013,3.5998,3.5504,3.5504,3.5504,3.5504,3.5504,3.5504,3.5504,3.5504,3.5504,3.5504,3.5504,3.5504,3.5444,3.4906,3.4548,3.4219,0.0,0.0,0.0,0.0,0.0,0.0,0.0,0.0,0.0,0.0,0.0,0.0,0.0,0.0,0.0,0.0,0.0,0.0,0.0,3.5207,3.5793,3.638,3.6405,3.5763,3.4434,3.4227,3.3032,3.0798,2.8897,2.7096,2.545,2.8573,2.9358,2.8324,2.9967,3.0278,2.9715,3.193,3.3328,3.4264,3.6774,0.0,0.0,0.0,0.0,0.0,0.0,0.0,0.0,0.0,0.0,0.0,0.0,0.0,3.9538,4.0363,4.0656,4.1205,4.3504,4.4726,4.5687,4.7234,4.6082,4.5089,4.7193,4.7218,4.7166,4.8511,4.824,4.7753,4.7804,4.8426,4.9001,4.9204,5.027,5.1557,5.3045,5.0593,4.8807,4.9396,4.6716,4.4774,4.4699,4.3849,4.306,4.2455,4.1796,4.11,4.0442,3.9125,3.8691,3.9334,3.7479,3.6761,3.7345,3.6118,3.5504,3.5504,3.5549,3.5549,3.5504,3.5504,3.5504,3.5504,3.5504,3.5504,3.5504,3.5504,3.5504,3.5504,3.5504,3.5504,3.5489,3.5444,3.4637,3.3649,0.0,0.0,0.0,0.0,0.0,0.0,0.0,0.0,0.0,0.0,0.0,0.0,0.0,0.0,0.0,0.0,0.0,0.0,0.0,3.468,3.5232,3.583,3.6182,3.6006,3.508,3.4619,3.3977,3.3089,3.065,2.8678,2.7254,2.8675,2.9231,2.905,2.9935,3.0155,2.9844,3.0709,3.1898,3.3265,3.4269,3.6434,0.0,0.0,0.0,0.0,0.0,0.0,0.0,0.0,3.9815,3.9916,3.9712,4.029,4.089,4.0322,4.0848,4.1746,4.216,4.3564,4.5203,4.6258,4.5858,4.5872,4.8564,4.9034,4.8866,4.8984,4.9137,4.9137,4.868,4.9576,5.0219,4.9763,5.0541,5.1388,5.2012,5.1008,4.9976,4.9223,4.7503,4.594,4.488,4.3888,4.2895,4.1871,4.1557,4.092,3.9843,3.9305,3.9155,3.9373,3.7883,3.7165,3.7404,3.6148,3.5504,3.5504,3.5504,3.5504,3.5504,3.5504,3.5504,3.5504,3.5504,3.5504,3.5504,3.5504,3.5504,3.5504,3.5504,3.5504,3.5444,3.5026,3.4816,3.4651,0.0,0.0,0.0,0.0,0.0,0.0,0.0,0.0,0.0,0.0,0.0,0.0,0.0,0.0,0.0,0.0,0.0,0.0,3.3847,3.4248,3.4713,3.5219,3.5642,3.5667,3.5245,3.4901,3.4607,3.4325,3.2194,3.0412,2.8943,3.0072,3.0398,3.0138,3.0681,3.0844,3.0638,3.006,3.0559,3.1782,3.2505,3.443,0.0,0.0,0.0,0.0,0.0,0.0,0.0,0.0,4.0007,4.0208,3.9906,4.0495,4.1149,4.0387,4.114,4.2133,4.1851,4.3149,4.4784,4.5517,4.5889,4.6769,4.9475,4.9915,4.9881,5.0338,5.0067,4.9593,4.9086,4.9644,5.0084,4.9796,5.0371,5.0947,5.1183,5.0811,5.0165,4.9244,4.8122,4.684,4.5369,4.4159,4.2885,4.1497,4.119,4.0591,3.9448,3.9388,3.9388,3.9388,3.8108,3.7404,3.7404,3.6148,3.5504,3.5504,3.5504,3.5504,3.5504,3.5504,3.5504,3.5504,3.5504,3.5504,3.5504,3.5504,3.5504,3.5504,3.5504,3.5504,3.5444,3.4981,3.4966,3.507,0.0,0.0,0.0,0.0,0.0,0.0,0.0,0.0,0.0,0.0,0.0,0.0,0.0,0.0,0.0,0.0,0.0,0.0,3.3809,3.3884,3.4135,3.4675,3.468,3.4726,3.468,3.5219,3.5078,3.4215,3.3395,3.2104,3.0369,3.3105,3.3333,3.1569,3.2499,3.2611,3.1984,3.0171,2.9407,2.9624,3.1869,3.2478,3.2459,0.0,0.0,0.0,0.0,0.0,0.0,0.0,3.9414,3.896,3.9586,3.981,4.0009,4.0778,4.158,4.2377,4.3149,4.3961,4.4784,4.5517,4.6244,4.7378,4.9593,4.9543,4.9864,5.2875,5.1116,4.9018,4.9018,4.8443,4.8159,4.8883,4.961,5.0338,5.1099,4.9932,4.9272,4.9999,4.8626,4.7239,4.6279,4.475,4.3128,4.1543,4.0771,4.0113,3.9454,3.9388,3.9388,3.9388,3.8123,3.7419,3.7404,3.6148,3.5519,3.5504,3.5504,3.5504,3.5504,3.5504,3.5504,3.5504,3.5504,3.5504,3.5504,3.5504,3.5504,3.5504,3.5504,3.5504,3.5504,3.5504,3.507,3.4608,0.0,0.0,0.0,0.0,0.0,0.0,0.0,0.0,0.0,0.0,0.0,0.0,0.0,0.0,0.0,0.0,0.0,0.0,3.2717,3.3458,3.3796,3.3571,3.4675,3.5069,3.4726,3.5219,3.5137,3.4325,3.4073,3.3204,3.1724,3.3131,3.3243,3.237,3.3241,3.2808,3.1449,3.088,3.0676,3.0721,3.1396,3.2591,3.3914,0.0,0.0,0.0,0.0,0.0,0.0,0.0,0.0,0.0,4.0107,4.1072,4.2077,4.0759,4.1275,4.2102,4.1304,4.2388,4.3944,4.4722,4.6261,4.8156,5.0371,5.0304,5.0321,5.2266,5.1539,5.0557,5.0557,5.0357,4.9965,4.9137,4.961,4.9999,4.9695,4.9289,4.9086,4.9306,4.831,4.7239,4.6279,4.517,4.3629,4.1573,4.1205,4.0591,3.9448,3.9388,3.9388,3.9388,3.8556,3.7883,3.7404,3.6596,3.5968,3.5504,3.5504,3.5504,3.5504,3.5504,3.5504,3.5504,3.5504,3.5504,3.5504,3.5504,3.5504,3.5504,3.5504,3.5504,3.5504,3.5504,3.537,3.5235,0.0,0.0,0.0,0.0,0.0,0.0,0.0,0.0,0.0,0.0,0.0,0.0,0.0,0.0,0.0,0.0,0.0,0.0,0.0,3.2855,3.3181,3.3081,3.4248,3.4893,3.5006,3.532,3.5419,3.5174,3.4956,3.4101,3.2784,3.3815,3.3848,3.3042,3.4073,3.3809,3.254,3.1863,3.1413,3.1223,3.1223,3.1913,3.2991,0.0,0.0,0.0,0.0,0.0,0.0,0.0,0.0,0.0,4.013,4.1027,4.1931,4.1196,4.1593,4.2286,4.2303,4.3301,4.4654,4.6007,4.7564,4.9289,5.12,5.1539,5.1691,5.2587,5.1944,5.1269,5.1589,5.093,5.0135,4.9526,4.956,4.9509,4.9069,4.9001,4.9001,4.9001,4.8513,4.7655,4.6314,4.5199,4.3671,4.1543,4.0905,4.0247,3.9454,3.9388,3.9388,3.9388,3.8751,3.8078,3.7419,3.6791,3.6148,3.5504,3.5504,3.5504,3.5504,3.5504,3.5504,3.5504,3.5504,3.5504,3.5504,3.5504,3.5504,3.5504,3.5504,3.5504,3.5504,3.5504,3.5504,3.5504,0.0,0.0,0.0,0.0,0.0,0.0,0.0,0.0,0.0,0.0,0.0,0.0,0.0,0.0,0.0,0.0,0.0,0.0,0.0,0.0,3.2466,3.3056,3.3709,3.4582,3.5718,3.5617,3.583,3.6329,3.5793,3.4854,3.372,3.4863,3.478,3.3648,3.4836,3.5069,3.4522,3.288,3.1854,3.1356,3.1356,3.1045,3.0723,3.2028,0.0,0.0,0.0,0.0,0.0,0.0,0.0,0.0,3.9714,4.0096,4.0451,4.1737,4.2185,4.2743,4.484,4.5551,4.6244,4.846,4.9661,5.0659,5.208,5.2926,5.3399,5.3399,5.2334,5.1623,5.23,5.071,4.9509,5.0101,4.9576,4.9086,4.9018,4.9001,4.9001,4.9001,4.9001,4.8257,4.6384,4.5026,4.3472,4.1558,4.0217,3.9448,3.9388,3.9328,3.9334,3.9334,3.8661,3.7988,3.733,3.6761,3.6148,3.5504,3.5504,3.5504,3.5504,3.5504,3.5504,3.5504,3.5504,3.5504,3.5504,3.5504,3.5504,3.5504,3.5504,3.5504,3.5504,3.5504,3.5504,3.5489,0.0,0.0,0.0,0.0,0.0,0.0,0.0,0.0,0.0,0.0,0.0,0.0,0.0,0.0,0.0,0.0,0.0,0.0,0.0,0.0,3.2466,3.3056,3.4437,3.5879,3.7515,3.6671,3.6031,3.5671,3.5558,3.5344,3.5053,3.4907,3.4707,3.4442,3.4302,3.4186,3.4035,3.3208,3.281,3.2698,3.2698,3.232,3.1707,3.0793,3.108,0.0,0.0,0.0,0.0,0.0,0.0,0.0,3.8859,3.9986,4.0899,4.0654,4.1399,4.2405,4.2895,4.4333,4.6244,4.846,5.0422,5.208,5.3027,5.2892,5.2553,5.2553,5.2807,5.3061,5.3213,5.2334,5.1454,5.1048,5.0338,4.9661,4.9086,4.9001,4.9001,4.9001,4.9001,4.8257,4.6384,4.5474,4.3992,4.1588,4.0651,3.9963,3.9454,3.8901,3.8616,3.8616,3.7958,3.7315,3.6686,3.6552,3.6148,3.5504,3.5504,3.5504,3.5504,3.5504,3.5504,3.5504,3.5504,3.5504,3.5504,3.5504,3.5504,3.5504,3.5504,3.5504,3.5504,3.5504,3.5504,3.5429,0.0,0.0,0.0,0.0,0.0,0.0,0.0,0.0,0.0,0.0,0.0,0.0,0.0,0.0,0.0,0.0,0.0,0.0,0.0,0.0,3.271,3.4659,3.5787,3.7181,3.8903,3.8392,3.7898,3.7595,3.7306,3.6333,3.4705,3.4726,3.4575,3.4336,3.4575,3.4399,3.3884,3.3596,3.3319,3.3124,3.3124,3.2729,3.2068,3.0996,3.0539,3.0421,2.9842,0.0,0.0,0.0,0.0,0.0,0.0,0.0,4.0167,4.0528,4.1422,4.2698,4.4441,4.5788,4.7347,4.9919,5.199,5.3314,5.3008,5.2604,5.2198,5.186,5.2706,5.3281,5.2536,5.2063,5.1539,5.0794,5.005,4.9441,4.9052,4.9001,4.9001,4.9001,4.9001,4.8124,4.5918,4.5106,4.3661,4.11,4.0307,3.9783,3.9439,3.908,3.8736,3.8407,3.8063,3.7419,3.6492,3.6492,3.6148,3.5504,3.5504,3.5504,3.5504,3.5504,3.5504,3.5504,3.5504,3.5504,3.5504,3.5504,3.5504,3.5504,3.5504,3.5504,3.5504,3.5504,3.5504,3.5459,0.0,0.0,0.0,0.0,0.0,0.0,0.0,0.0,0.0,0.0,0.0,0.0,0.0,0.0,0.0,0.0,0.0,0.0,0.0,0.0,0.0,3.6184,3.6981,3.8094,3.9719,3.9733,3.9733,3.9733,3.9044,3.7356,3.4809,3.4825,3.4552,3.4073,3.4756,3.4618,3.3884,3.3796,3.3495,3.3124,3.3124,3.2667,3.1972,3.1125,3.0082,2.9068,2.9199,2.9369,2.9808,3.1541,0.0,0.0,0.0,0.0,3.8776,4.0346,4.1327,4.2625,4.5954,4.741,4.8761,5.19,5.3433,5.3917,5.276,5.2297,5.1911,5.1166,5.2147,5.2723,5.1454,5.1116,5.0811,5.0185,4.9475,4.9001,4.9001,4.9001,4.9001,4.9001,4.9001,4.8054,4.5658,4.4663,4.3229,4.0816,3.9856,3.9364,3.9245,3.914,3.8766,3.8078,3.7943,3.7389,3.6327,3.6312,3.6043,3.5504,3.5504,3.5504,3.5504,3.5504,3.5504,3.5504,3.5504,3.5504,3.5504,3.5504,3.5504,3.5504,3.5504,3.5504,3.5504,3.5504,3.5504,3.5489,0.0,0.0,0.0,0.0,0.0,0.0,0.0,0.0,0.0,0.0,0.0,0.0,0.0,0.0,0.0,0.0,0.0,0.0,0.0,0.0,0.0,3.5656,3.6713,3.788,3.907,3.907,3.907,3.9113,3.7938,3.7759,3.8443,3.6447,3.5171,3.4575,3.3771,3.3583,3.3872,3.3382,3.3187,3.3124,3.3124,3.2441,3.1281,2.9308,2.8988,2.9425,2.762,2.8159,2.9934,3.0968,3.1933,0.0,0.0,0.0,3.7046,3.8732,3.9776,4.0768,4.253,4.5892,4.9706,5.3309,5.3385,5.276,5.3239,5.2321,5.115,5.0388,5.093,5.1422,5.1251,5.0676,5.0202,5.0101,4.9475,4.9001,4.9001,4.9001,4.9001,4.9001,4.9001,4.8291,4.6503,4.5046,4.3468,4.1666,4.0222,3.9155,3.8556,3.7988,3.7389,3.6761,3.6193,3.5804,3.5639,3.5639,3.5594,3.5504,3.5504,3.5504,3.5504,3.5504,3.5504,3.5504,3.5504,3.5504,3.5504,3.5504,3.5504,3.5504,3.5504,3.5504,3.5504,3.5504,3.5504,3.5429,0.0,0.0,0.0,0.0,0.0,0.0,0.0,0.0,0.0,0.0,0.0,0.0,0.0,0.0,0.0,3.0994,0.0,0.0,0.0,0.0,0.0,3.5061,3.5923,3.7306,3.9401,3.9415,3.9701,4.0333,3.9768,3.9851,4.0504,3.9158,3.7721,3.623,3.5388,3.4566,3.3859,3.3307,3.3124,3.3124,3.3124,3.2403,3.1223,2.9635,2.8609,2.7799,2.6853,2.7139,2.8119,2.9137,3.0453,3.1816,3.2708,0.0,0.0,0.0,3.8393,4.0774,4.39,4.7119,5.0216,5.2671,5.3084,5.2907,5.2822,5.2263,5.1541,5.0806,5.058,5.0423,5.0028,5.0033,4.9949,4.9543,4.9221,4.9001,4.9001,4.9001,4.9001,4.9001,4.9001,4.8202,4.6152,4.5341,4.3894,4.1336,4.0159,3.9237,3.8442,3.7764,3.712,3.6507,3.6207,3.5878,3.5504,3.5504,3.5504,3.5504,3.5504,3.5504,3.5504,3.5504,3.5504,3.5504,3.5504,3.5504,3.5504,3.5504,3.5504,3.5504,3.5504,3.5504,3.5504,3.5504,3.5504,3.5459,0.0,0.0,0.0,0.0,0.0,0.0,0.0,0.0,0.0,0.0,0.0,0.0,0.0,0.0,0.0,0.0,3.0798,0.0,0.0,0.0,0.0,3.4277,3.5147,3.6589,3.8684,3.9272,4.0003,4.0997,4.0927,4.1388,4.2289,4.1543,4.0543,3.9214,3.7504,3.5747,3.4073,3.352,3.3282,3.3257,3.2968,3.2265,3.1292,3.0036,2.8616,2.7261,2.6689,2.6678,2.7046,2.7844,2.9137,3.0518,3.1018,3.2581,0.0,0.0,0.0,4.0109,4.4392,4.6969,4.8932,5.1178,5.2288,5.279,5.2631,5.2383,5.2095,5.1785,5.0943,5.025,5.015,4.9971,4.9644,4.9086,4.9001,4.9001,4.9001,4.9001,4.9001,4.9001,4.9001,4.8178,4.6034,4.5619,4.4252,4.1241,4.0222,3.9253,3.8207,3.7524,3.6881,3.6252,3.6237,3.5998,3.5504,3.5504,3.5504,3.5504,3.5504,3.5504,3.5504,3.5504,3.5504,3.5504,3.5504,3.5504,3.5504,3.5504,3.5504,3.5504,3.5504,3.5504,3.5504,3.5504,3.5504,3.5504,0.0,0.0,0.0,0.0,0.0,0.0,0.0,0.0,0.0,0.0,0.0,0.0,2.6928,2.8968,2.9979,2.8976,2.9954,3.0871,3.1361,3.1901,0.0,3.3172,3.4738,0.0,3.5814,3.781,3.9188,3.9873,3.9639,4.1107,4.4146,4.2916,4.2998,4.4018,3.9384,3.6332,3.4638,3.4085,3.3859,3.3759,3.2692,3.1913,3.1201,2.9571,2.9225,2.9339,2.7261,2.7168,2.8016,2.8084,2.8164,2.86,3.0593,3.1315,3.1738,0.0,0.0,0.0,4.1376,4.3076,4.4807,4.9126,5.0784,5.1697,5.3109,5.2794,5.2422,5.322,5.2139,5.1494,5.2988,5.0968,4.9035,4.9018,4.9001,4.9001,4.9001,4.9001,4.9001,4.9001,4.9001,4.8379,4.6862,4.5993,4.4523,4.2093,4.0537,3.9039,3.7514,3.6866,3.6237,3.5579,3.5549,3.5549,3.5504,3.5504,3.5504,3.5504,3.5504,3.5504,3.5504,3.5504,3.5504,3.5504,3.5504,3.5504,3.5504,3.5504,3.5504,3.5504,3.5504,3.5504,3.5504,3.5504,3.5504,3.5504,0.0,0.0,0.0,0.0,0.0,0.0,0.0,0.0,0.0,0.0,0.0,0.0,0.0,2.8556,2.8821,2.929,3.0421,3.1336,3.1888,3.2453,0.0,3.3111,3.4005,3.4835,3.5534,3.6303,3.7269,3.8505,3.8414,3.9761,4.2432,4.2425,4.2488,4.2581,4.0144,3.8094,3.6402,3.4616,3.3696,3.3332,3.293,3.2428,3.1726,3.0108,2.9629,2.9511,2.7286,2.6964,2.7511,2.719,2.7522,2.8243,2.8981,3.0139,3.1533,3.3293,3.4676,3.6243,3.9124,4.0906,4.2721,4.5744,4.7762,4.9405,5.0911,5.1711,5.2521,5.3826,5.2822,5.2082,5.3164,5.1337,4.9835,5.0381,4.964,4.9001,4.9001,4.9001,4.9001,4.9001,4.9001,4.8426,4.6938,4.6514,4.5133,4.2238,4.069,3.9168,3.7488,3.6417,3.5744,3.5519,3.5504,3.5504,3.5504,3.5504,3.5504,3.5504,3.5504,3.5504,3.5504,3.5504,3.5504,3.5504,3.5504,3.5504,3.5504,3.5504,3.5504,3.5504,3.5504,3.5504,3.5504,3.5504,3.5504,3.5504,0.0,0.0,0.0,0.0,0.0,0.0,0.0,0.0,0.0,3.1122,0.0,0.0,0.0,0.0,2.9616,3.0694,3.1521,3.219,3.2742,3.3307,3.3633,3.3633,3.3985,3.4709,3.5811,3.5951,3.6715,3.8145,3.826,3.9408,4.1384,4.1871,4.211,4.2167,4.0815,3.9284,3.7545,3.5353,3.4135,3.3583,3.3018,3.2554,3.2068,3.0829,3.033,3.0108,2.8261,2.7851,2.8008,2.7245,2.7589,2.8345,2.8357,2.9454,3.1031,3.2496,3.3377,3.4317,3.6426,3.8232,4.0084,4.2309,4.4591,4.6867,4.9123,5.0524,5.195,5.4045,5.3627,5.3199,5.427,5.2865,5.1567,5.1626,5.0592,4.9752,4.9752,4.9321,4.9001,4.9001,4.9001,4.8528,4.7293,4.6938,4.5571,4.2591,4.0891,3.9251,3.7507,3.6193,3.5504,3.5504,3.5504,3.5504,3.5504,3.5504,3.5504,3.5504,3.5504,3.5504,3.5504,3.5504,3.5504,3.5504,3.5504,3.5504,3.5504,3.5504,3.5504,3.5504,3.5504,3.5504,3.5504,3.5504,3.5504,3.5504,0.0,0.0,0.0,0.0,0.0,0.0,0.0,0.0,3.3577,3.3051,0.0,0.0,0.0,0.0,0.0,3.3057,3.3106,3.3332,3.3884,3.4424,3.4726,3.4705,0.0,0.0,3.6505,3.6891,3.7676,3.8818,3.9195,4.0046,4.1324,4.1339,4.2043,4.323,4.1401,3.969,3.8028,3.6259,3.5203,3.4562,3.2943,3.229,3.2227,3.1675,3.1474,3.1364,3.0295,2.9863,2.964,2.8384,2.8372,2.891,2.8816,2.9285,2.9972,3.0895,3.118,3.1569,0.0,0.0,0.0,3.8936,4.1333,4.4133,4.7857,4.924,5.0624,5.3839,5.4383,5.4781,5.6473,5.5593,5.4147,5.266,5.1826,5.1361,5.1333,5.0022,4.9066,4.9035,4.9018,4.8714,4.7956,4.7242,4.5771,4.3298,4.1195,3.9267,3.7507,3.6193,3.5504,3.5504,3.5504,3.5504,3.5504,3.5504,3.5504,3.5504,3.5504,3.5504,3.5504,3.5504,3.5504,3.5504,3.5504,3.5504,3.5504,3.5504,3.5504,3.5504,3.5504,3.5504,3.5504,3.5504,3.5504,3.5504,0.0,0.0,0.0,0.0,0.0,0.0,3.6531,3.5971,3.5449,0.0,0.0,0.0,3.1609,3.1494,3.2047,3.3558,3.3671,3.3909,3.4462,3.4638,3.4856,3.5257,3.527,3.5825,3.7056,3.719,3.7771,3.8818,3.8913,3.9303,3.9963,4.0442,4.0861,4.1227,4.0739,4.0018,3.9047,3.6944,3.5333,3.4123,3.406,3.4035,3.3972,3.342,3.3458,3.3652,3.258,3.1669,3.0834,3.0107,2.9407,2.8973,2.9371,2.9658,2.9869,3.0101,3.0658,3.1315,3.1775,0.0,0.0,0.0,0.0,0.0,4.3434,4.5024,4.7095,5.122,5.1588,5.212,5.5324,5.5609,5.5354,5.5538,5.4076,5.272,5.2155,5.1267,5.0433,4.9873,4.9323,4.8714,4.7956,4.7242,4.5771,4.3298,4.1613,3.977,3.7522,3.6193,3.5504,3.5504,3.5504,3.5504,3.5504,3.5504,3.5504,3.5504,3.5504,3.5504,3.5504,3.5504,3.5504,3.5504,3.5504,3.5504,3.5504,3.5504,3.5504,3.5504,3.5504,3.5504,3.5504,3.5504,3.5504,3.5504,0.0,0.0,0.0,0.0,0.0,3.8643,3.828,3.7559,3.6847,0.0,0.0,0.0,3.3613,3.3202,3.3424,3.446,3.4587,3.4826,3.5366,3.5403,3.5759,3.6557,3.6307,3.7114,3.9061,3.8538,3.8766,3.9856,3.9592,3.9453,3.9388,4.0098,4.0247,4.0001,4.0318,3.9871,3.8781,3.7729,3.6383,3.4904,3.5007,3.4889,3.4688,3.4361,3.4449,3.4638,3.3985,3.3201,3.2301,3.15,3.0303,2.9284,2.9926,2.998,2.9792,2.9792,3.0177,3.0633,3.0633,3.1629,3.2891,3.3752,0.0,0.0,4.0001,4.1544,4.3601,4.7922,4.8928,5.0002,5.3193,5.4254,5.5076,5.6197,5.5522,5.4635,5.3918,5.2623,5.1487,5.0686,4.9912,4.9171,4.8443,4.7411,4.5904,4.3733,4.1965,3.9833,3.7162,3.6058,3.5504,3.5504,3.5504,3.5504,3.5504,3.5504,3.5504,3.5504,3.5504,3.5504,3.5504,3.5504,3.5504,3.5504,3.5504,3.5504,3.5504,3.5504,3.5504,3.5504,3.5504,3.5504,3.5504,3.5504,3.5504,3.5504,0.0,0.0,0.0,4.331,4.1802,4.0439,4.0851,3.9414,3.8135,0.0,3.7308,3.6835,3.5871,3.5658,3.5608,3.5671,3.5621,3.5843,3.6367,3.6405,3.6883,3.8062,3.753,3.8542,4.143,4.0368,4.0348,4.1422,4.0786,4.0217,3.9649,4.0083,4.0023,3.9508,4.0068,3.9439,3.8023,3.8548,3.7968,3.6598,3.6104,3.557,3.507,3.507,3.4992,3.4901,3.4901,3.4512,3.3783,3.2523,3.1181,3.0086,3.0549,3.0369,2.9967,2.9905,2.988,2.9867,2.9817,3.0419,3.12,3.1915,3.2817,0.0,3.7222,3.8446,4.0078,4.4118,4.5963,4.7639,5.0109,5.1765,5.3249,5.4684,5.5769,5.6309,5.598,5.4115,5.2492,5.1755,5.0815,4.9986,4.9325,4.7759,4.6088,4.4312,4.1965,3.9421,3.6742,3.5893,3.5504,3.5504,3.5504,3.5504,3.5504,3.5504,3.5504,3.5504,3.5504,3.5504,3.5504,3.5504,3.5504,3.5504,3.5504,3.5504,3.5504,3.5504,3.5504,3.5504,3.5504,3.5504,3.5504,3.5504,3.5504,3.5504,0.0,0.0,4.2081,4.4052,4.3491,4.2512,4.1741,4.0836,4.0013,3.9472,3.8089,3.7274,3.75,3.6734,3.6383,3.6822,3.6458,3.6292,3.6405,3.6405,3.6883,3.8062,3.7957,3.8817,4.0756,4.1083,4.1277,4.1422,4.125,4.113,4.098,4.0053,3.9828,4.0187,3.9783,3.942,3.9119,3.9201,3.9153,3.8912,3.8449,3.7896,3.7429,3.7429,3.6862,3.6091,3.6091,3.5403,3.4304,3.2722,3.2276,3.2299,3.1467,3.116,3.0997,3.0583,3.0457,3.0357,2.9917,2.9934,3.0267,3.1189,3.1566,0.0,3.4252,3.4808,3.6056,3.9971,4.1009,4.232,4.5932,4.7867,4.9019,4.9387,5.2028,5.4677,5.6433,5.5795,5.4821,5.403,5.2242,5.103,5.0875,4.8387,4.6088,4.4312,4.0404,3.7839,3.7274,3.6133,3.5504,3.5504,3.5504,3.5504,3.5504,3.5504,3.5504,3.5504,3.5504,3.5504,3.5504,3.5504,3.5504,3.5504,3.5504,3.5504,3.5504,3.5504,3.5504,3.5504,3.5504,3.5504,3.5504,3.5504,3.5504,3.5504,0.0,4.2822,4.3265,4.555,4.5142,4.4231,4.3687,4.2747,4.1705,4.0494,3.9025,3.8027,3.8002,3.7513,3.7186,3.7186,3.6732,3.6405,3.6405,3.6405,3.7163,3.8917,3.8664,3.9573,4.1902,4.1659,4.1642,4.1916,4.1205,4.0891,4.0876,4.0217,3.9723,3.9409,3.9753,3.9529,3.8931,3.9275,3.9617,3.9964,3.9461,3.9142,3.9006,3.9006,3.8662,3.8088,3.7461,3.6302,3.4919,3.3803,3.3294,3.3023,3.2416,3.1851,3.1336,3.1085,3.0821,3.0557,3.0281,2.9993,2.9895,3.0381,3.0482,0.0,0.0,3.2496,3.3388,3.6594,3.7259,3.8215,4.1347,4.3219,4.4637,4.5764,4.8564,5.1147,5.2678,5.4205,5.5008,5.4639,5.2614,5.1084,5.0685,4.8634,4.6321,4.3845,4.0193,3.7849,3.7404,3.6193,3.5504,3.5504,3.5504,3.5504,3.5504,3.5504,3.5504,3.5504,3.5504,3.5504,3.5504,3.5504,3.5504,3.5504,3.5504,3.5504,3.5504,3.5504,3.5504,3.5504,3.5504,3.5504,3.5504,3.5504,3.5504,3.5504,4.2691,4.3421,4.4303,4.6873,4.6447,4.5779,4.5779,4.4688,4.3229,4.1526,4.0208,3.922,3.8751,3.8276,3.7864,3.7538,3.6857,3.6455,3.6556,3.6468,3.7284,3.9328,3.9094,4.0011,4.2377,4.1771,4.1617,4.2021,4.092,4.0472,4.0591,4.0337,3.9694,3.8826,3.9783,3.9604,3.8631,3.932,3.9993,4.0562,4.0261,4.0028,3.9868,3.998,3.9892,3.9589,3.8608,3.7221,3.5691,3.5079,3.4199,3.3357,3.3187,3.2453,3.1687,3.1587,3.1248,3.0871,3.067,3.0281,2.993,2.9817,2.9792,2.996,0.0,0.0,0.0,3.3401,3.3875,3.4531,3.6793,3.8517,4.0196,4.2029,4.4616,4.6719,4.7501,5.0469,5.2874,5.3842,5.2206,5.0795,5.031,4.8537,4.6234,4.3314,4.0509,3.8455,3.7439,3.6312,3.5639,3.5504,3.5504,3.5504,3.5504,3.5504,3.5504,3.5504,3.5504,3.5504,3.5504,3.5504,3.5504,3.5504,3.5504,3.5504,3.5504,3.5504,3.5504,3.5504,3.5504,3.5504,3.5504,3.5504,3.5504,3.5504,4.2378,4.3178,4.4303,4.6873,4.7164,4.7062,0.0,0.0,4.472,4.3359,4.2074,4.1287,4.1222,3.9252,3.8191,3.8693,3.7297,3.6619,3.7061,3.6681,3.6759,3.7546,3.8431,3.9032,3.932,4.0698,4.113,4.0621,4.0472,4.0696,4.125,4.0083,3.9768,4.0157,3.9723,3.9454,3.9349,4.0008,4.0666,4.1324,4.1852,4.1091,3.9693,4.0292,3.9913,3.9014,3.8928,3.8024,3.6781,3.5824,3.5053,3.4361,3.3382,3.2993,3.278,3.2265,3.2077,3.1825,3.0871,3.057,3.0407,2.9917,2.9792,2.9573,2.8652,0.0,2.8773,2.9885,0.0,3.0755,3.2872,0.0,0.0,3.6144,3.9184,4.1868,4.2886,4.445,4.6995,5.1177,5.0801,5.0454,5.1078,4.7892,4.5026,4.3233,4.0917,3.8946,3.7469,3.6746,3.6103,3.5534,3.5504,3.5504,3.5504,3.5504,3.5504,3.5504,3.5504,3.5504,3.5504,3.5504,3.5504,3.5504,3.5504,3.5504,3.5504,3.5504,3.5504,3.5504,3.5504,3.5504,3.5504,3.5504,3.5504,3.5504,4.3899,4.3841,4.4303,4.6873,4.7309,0.0,0.0,0.0,4.5207,4.4688,4.3504,4.2689,4.2689,4.0852,3.9718,3.9964,3.8074,3.6935,3.7174,3.6719,3.6828,3.7706,3.8847,3.9606,3.9848,4.0888,4.125,4.0965,4.0202,4.0172,4.0786,3.9858,3.9574,3.9828,3.9544,3.9634,4.0008,4.0277,4.0786,4.1399,4.1722,4.1326,4.0733,4.1381,4.0677,3.9305,3.9346,3.8602,3.756,3.754,3.6862,3.5992,3.5305,3.461,3.3872,3.298,3.2466,3.2114,3.1662,3.1311,3.1009,3.0771,3.0495,3.0138,2.9665,2.8814,2.8414,2.9447,0.0,0.0,0.0,0.0,0.0,0.0,3.6116,3.8278,3.8701,4.0526,4.367,4.8688,4.8234,4.7797,4.8602,4.72,4.5218,4.2719,4.0881,3.8995,3.6997,3.6267,3.5789,3.5519,3.5504,3.5504,3.5504,3.5504,3.5504,3.5504,3.5504,3.5504,3.5504,3.5504,3.5504,3.5504,3.5504,3.5504,3.5504,3.5504,3.5504,3.5504,3.5504,3.5504,3.5504,3.5504,3.5504,3.5504,4.5257,4.463,4.4489,4.6887,4.7309,4.7309,4.7309,4.6535,4.5928,4.5928,4.4826,4.4092,4.4246,4.2678,4.1496,4.1293,3.9395,3.7975,3.7461,3.6945,3.6781,3.7144,3.8769,3.9564,3.9392,4.0542,4.1025,4.0846,3.9888,3.9753,4.0382,3.9723,3.9514,3.9694,3.9694,3.9948,4.0427,4.0786,4.1205,4.1692,4.1692,4.1467,4.119,4.1886,4.1178,3.9852,4.0027,3.9213,3.8184,3.8685,3.8075,3.7029,3.6558,3.5811,3.4966,3.4178,3.355,3.3042,3.2724,3.2263,3.1775,3.1461,3.111,3.0703,3.0248,2.9185,2.8551,2.9379,2.8906,0.0,0.0,0.0,3.1274,3.2036,0.0,3.5073,3.5522,3.7175,4.018,4.508,4.545,4.5609,4.6354,4.6465,4.536,4.2617,4.1094,3.9266,3.694,3.6144,3.5684,3.5504,3.5504,3.5504,3.5504,3.5504,3.5504,3.5504,3.5504,3.5504,3.5504,3.5504,3.5504,3.5504,3.5504,3.5504,3.5504,3.5504,3.5504,3.5504,3.5504,3.5504,3.5504,3.5504,3.5504,3.5504,4.589,4.5244,4.5009,4.6958,4.7309,4.7309,4.7309,4.7266,4.7251,4.7251,4.6107,4.5588,4.6238,4.4612,4.3238,4.2594,4.1461,3.9982,3.8101,3.7462,3.6493,3.4884,3.7441,3.8131,3.6375,3.9054,4.0113,3.9448,3.9403,3.9753,4.0382,3.9723,3.9768,4.0367,4.0367,4.0382,4.0487,4.1796,4.2351,4.2366,4.2366,4.1602,4.0502,4.116,4.0995,4.0479,4.1107,4.0156,3.8595,3.873,3.8034,3.7014,3.6407,3.6186,3.6172,3.6119,3.5791,3.5134,3.4029,3.3392,3.2797,3.1662,3.1386,3.0966,2.9328,2.8898,2.8886,2.8927,2.8886,2.9381,3.1019,3.0974,3.0913,3.186,3.1638,0.0,0.0,3.4124,3.5702,3.9774,4.2785,4.4809,4.5474,4.568,4.5064,4.3402,4.184,3.996,3.77,3.6864,3.6163,3.5534,3.5504,3.5504,3.5504,3.5504,3.5504,3.5504,3.5504,3.5504,3.5504,3.5504,3.5504,3.5504,3.5504,3.5504,3.5504,3.5504,3.5504,3.5504,3.5504,3.5504,3.5504,3.5504,3.5504,3.5504,4.6102,4.5951,4.5882,4.652,4.701,4.7309,4.7309,4.6935,4.698,4.7848,4.7614,4.7569,4.8265,4.7004,4.5822,4.5183,4.3642,4.2249,4.116,3.9781,3.8574,3.7658,3.9199,3.9428,3.8007,4.0446,4.1422,4.0711,4.0711,4.0831,4.104,4.0382,4.0427,4.101,4.0142,4.0472,4.1737,4.1752,4.2207,4.297,4.2575,4.1871,4.098,4.0337,3.9948,3.9783,4.0008,3.9646,3.9202,3.9682,3.931,3.8545,3.8053,3.7632,3.7137,3.6408,3.6071,3.5724,3.4698,3.4559,3.4327,3.2891,3.2546,3.2269,3.1294,2.9961,2.9222,3.0347,2.9666,2.9405,3.111,3.0972,3.0687,3.1005,3.1135,3.1426,0.0,3.3206,3.4907,3.7388,4.0769,4.2615,4.1918,4.2749,4.2273,3.9783,3.9109,3.8059,3.6305,3.5982,3.5729,3.5519,3.5504,3.5504,3.5504,3.5504,3.5504,3.5504,3.5504,3.5504,3.5504,3.5504,3.5504,3.5504,3.5504,3.5504,3.5504,3.5504,3.5504,3.5504,3.5504,3.5504,3.5504,3.5504,3.5504,3.5504,4.6232,4.6516,4.6681,4.6681,4.7025,4.7309,4.7309,4.7145,4.7414,4.8491,4.8685,4.897,4.9868,4.8839,4.7707,4.6807,4.5448,4.406,4.2787,4.1569,4.0254,3.8885,4.0064,4.0035,3.8614,4.0657,4.165,4.1422,4.1422,4.1542,4.1752,4.0816,4.0756,4.1324,4.0247,4.0606,4.2036,4.1856,4.2342,4.3245,4.2626,4.1871,4.0935,4.0083,3.9634,3.9388,3.9388,3.9388,3.9484,3.9903,3.9768,3.9339,3.9119,3.8719,3.8219,3.7534,3.7201,3.6898,3.603,3.5801,3.5493,3.4277,3.3799,3.3458,3.2692,3.1437,3.0624,3.1514,3.0828,3.0453,3.1751,3.1549,3.1122,3.0922,3.0931,3.103,0.0,3.282,3.439,3.548,3.8532,4.0277,3.9595,4.0654,4.0464,3.8292,3.7842,3.717,3.5957,3.5636,3.5504,3.5504,3.5504,3.5504,3.5504,3.5504,3.5504,3.5504,3.5504,3.5504,3.5504,3.5504,3.5504,3.5504,3.5504,3.5504,3.5504,3.5504,3.5504,3.5504,3.5504,3.5504,3.5504,3.5504,3.5504,3.5504,4.6324,4.6875,4.7309,4.7309,4.7249,4.7219,4.7294,4.7863,4.8536,4.9269,4.9419,4.9883,5.1139,5.0122,4.8891,4.7586,4.69,4.5484,4.3087,4.2879,4.1571,3.8706,4.0093,4.0055,3.8228,3.9849,4.0996,4.1474,4.1474,4.1826,4.2425,4.11,4.0816,4.1354,4.0726,4.0786,4.1429,4.2126,4.2746,4.323,4.262,4.1602,4.0442,4.0382,3.9963,3.9388,3.9388,3.9388,3.9388,3.9388,3.9388,3.9388,3.9388,3.9388,3.9388,3.9388,3.9098,3.8592,3.7949,3.7109,3.6293,3.5669,3.5161,3.4514,3.3406,3.3154,3.2918,3.2365,3.2227,3.2378,3.293,3.2566,3.1989,3.1436,3.0922,3.071,3.1147,3.2749,3.391,3.3993,3.6075,3.7776,3.849,3.9313,3.9518,3.877,3.8012,3.7281,3.6585,3.5894,3.5504,3.5504,3.5504,3.5504,3.5504,3.5504,3.5504,3.5504,3.5504,3.5504,3.5504,3.5504,3.5504,3.5504,3.5504,3.5504,3.5504,3.5504,3.5504,3.5504,3.5504,3.5504,3.5504,3.5504,3.5504,3.5504,4.7055,4.7189,4.7309,4.7309,4.6486,4.6142,4.716,4.7863,4.8686,4.9838,5.084,5.1573,5.1917,5.1214,5.0224,4.8905,4.8223,4.7303,4.6197,4.5203,4.3958,4.2317,4.2563,4.2081,4.0713,4.1953,4.2654,4.2836,4.2836,4.291,4.306,4.2252,4.1722,4.1407,4.1205,4.122,4.1429,4.2126,4.2746,4.3185,4.2087,4.1467,4.1025,4.0053,3.9574,3.9388,3.9388,3.9388,3.9388,3.9388,3.9388,3.9388,3.9388,3.9388,3.9388,3.9388,3.9296,3.8988,3.8075,3.7926,3.7758,3.6372,3.5951,3.5596,3.4536,3.367,3.3074,3.288,3.2516,3.2252,3.2403,3.1976,3.1424,3.0896,3.0357,3.0266,3.1095,3.1609,3.2464,3.3842,3.4563,3.5307,3.6232,3.6979,3.7109,3.6406,3.6184,3.5995,3.5782,3.5619,3.5504,3.5504,3.5504,3.5504,3.5504,3.5504,3.5504,3.5504,3.5504,3.5504,3.5504,3.5504,3.5504,3.5504,3.5504,3.5504,3.5504,3.5504,3.5504,3.5504,3.5504,3.5504,3.5504,3.5504,3.5504,3.5504,4.7309,4.7309,4.7309,4.7309,4.692,4.686,4.7623,4.8057,4.876,5.0016,5.0838,5.1454,5.1738,5.093,5.0062,4.9374,4.8401,4.7698,4.7324,4.6638,4.5565,4.4109,4.369,4.3027,4.2061,4.238,4.2805,4.329,4.329,4.329,4.329,4.2671,4.2051,4.1422,4.1422,4.1422,4.1482,4.2387,4.3,4.32,4.2222,4.1677,0.0,4.0247,3.9664,3.9388,3.9388,3.9388,3.9388,3.9388,3.9388,3.9388,3.9388,3.9388,3.9388,3.9388,3.9388,3.9265,3.8671,3.8609,3.847,3.7487,3.7126,3.6768,3.5938,3.4921,3.4093,3.3849,3.3527,3.3296,3.3296,3.3175,3.2685,3.1421,3.074,3.0457,3.0558,3.0932,3.1742,3.3206,3.3739,3.4394,3.5392,3.5833,3.5908,3.5534,3.5774,3.5804,3.5519,3.5774,3.5804,3.5519,3.5789,3.5804,3.5504,3.5789,3.5789,3.5504,3.5504,3.5504,3.5504,3.5504,3.5504,3.5504,3.5504,3.5504,3.5504,3.5504,3.5504,3.5537,3.5863,3.5975,3.6038,3.6368,3.6085,3.5504,4.7309,4.7369,4.7399,4.7324,4.7923,4.8446,4.8536,4.8686,4.9239,5.042,5.0659,5.0898,5.1424,5.0301,4.9494,4.9329,4.8132,4.7399,4.7309,4.7309,4.6532,4.4908,4.4255,4.3617,4.2863,4.2256,4.2418,4.329,4.329,4.329,4.329,4.2746,4.2126,4.1422,4.1512,4.1459,4.1497,4.2827,4.3392,4.3332,4.2938,4.2357,4.1655,4.088,4.0145,3.9538,3.9445,3.9388,3.9388,3.9388,3.9388,3.9388,3.9388,3.9388,3.9388,3.9388,3.9388,3.9388,3.9388,3.9106,3.8765,3.8736,3.8371,3.7854,3.7326,3.6401,3.556,3.5017,3.4897,3.4884,3.4804,3.5018,3.4553,3.2553,3.1827,3.1224,3.0394,3.081,3.1609,3.2664,3.338,0.0,3.5392,3.5504,3.5504,3.5504,3.6028,3.6103,3.5534,3.6043,3.6088,3.5519,3.6058,3.6133,3.5639,3.6118,3.6118,3.5624,3.5549,3.5504,3.5504,3.5504,3.5504,3.5504,3.5504,3.5504,3.5504,3.5504,3.5554,3.5701,3.6368,3.6661,3.6843,3.7544,3.6951,3.5797,4.7309,4.7743,4.7938,4.7399,4.8297,4.9269,4.9762,5.081,5.1798,5.2561,5.3159,5.3339,5.289,5.1663,5.0436,4.9404,4.8566,4.7878,4.7339,4.7309,4.6924,4.6024,4.589,4.525,4.4032,4.3898,4.3652,4.329,4.329,4.329,4.329,4.317,4.2521,4.1399,4.1991,4.1931,4.1505,4.3065,4.3723,4.3781,4.446,4.4269,4.35,4.2082,4.1086,4.0363,3.9666,3.9388,3.9388,3.9388,3.9388,3.9388,3.9388,3.9388,3.9388,3.9388,3.9388,3.9388,3.9388,3.9339,3.9268,3.9268,3.8911,3.84,3.7825,3.723,3.6647,3.6057,3.5934,3.5783,3.5356,3.4972,3.4398,3.3468,3.3225,3.312,3.295,3.1941,3.1852,3.3553,3.3206,3.3533,3.5326,3.5504,3.5504,3.5504,3.5609,3.5624,3.5519,3.5609,3.5624,3.5504,3.5609,3.5878,3.6312,3.5893,3.5893,3.6312,3.5759,3.5504,3.5504,3.5504,3.5504,3.5504,3.5504,3.5504,3.5504,3.5504,3.5863,3.6415,3.6554,3.701,3.7602,3.7764,3.7618,3.7383,4.7369,4.7833,4.8297,4.8312,4.9134,5.0227,5.1558,5.2606,5.3099,5.2725,5.2665,5.2531,5.2202,5.1289,5.0666,5.0647,4.922,4.838,4.8633,4.7789,4.716,4.6845,4.6516,4.5858,4.484,4.4481,4.3947,4.329,4.329,4.329,4.329,4.2985,4.2312,4.1422,4.1834,4.2517,4.3366,4.4145,4.4689,4.5045,4.5173,4.4751,4.3996,4.2909,4.1742,4.0656,4.0205,3.9758,3.9388,3.9388,3.9388,3.9388,3.9388,3.9388,3.9388,3.9388,3.9388,3.9388,3.9388,3.9388,3.9388,3.9388,3.9217,3.9002,3.8693,3.8021,3.7388,3.7078,3.7021,3.7029,3.6993,3.6469,3.5791,3.4981,3.4242,3.3754,3.3631,3.2618,3.2464,3.3842,3.3602,3.3891,3.5359,3.5504,3.5504,3.5504,3.5818,3.5863,3.5519,3.5833,3.5863,3.5519,3.5833,3.6013,3.5983,3.5998,3.6198,3.6527,3.5851,3.5701,3.6054,3.5668,3.5504,3.5504,3.5504,3.5504,3.5537,3.5911,3.6275,3.6661,3.7467,3.8032,3.8414,3.8859,3.8995,3.8887,4.8093,4.8518,4.9075,4.9598,5.0331,5.1394,5.295,5.3892,5.3982,5.2785,5.2052,5.1588,5.1439,5.0794,5.0744,5.1605,4.974,4.8899,4.9832,4.8283,4.7369,4.7519,4.689,4.6217,4.5529,4.487,4.4122,4.329,4.329,4.3215,4.312,4.2746,4.2361,4.1896,4.2164,4.322,4.4941,4.5257,4.5745,4.6265,4.6067,4.5469,4.4577,4.3897,4.2619,4.1247,4.1046,4.0535,3.997,3.997,3.9702,3.9388,3.9388,3.9388,3.9388,3.9388,3.9388,3.9388,3.9388,3.9388,3.9388,3.9388,3.9388,3.9388,3.9388,3.8745,3.8144,3.8144,3.8144,3.8178,3.837,3.8078,3.752,3.6645,3.563,3.4816,3.4454,3.3676,3.3417,3.4225,3.4129,3.4394,3.5392,3.5504,3.5504,3.5504,3.5983,3.6058,3.5534,3.6133,3.6252,3.5729,3.6207,3.6297,3.5908,3.6315,3.6616,3.6801,3.6241,3.6305,3.6828,3.607,3.5718,3.5733,3.5554,3.5587,3.5782,3.6353,3.6783,3.7217,3.8425,3.8989,3.9236,3.9876,4.0096,3.9944,5.0331,5.0727,5.096,5.102,5.2067,5.2965,5.3159,5.4266,5.4835,5.4117,5.3428,5.277,5.2172,5.1528,5.1061,5.0901,4.9848,4.9398,4.9795,4.824,4.7578,4.8162,4.7563,4.6905,4.6204,4.5559,4.4586,4.329,4.329,4.303,4.25,4.3,4.3356,4.3598,4.3857,4.4095,4.439,4.5832,4.6519,4.6682,4.8082,4.7807,4.6438,4.5616,4.4335,4.2939,4.2157,4.1836,4.1772,4.1772,4.0706,3.9388,3.9388,3.9388,3.9388,3.9388,3.9388,3.9388,3.9388,3.9388,3.9388,3.9388,3.9388,3.9388,3.9388,3.9301,3.9265,3.9265,3.9265,3.9092,3.8512,3.8856,3.8985,3.8286,3.8077,3.7774,3.7134,3.5715,3.4931,3.532,3.4543,3.4394,3.5392,3.5504,3.5504,3.5504,3.5564,3.5564,3.5504,3.6133,3.6462,3.6402,3.6447,3.6731,3.7225,3.679,3.6894,3.7529,3.7548,3.7602,3.7661,3.6859,3.6492,3.6477,3.5782,3.5894,3.6492,3.6584,3.7408,3.8701,3.8854,3.9342,3.9995,4.007,4.0096,4.007,5.202,5.1972,5.1932,5.2321,5.283,5.3458,5.4266,5.4506,5.4589,5.464,5.4399,5.3956,5.33,5.3229,5.3463,5.4002,5.2738,5.1774,5.1505,4.9859,4.8787,4.8622,4.8363,4.8178,4.8176,4.745,4.6623,4.5694,4.5251,4.4908,4.4663,4.4045,4.3901,4.4185,4.4724,4.5534,4.6457,4.7104,4.7644,4.8094,4.8742,4.8392,4.7382,4.6576,4.5596,4.4459,4.3219,4.2716,4.2574,4.2141,4.1543,4.0876,4.0343,4.0185,4.008,3.9538,3.9388,3.9388,3.9388,3.9388,3.9388,3.9388,3.9388,3.9388,3.9388,3.9388,3.9388,3.9388,3.9388,3.9298,3.905,3.8901,3.8841,3.899,3.8332,3.7704,3.7449,3.6531,3.5792,3.5547,3.5133,3.5067,3.5472,3.5504,3.5504,3.5504,3.5504,3.5504,3.5504,3.6169,3.652,3.651,3.655,3.6656,3.6851,3.6687,3.6984,3.7719,3.7759,3.8035,3.8442,3.7674,3.707,3.6615,3.6783,3.6753,3.6661,3.7584,3.8325,3.8935,3.9437,3.9808,4.0096,4.0096,4.0096,4.0096,5.3377,5.3177,5.3097,5.3466,5.3653,5.416,5.5243,5.5005,5.479,5.5095,5.5404,5.521,5.421,5.4412,5.4947,5.5791,5.447,5.3447,5.3041,5.1366,5.0119,4.9584,4.9365,4.9418,4.9683,4.8978,4.8194,4.7317,4.6769,4.6304,4.5888,4.5377,4.5196,4.5364,4.6159,4.7178,4.821,4.821,4.8528,4.9001,4.9001,4.8578,4.7821,4.7327,4.6609,4.5768,4.4693,4.4144,4.3778,4.3241,4.2948,4.2583,4.1429,4.108,4.0927,4.006,3.9758,3.9737,3.9481,3.9388,3.9388,3.9388,3.9388,3.9388,3.9388,3.961,3.9864,4.0095,4.015,4.015,4.015,3.956,3.9234,3.9718,3.8777,3.7928,3.7719,3.715,3.6522,3.5863,3.5624,3.5504,3.5504,3.5504,3.5587,3.5814,3.5799,3.5799,3.5799,3.649,3.697,3.7157,3.7001,3.6891,3.6829,3.6909,3.7249,3.7822,3.8262,3.8734,3.9236,3.8486,3.7557,3.663,3.7456,3.7485,3.7054,3.837,3.9059,3.9315,3.9876,4.0096,4.0096,4.0096,4.0096,4.0096,5.4288,5.464,5.4744,5.4269,5.4745,5.531,5.584,5.5859,5.5812,5.5623,5.6522,5.6507,5.4794,5.4589,5.4753,5.51,5.4195,5.3712,5.3982,5.2391,5.146,5.1358,5.0726,5.0397,5.0397,4.9753,4.8695,4.7317,4.7301,4.658,4.5269,4.6812,4.7556,4.7589,4.8543,4.8984,4.8984,4.8984,4.9001,4.9001,4.9001,4.8578,4.7889,4.7872,4.7445,4.6786,4.6769,4.6283,4.5674,4.5657,4.5167,4.4253,4.2536,4.1997,4.1804,4.0946,4.0675,4.05,3.9646,3.9388,3.9388,3.9388,3.9388,3.9388,3.9388,4.006,4.0912,4.1804,4.1965,4.1965,4.1965,4.1264,4.0675,4.0675,3.994,3.9155,3.8467,3.7808,3.7165,3.6552,3.5893,3.5504,3.5504,3.5504,3.5814,3.6523,3.6584,3.6584,3.6584,3.7219,3.795,3.8743,3.7981,3.7591,3.7591,3.7715,3.7777,3.7822,3.9332,4.007,4.0045,3.9262,3.8044,3.663,3.7456,3.7777,3.7835,3.858,3.9368,4.007,4.0113,4.0096,4.0096,4.0096,4.0096,4.0096,5.7649,5.6873,5.6131,5.6522,5.6291,5.6132,5.6302,5.5964,5.5925,5.6612,5.6585,5.6601,5.6844,5.6849,5.6679,5.6275,5.6421,5.5601,5.3474,5.329,5.2807,5.1769,5.1545,5.1776,5.2503,5.1773,5.0908,4.9959,4.9959,4.9194,4.7811,4.8316,4.8293,4.784,4.8641,4.8731,4.8257,4.8257,4.8257,4.8223,4.7699,4.7953,4.8545,4.753,4.7631,4.8173,4.7158,4.6972,4.7111,4.6616,4.6278,4.5903,4.4849,4.3762,4.2724,4.1836,4.1609,4.1543,4.1262,4.074,4.0274,4.0274,3.9829,3.9388,3.9388,4.008,4.0946,4.1836,4.1997,4.1997,4.1997,4.1756,4.1609,4.1609,4.1346,4.0739,3.9596,3.8752,3.787,3.6703,3.5935,3.5504,3.5504,3.5943,3.6368,3.6584,3.7568,3.7947,3.7442,3.8097,3.8595,3.8786,3.914,3.9007,3.8426,3.9046,3.9086,3.8553,3.961,4.0096,4.0096,3.9833,3.9139,3.8213,3.9022,3.9049,3.8608,3.9411,3.9876,4.0096,4.0096,4.0096,4.0096,4.0096,4.0096,4.0096,5.8162,5.7469,5.6798,5.6877,5.6666,5.6573,5.6743,5.6466,5.6507,5.7371,5.6861,5.6692,5.7403,5.7239,5.7103,5.7205,5.7628,5.692,5.4575,5.4605,5.4153,5.2971,5.2655,5.2818,5.3501,5.2623,5.195,5.1623,5.1065,5.0473,4.9813,4.9272,4.89,4.8748,4.8934,4.8748,4.8294,4.8294,4.8294,4.8257,4.7513,4.7936,4.8866,4.7665,4.7953,4.8883,4.7953,4.775,4.7821,4.7378,4.7022,4.6667,4.594,4.503,4.3986,4.282,4.2489,4.2426,4.2093,4.1593,4.118,4.118,4.0758,4.0447,4.0774,4.1028,4.1543,4.2738,4.3,4.3,4.3,4.2707,4.2489,4.2489,4.2221,4.1597,4.0431,3.9629,3.8733,3.7541,3.7049,3.6676,3.6399,3.7032,3.7471,3.7454,3.8634,3.915,3.8701,3.9106,3.9336,3.9294,3.9517,3.9378,3.8852,3.9378,3.9396,3.8908,3.9731,4.0096,4.0096,4.0096,3.983,3.9374,3.9874,3.983,3.9402,3.99,4.0096,4.0096,4.0096,4.0096,4.0096,4.0096,4.0096,4.0096,5.6597,5.6853,5.6962,5.6008,5.6253,5.6727,5.7181,5.7242,5.7421,5.7856,5.7256,5.6799,5.6799,5.6207,5.6342,5.7695,5.7814,5.7476,5.6697,5.6055,5.5361,5.4549,5.3873,5.3501,5.3501,5.2435,5.2034,5.2268,5.0796,5.0473,5.1183,4.9695,4.9373,4.9982,4.9306,4.8968,4.8934,4.8934,4.8934,4.8866,4.8108,4.8308,4.8934,4.8189,4.8376,4.9001,4.9001,4.8578,4.7973,4.7973,4.7496,4.6752,4.6007,4.5737,4.5407,4.3837,4.3396,4.3199,4.2379,4.2125,4.2093,4.2093,4.2029,4.2221,4.3108,4.2676,4.2583,4.4253,4.4615,4.4615,4.4615,4.3948,4.3396,4.3396,4.2675,4.1836,4.1083,4.0362,3.964,3.8891,3.8873,3.8649,3.795,3.855,3.8965,3.8985,3.9715,4.014,4.0104,4.0154,4.0151,4.0104,3.9468,3.9104,3.8989,3.9088,3.9088,3.8989,3.9756,4.0096,4.0096,4.0146,4.0184,4.0178,4.0169,4.0175,4.0172,4.0127,4.0096,4.0096,4.0096,4.0096,4.0096,4.0096,4.0096,4.0096,5.8294,5.8001,5.7825,5.8151,5.784,5.7599,5.7728,5.7732,5.7756,5.7879,5.7256,5.6799,5.6799,5.6647,5.6681,5.7036,5.7053,5.6511,5.5209,5.548,5.5124,5.3822,5.3602,5.3501,5.3501,5.2435,5.1947,5.1995,5.0723,5.0473,5.1183,4.9695,4.9086,4.9255,4.9086,4.8697,4.8173,4.8173,4.8173,4.8105,4.7361,4.7834,4.8934,4.8189,4.8376,4.9001,4.9001,4.89,4.8748,4.8748,4.8257,4.753,4.6769,4.616,4.5522,4.4574,4.4281,4.4253,4.4035,4.3486,4.2986,4.2986,4.2489,4.2221,4.3108,4.3139,4.329,4.4384,4.4615,4.4615,4.4615,4.4412,4.4281,4.4281,4.3607,4.2796,4.2061,4.0849,3.9771,3.8979,3.8888,3.8825,3.8665,3.9361,3.9806,3.9809,4.0508,4.0693,4.0121,4.0626,4.0676,4.013,4.0997,4.0951,3.9825,4.0918,4.0918,3.9808,4.002,4.0096,4.013,4.0679,4.094,4.0935,4.0923,4.0957,4.091,4.0324,4.0096,4.0096,4.0096,4.0096,4.0096,4.0096,4.0096,4.0096,5.8423,5.8169,5.8017,5.844,5.8169,5.7881,5.7881,5.7881,5.7881,5.7881,5.7256,5.6799,5.6799,5.6511,5.6444,5.6765,5.7103,5.6816,5.5683,5.5666,5.5209,5.4042,5.3687,5.3501,5.3501,5.2435,5.1921,5.1921,5.0907,5.1061,5.2215,5.0371,4.9678,4.9982,4.9306,4.8781,4.8409,4.8409,4.8409,4.8359,4.7614,4.7986,4.8934,4.8189,4.8376,4.9001,4.9001,4.9001,4.9001,4.9001,4.8731,4.8291,4.7547,4.6802,4.6058,4.5314,4.484,4.4615,4.4615,4.4253,4.3902,4.3902,4.3229,4.2816,4.368,4.3591,4.3562,4.4412,4.4615,4.4615,4.4615,4.4615,4.4496,4.4113,4.369,4.3003,4.1948,4.1107,4.0314,3.9547,4.0056,4.0318,3.9989,4.0945,4.1343,4.0631,4.1281,4.1373,4.0629,4.1305,4.1204,4.013,4.1187,4.1238,4.0113,4.0891,4.0891,4.0096,4.0096,4.0282,4.0612,4.1018,4.139,4.1694,4.1694,4.1508,4.117,4.0764,4.0417,4.0096,4.0096,4.0096,4.0096,4.0096,4.0316,4.0544,5.7881,5.7881,5.7881,5.7881,5.7881,5.7881,5.7881,5.7881,5.7881,5.7881,5.7256,5.6799,5.6799,5.6258,5.6139,5.6748,5.7459,5.7577,5.685,5.6122,5.5378,5.4617,5.389,5.3501,5.3501,5.2592,5.2082,5.1921,5.1322,5.1827,5.3281,5.1099,5.0422,5.098,4.961,4.9001,4.9001,4.9001,4.9001,4.8951,4.8342,4.846,4.8934,4.8308,4.846,4.9001,4.9001,4.9001,4.9001,4.9001,4.8934,4.8731,4.8091,4.7394,4.665,4.5923,4.5263,4.475,4.4632,4.4615,4.4615,4.4615,4.4035,4.368,4.4412,4.4035,4.3726,4.4457,4.4615,4.4615,4.4615,4.4615,4.4395,4.3707,4.3403,4.2811,4.1542,4.117,4.0798,4.018,4.1416,4.2049,4.1424,4.2506,4.2699,4.1457,4.1728,4.1728,4.1238,4.1779,4.1593,4.0468,4.1153,4.117,4.0451,4.0214,4.0096,4.0096,4.0096,4.0476,4.1204,4.1322,4.1779,4.2472,4.2472,4.2049,4.1373,4.1255,4.0764,4.0096,4.0096,4.0096,4.0113,4.0231,4.0646,4.1119,5.7881,5.7881,5.7881,5.7881,5.7881,5.7881,5.7881,5.7881,5.7881,5.7881,5.7256,5.6799,5.6799,5.6697,5.6681,5.6799,5.7459,5.7577,5.685,5.6122,5.5378,5.4617,5.389,5.3501,5.3501,5.3348,5.28,5.1921,5.1998,5.2218,5.2452,5.0845,5.0152,5.0219,4.9373,4.9001,4.9001,4.9001,4.9001,4.8984,4.8883,4.89,4.8984,4.8883,4.89,4.9001,4.9001,4.9001,4.9001,4.9001,4.8595,4.8041,4.7922,4.7394,4.665,4.5923,4.5618,4.5382,4.4784,4.4615,4.4615,4.4615,4.4514,4.444,4.457,4.4514,4.4457,4.457,4.4615,4.4615,4.4615,4.4615,4.4564,4.4418,4.3318,4.2388,4.2151,4.1077,4.0231,4.0113,4.1416,4.2252,4.2134,4.2337,4.2371,4.2151,4.1094,4.0646,4.117,4.1322,4.1542,4.1931,4.2675,4.2709,4.1974,4.0722,4.0096,4.0096,4.0096,4.0476,4.1221,4.1847,4.254,4.325,4.325,4.2811,4.2066,4.1457,4.0764,4.0096,4.0096,4.0096,4.018,4.0798,4.1102,4.1187,5.7724,5.7881,5.7881,5.7881,5.7881,5.7881,5.7881,5.7881,5.7881,5.7881,5.7594,5.7391,5.7391,5.7391,5.7391,5.7391,5.7695,5.7746,5.7408,5.6714,5.5801,5.4634,5.4262,5.3907,5.3518,5.2939,5.2679,5.2749,5.2312,5.2368,5.2926,5.1809,5.1065,5.0659,4.9915,4.9373,4.9001,4.9001,4.9001,4.9001,4.9001,4.9001,4.9001,4.9001,4.9001,4.9001,4.9001,4.9001,4.9001,4.9001,4.8781,4.8494,4.8494,4.8003,4.7344,4.6989,4.6041,4.5026,4.4699,4.4615,4.4615,4.4615,4.4615,4.4615,4.4615,4.4615,4.4615,4.4615,4.4615,4.4615,4.4615,4.4615,4.4479,4.4012,4.3014,4.2151,4.1762,4.079,4.0096,4.0096,4.1035,4.1711,4.1711,4.2066,4.2286,4.2286,4.166,4.161,4.2371,4.2361,4.2557,4.2878,4.2844,4.2642,4.2286,4.1221,4.0476,4.0096,4.0493,4.1068,4.1813,4.2557,4.3098,4.3409,4.3859,4.3369,4.2286,4.2371,4.1728,4.0679,4.0679,4.0679,4.073,4.1068,4.1711,4.2337,5.7583,5.7881,5.7881,5.7881,5.7881,5.7881,5.7881,5.7881,5.7881,5.7881,5.7881,5.7881,5.7881,5.7881,5.7881,5.7881,5.7881,5.7881,5.7881,5.7357,5.6393,5.4921,5.4532,5.4076,5.3518,5.2714,5.2679,5.3501,5.2679,5.2714,5.3484,5.2689,5.1911,5.1183,5.0422,4.9678,4.9001,4.9001,4.9001,4.9001,4.9001,4.9001,4.9001,4.9001,4.9001,4.9001,4.9001,4.9001,4.9001,4.9001,4.9001,4.9001,4.9001,4.8612,4.8108,4.7939,4.6583,4.5089,4.4919,4.4733,4.4615,4.4615,4.4615,4.4615,4.4615,4.4615,4.4615,4.4615,4.4615,4.4615,4.4615,4.4615,4.4412,4.3792,4.2895,4.2151,4.1779,4.0933,4.0434,4.0603,4.1102,4.1457,4.1457,4.1965,4.2286,4.2286,4.2286,4.2625,4.3341,4.3392,4.3504,4.3673,4.2777,4.2371,4.254,4.183,4.1085,4.0367,4.1102,4.1745,4.232,4.3064,4.3494,4.3724,4.4316,4.3809,4.2591,4.3183,4.2642,4.1457,4.1457,4.1457,4.1474,4.166,4.2412,4.3308,5.7583,5.7881,5.7881,5.7881,5.7881,5.7881,5.7881,5.7881,5.7881,5.7881,5.7881,5.7881,5.7881,5.7881,5.7881,5.7881,5.7881,5.7881,5.7881,5.7831,5.7154,5.57,5.4313,5.3568,5.3501,5.3433,5.3433,5.3501,5.3433,5.3433,5.3484,5.2689,5.1911,5.1183,5.0422,4.9678,4.9001,4.9001,4.9001,4.9001,4.9001,4.9001,4.9001,4.9001,4.9001,4.9001,4.9001,4.9001,4.9001,4.9001,4.9001,4.9001,4.9001,4.8968,4.8781,4.8091,4.731,4.6481,4.5805,4.5111,4.4615,4.4615,4.4615,4.4615,4.4615,4.4615,4.4615,4.4615,4.4615,4.4615,4.4615,4.4615,4.4581,4.453,4.3278,4.2523,4.3139,4.2016,4.1373,4.2049,4.2185,4.2219,4.2219,4.2252,4.2286,4.2286,4.2286,4.2625,4.3341,4.3392,4.3741,4.4496,4.3064,4.2625,4.3291,4.2591,4.1847,4.1136,4.1863,4.2236,4.232,4.3064,4.3809,4.4513,4.4581,4.4096,4.3308,4.3375,4.2946,4.2219,4.2219,4.2219,4.2286,4.2997,4.3291,4.3375,5.5837,5.6808,5.7357,5.7814,5.7881,5.7881,5.7881,5.7881,5.7881,5.7881,5.7881,5.7881,5.7881,5.7881,5.7881,5.7881,5.7881,5.7881,5.7881,5.7036,5.6292,5.5733,5.4296,5.3501,5.3501,5.3501,5.3501,5.3501,5.3501,5.3501,5.3501,5.3196,5.2384,5.12,5.0913,5.0118,4.9001,4.9001,4.9001,4.9001,4.9001,4.9001,4.9001,4.9001,4.9001,4.9001,4.9001,4.9001,4.9001,4.9001,4.9001,4.9001,4.9001,4.9001,4.8951,4.8663,4.8071,4.7327,4.6583,4.5838,4.5162,4.4716,4.4615,4.4615,4.4615,4.4615,4.4615,4.4615,4.4615,4.4615,4.4615,4.4615,4.4615,4.4615,4.369,4.3098,4.3341,4.2523,4.1982,4.2252,4.2286,4.2286,4.2286,4.2286,4.2489,4.2963,4.298,4.3318,4.4096,4.413,4.4265,4.4598,4.4039,4.3606,4.3392,4.3132,4.2608,4.188,4.2642,4.298,4.3014,4.3792,4.4299,4.4615,4.4615,4.4445,4.413,4.413,4.369,4.298,4.298,4.298,4.2963,4.2777,4.3318,4.4062,5.4826,5.6114,5.7036,5.7763,5.7695,5.7628,5.7848,5.7695,5.7628,5.7865,5.7881,5.7881,5.7881,5.7881,5.7881,5.7881,5.7881,5.7797,5.756,5.6173,5.526,5.504,5.4042,5.3501,5.3501,5.3501,5.3501,5.3501,5.3501,5.3501,5.3501,5.3501,5.2807,5.1555,5.1555,5.0727,4.9357,4.9357,4.9221,4.9001,4.9001,4.9001,4.9001,4.9001,4.9001,4.9001,4.9001,4.9001,4.9001,4.9001,4.9001,4.9001,4.9001,4.9001,4.9001,4.9001,4.8646,4.8037,4.7056,4.643,4.5805,4.4852,4.4615,4.4615,4.4615,4.4615,4.4615,4.4615,4.4615,4.4615,4.4615,4.4615,4.4615,4.4615,4.3927,4.3504,4.3741,4.3115,4.2743,4.298,4.2794,4.2642,4.2642,4.2642,4.2861,4.3358,4.3639,4.4012,4.4581,4.4615,4.4615,4.4615,4.4615,4.4333,4.3792,4.3792,4.3403,4.2658,4.342,4.3656,4.3426,4.4215,4.4615,4.4615,4.4615,4.4615,4.4615,4.4615,4.4265,4.3792,4.3792,4.3792,4.3724,4.32,4.3701,4.453,5.4771,5.6097,5.7019,5.7746,5.7289,5.7053,5.7763,5.7273,5.707,5.7797,5.7881,5.7881,5.7881,5.7881,5.7881,5.7881,5.7881,5.7577,5.685,5.5412,5.4262,5.3534,5.3501,5.3501,5.3501,5.3501,5.3501,5.3501,5.3501,5.3501,5.3501,5.3501,5.3078,5.23,5.23,5.1471,5.0084,5.0084,4.9661,4.9001,4.9001,4.9001,4.9001,4.9001,4.9001,4.9001,4.9001,4.9001,4.9001,4.9001,4.9001,4.9001,4.9001,4.9001,4.9001,4.9001,4.9001,4.868,4.7208,4.6802,4.6447,4.4987,4.4615,4.4615,4.4615,4.4615,4.4615,4.4615,4.4615,4.4615,4.4615,4.4615,4.4615,4.4615,4.3927,4.369,4.4496,4.391,4.3724,4.4513,4.391,4.3392,4.3392,4.3392,4.3392,4.3392,4.4147,4.4615,4.4615,4.4615,4.4615,4.4615,4.4615,4.4615,4.4615,4.4615,4.4198,4.3409,4.4215,4.4181,4.3426,4.4231,4.4615,4.4615,4.4615,4.4615,4.4615,4.4615,4.4615,4.4615,4.4615,4.4615,4.4615,4.4598,4.4598,4.4615,5.2899,5.4202,5.5399,5.6877,5.7357,5.7459,5.7171,5.7374,5.7645,5.7865,5.7881,5.7881,5.7881,5.7881,5.7881,5.7881,5.7881,5.7357,5.6122,5.5124,5.4262,5.3534,5.3501,5.3501,5.3501,5.3501,5.3501,5.3501,5.3501,5.3501,5.3501,5.3501,5.3078,5.23,5.23,5.1471,5.0084,5.0084,4.9661,4.9001,4.9001,4.9001,4.9001,4.9001,4.9001,4.9001,4.9001,4.9001,4.9001,4.9001,4.9001,4.9001,4.9001,4.9001,4.9001,4.9001,4.9001,4.8798,4.7834,4.7581,4.709,4.5106,4.4615,4.4615,4.4615,4.4615,4.4615,4.4615,4.4615,4.4615,4.4615,4.4615,4.4615,4.4615,4.4412,4.4344,4.4581,4.4384,4.4316,4.4581,4.4395,4.4231,4.4231,4.4231,4.4231,4.4231,4.4479,4.4615,4.4615,4.4615,4.4615,4.4615,4.4615,4.4615,4.4615,4.4615,4.4496,4.4231,4.4496,4.4479,4.4248,4.4496,4.4615,4.4615,4.4615,4.4615,4.4615,4.4615,4.4615,4.4615,4.4615,4.4615,4.4547,4.3961,4.4113,4.453,5.1876,5.3525,5.5155,5.6556,5.7171,5.7408,5.7256,5.7357,5.756,5.7848,5.7881,5.7881,5.7881,5.7881,5.7881,5.7881,5.7357,5.6782,5.619,5.4905,5.4093,5.394,5.3653,5.3501,5.3501,5.3501,5.3501,5.3501,5.3501,5.3501,5.3501,5.3501,5.3247,5.2773,5.2773,5.1944,5.0541,5.0541,4.9949,4.9001,4.9001,4.9001,4.9001,4.9001,4.9001,4.9001,4.9001,4.9001,4.9001,4.9001,4.9001,4.9001,4.9001,4.9001,4.9001,4.9001,4.9001,4.8849,4.8091,4.7889,4.753,4.5872,4.5258,4.4942,4.4682,4.4615,4.4615,4.4615,4.4615,4.4615,4.4615,4.4615,4.4615,4.4615,4.4615,4.4615,4.4615,4.4615,4.4716,4.4993,4.5026,4.5026,4.5026,4.5309,4.5478,4.5478,4.5478,4.5359,4.5043,4.5026,4.4919,4.4615,4.4615,4.4615,4.4615,4.4615,4.4615,4.4615,4.4615,4.4615,4.4615,4.4615,4.4615,4.4615,4.4615,4.4615,4.4615,4.4615,4.4615,4.4615,4.4615,4.4615,4.4547,4.4045,4.4181,4.4547,5.1643,5.3816,5.5881,5.656,5.6816,5.7103,5.7695,5.7289,5.7137,5.7797,5.7881,5.7881,5.7881,5.7881,5.7881,5.7881,5.6562,5.6004,5.6664,5.4702,5.3805,5.4465,5.3856,5.3501,5.3501,5.3501,5.3501,5.3501,5.3501,5.3501,5.3501,5.3501,5.3501,5.3501,5.3501,5.2655,5.1185,5.1185,5.0371,4.9001,4.9001,4.9035,4.9086,4.9035,4.9035,4.9086,4.9018,4.9001,4.9001,4.9001,4.9001,4.9001,4.9001,4.9001,4.9001,4.9001,4.9001,4.8849,4.8189,4.799,4.7834,4.7073,4.6397,4.5703,4.497,4.475,4.4699,4.4699,4.4649,4.4615,4.4615,4.4615,4.4615,4.4615,4.4615,4.4632,4.4699,4.4699,4.4987,4.572,4.5805,4.5805,4.5805,4.6397,4.6786,4.6786,4.6786,4.6481,4.5737,4.5703,4.5348,4.4632,4.4615,4.4615,4.4615,4.4615,4.4615,4.4615,4.4615,4.4632,4.4699,4.4632,4.4649,4.4699,4.4632,4.4615,4.4615,4.4615,4.4615,4.4615,4.4615,4.4615,4.4615,4.4615,4.4615,4.4615,5.2518,5.4121,5.5508,5.5862,5.6884,5.7509,5.7103,5.7391,5.7712,5.7865,5.7881,5.7881,5.7881,5.7881,5.7881,5.7881,5.6562,5.5749,5.5936,5.4414,5.3568,5.3737,5.3602,5.3501,5.3501,5.3501,5.3501,5.3501,5.3501,5.3501,5.3501,5.3501,5.3501,5.3501,5.3501,5.2655,5.1185,5.1185,5.0371,4.9001,4.9001,4.9357,4.9796,4.9221,4.9357,4.9779,4.9204,4.9001,4.9001,4.9001,4.9001,4.9001,4.9001,4.9001,4.9001,4.9001,4.9001,4.8968,4.8798,4.8765,4.8595,4.7868,4.7547,4.7242,4.6481,4.5872,4.5466,4.5466,4.4993,4.4615,4.4615,4.4615,4.4615,4.4615,4.4615,4.4818,4.5382,4.5466,4.5737,4.6464,4.6549,4.6549,4.6549,4.6701,4.6786,4.6786,4.6786,4.6481,4.5737,4.5703,4.5348,4.4632,4.4615,4.4615,4.4615,4.4615,4.4615,4.4615,4.4615,4.4919,4.5449,4.484,4.4936,4.5432,4.4869,4.4615,4.4615,4.4615,4.4615,4.4615,4.4615,4.4615,4.4615,4.4615,4.4615,4.4615,5.2324,5.3973,5.5532,5.5678,5.663,5.7357,5.7323,5.7645,5.7881,5.7881,5.7881,5.7881,5.7881,5.7881,5.7881,5.7881,5.6562,5.5869,5.6207,5.4515,5.367,5.4008,5.3687,5.3501,5.3501,5.3501,5.3501,5.3501,5.3501,5.3501,5.3501,5.3501,5.3501,5.3501,5.3501,5.2655,5.1185,5.1185,5.0557,4.9526,4.9526,4.9965,5.0541,4.9813,4.9763,4.9999,4.9255,4.9001,4.9001,4.9001,4.9001,4.9001,4.9001,4.9001,4.9001,4.9001,4.9001,4.9001,4.9001,4.9001,4.8917,4.8528,4.8443,4.8139,4.7039,4.6498,4.6227,4.6227,4.5906,4.5664,4.5664,4.5664,4.5664,4.5664,4.5664,4.5771,4.616,4.6227,4.6498,4.7242,4.7327,4.7462,4.7817,4.7817,4.7807,4.7847,4.7851,4.753,4.6802,4.6769,4.6413,4.5652,4.5664,4.5664,4.5664,4.5664,4.5664,4.5664,4.528,4.5331,4.5703,4.5652,4.5669,4.5703,4.5652,4.5258,4.4632,4.4976,4.4936,4.4615,4.4615,4.4615,4.4615,4.4615,4.4615,4.4615,5.2335,5.3967,5.5681,5.5681,5.6325,5.7053,5.778,5.7881,5.7881,5.7881,5.7881,5.7881,5.7881,5.7881,5.7881,5.7881,5.6681,5.6156,5.6765,5.4972,5.416,5.4752,5.4076,5.3687,5.3687,5.3568,5.3501,5.3501,5.3501,5.3501,5.3501,5.3501,5.3501,5.3501,5.3501,5.2723,5.1403,5.1403,5.0896,5.0084,5.0084,5.0541,5.1133,5.0371,5.0168,5.0202,4.9593,4.9289,4.9187,4.9187,4.9103,4.9018,4.9154,4.9103,4.9018,4.9154,4.9103,4.9001,4.9001,4.9001,4.9001,4.9001,4.9001,4.868,4.7445,4.7073,4.6989,4.6989,4.6887,4.6786,4.6786,4.6786,4.6786,4.6786,4.6786,4.6836,4.6972,4.6989,4.7259,4.799,4.8179,4.8489,4.9131,4.9223,4.9188,4.9012,4.9107,4.8785,4.797,4.7889,4.7564,4.6802,4.6786,4.6786,4.6786,4.6786,4.6786,4.6786,4.6312,4.6092,4.6092,4.6583,4.6464,4.5923,4.6397,4.5838,4.4649,4.5263,4.5145,4.4615,4.4615,4.4615,4.4615,4.4615,4.4615,4.4615,5.4355,5.5001,5.5681,5.5681,5.6325,5.7053,5.778,5.7881,5.7881,5.7881,5.7881,5.7881,5.7881,5.7881,5.7881,5.7881,5.712,5.6697,5.6799,5.5936,5.5463,5.5564,5.4837,5.4448,5.4448,5.3822,5.3501,5.3501,5.3501,5.3501,5.3501,5.3501,5.3501,5.3501,5.3501,5.301,5.2147,5.2147,5.1352,5.0084,5.0084,5.0541,5.1133,5.0371,5.049,5.1048,5.0947,5.049,4.9949,4.9949,4.9526,4.912,4.9746,4.9509,4.9137,4.9763,4.9492,4.9001,4.9001,4.9001,4.9001,4.9001,4.9001,4.8951,4.8748,4.8223,4.7736,4.7736,4.7242,4.6786,4.6786,4.6786,4.6786,4.6786,4.6786,4.7022,4.7682,4.7736,4.8007,4.8765,4.9367,4.9775,4.9861,5.0439,5.0303,4.9107,4.9551,4.9296,4.7983,4.7889,4.7564,4.6802,4.6786,4.6786,4.6786,4.6786,4.6786,4.6802,4.7361,4.7584,4.7567,4.7056,4.6735,4.6616,4.6075,4.5365,4.4615,4.4716,4.4699,4.4615,4.4615,4.4615,4.4615,4.4615,4.4615,4.4615,5.3725,5.4419,5.5226,5.5649,5.5987,5.6579,5.7712,5.7881,5.7881,5.7881,5.7881,5.7881,5.7881,5.7881,5.7729,5.7306,5.6985,5.6799,5.6799,5.6122,5.5902,5.6308,5.5209,5.4583,5.4583,5.3873,5.3501,5.3501,5.3501,5.3501,5.3501,5.3501,5.3501,5.3501,5.3501,5.3061,5.23,5.23,5.1928,5.1336,5.1336,5.1792,5.2367,5.1183,5.1183,5.1775,5.1369,5.0997,5.071,5.071,5.0507,5.0219,5.0118,5.0152,5.0135,4.9627,4.9543,4.9526,4.912,4.9001,4.9001,4.9001,4.9001,4.9001,4.9001,4.8748,4.8528,4.8528,4.8257,4.8037,4.8037,4.8037,4.8037,4.8037,4.8037,4.8139,4.8477,4.8528,4.8765,4.9487,5.0202,5.0608,5.0608,5.1266,5.1068,4.9664,4.9821,4.9555,4.8575,4.8528,4.8376,4.8037,4.8037,4.8037,4.8037,4.8037,4.8037,4.8037,4.8376,4.8308,4.7889,4.8003,4.78,4.7411,4.7073,4.6278,4.5213,4.5213,4.4959,4.4615,4.4615,4.4615,4.4615,4.4615,4.4615,4.4615]}]]